<?xml version="1.0" encoding="UTF-8" standalone="no" ?>
<gpx xmlns="http://www.topografix.com/GPX/1/1" xmlns:xsi="http://www.w3.org/2001/XMLSchema-instance" xsi:schemaLocation="http://www.topografix.com/GPX/1/1 http://www.topografix.com/GPX/1/1/gpx.xsd" version="1.1" creator="VisuGPX - https://www.visugpx.com">
  <metadata>
    <name>141217ROBMinots</name>
    <desc><![CDATA[Bonne sortie]]></desc>
  </metadata>
  <trk>
    <name><![CDATA[141217ROBMinots]]></name>
    <trkseg>
      <trkpt lat="43.41576" lon="6.07038">
        <ele>218.38157653809</ele>
        <time>2014-12-17T12:38:39Z</time>
      </trkpt>
      <trkpt lat="43.41576" lon="6.07038">
        <ele>218.38157653809</ele>
        <time>2014-12-17T12:38:40Z</time>
      </trkpt>
      <trkpt lat="43.41576" lon="6.07038">
        <ele>218.37356567383</ele>
        <time>2014-12-17T12:38:44Z</time>
      </trkpt>
      <trkpt lat="43.41576" lon="6.07041">
        <ele>218.33981323242</ele>
        <time>2014-12-17T12:38:46Z</time>
      </trkpt>
      <trkpt lat="43.41578" lon="6.07056">
        <ele>218.19216918945</ele>
        <time>2014-12-17T12:38:53Z</time>
      </trkpt>
      <trkpt lat="43.41581" lon="6.07081">
        <ele>217.98275756836</ele>
        <time>2014-12-17T12:38:59Z</time>
      </trkpt>
      <trkpt lat="43.41579" lon="6.07103">
        <ele>217.89733886719</ele>
        <time>2014-12-17T12:39:05Z</time>
      </trkpt>
      <trkpt lat="43.41567" lon="6.07111">
        <ele>217.61352539062</ele>
        <time>2014-12-17T12:39:10Z</time>
      </trkpt>
      <trkpt lat="43.41563" lon="6.07112">
        <ele>217.51281738281</ele>
        <time>2014-12-17T12:39:11Z</time>
      </trkpt>
      <trkpt lat="43.41551" lon="6.07113">
        <ele>217.21984863281</ele>
        <time>2014-12-17T12:39:14Z</time>
      </trkpt>
      <trkpt lat="43.41547" lon="6.07112">
        <ele>217.119140625</ele>
        <time>2014-12-17T12:39:16Z</time>
      </trkpt>
      <trkpt lat="43.41545" lon="6.07108">
        <ele>217.09167480469</ele>
        <time>2014-12-17T12:39:18Z</time>
      </trkpt>
      <trkpt lat="43.41544" lon="6.07102">
        <ele>217.06420898438</ele>
        <time>2014-12-17T12:39:20Z</time>
      </trkpt>
      <trkpt lat="43.41543" lon="6.07089">
        <ele>217.03674316406</ele>
        <time>2014-12-17T12:39:24Z</time>
      </trkpt>
      <trkpt lat="43.41537" lon="6.07073">
        <ele>217.00314331055</ele>
        <time>2014-12-17T12:39:30Z</time>
      </trkpt>
      <trkpt lat="43.41534" lon="6.07073">
        <ele>216.9333190918</ele>
        <time>2014-12-17T12:39:31Z</time>
      </trkpt>
      <trkpt lat="43.41523" lon="6.07077">
        <ele>216.63348388672</ele>
        <time>2014-12-17T12:39:34Z</time>
      </trkpt>
      <trkpt lat="43.41519" lon="6.07078">
        <ele>216.51675415039</ele>
        <time>2014-12-17T12:39:35Z</time>
      </trkpt>
      <trkpt lat="43.41507" lon="6.0708">
        <ele>216.20547485352</ele>
        <time>2014-12-17T12:39:38Z</time>
      </trkpt>
      <trkpt lat="43.41496" lon="6.07079">
        <ele>215.94134521484</ele>
        <time>2014-12-17T12:39:41Z</time>
      </trkpt>
      <trkpt lat="43.41474" lon="6.07071">
        <ele>215.57550048828</ele>
        <time>2014-12-17T12:39:47Z</time>
      </trkpt>
      <trkpt lat="43.41468" lon="6.07068">
        <ele>215.49301147461</ele>
        <time>2014-12-17T12:39:51Z</time>
      </trkpt>
      <trkpt lat="43.41466" lon="6.07066">
        <ele>215.47795104981</ele>
        <time>2014-12-17T12:39:54Z</time>
      </trkpt>
      <trkpt lat="43.41465" lon="6.07063">
        <ele>215.50709533691</ele>
        <time>2014-12-17T12:39:57Z</time>
      </trkpt>
      <trkpt lat="43.41466" lon="6.07063">
        <ele>215.53042602539</ele>
        <time>2014-12-17T12:39:58Z</time>
      </trkpt>
      <trkpt lat="43.41467" lon="6.0706">
        <ele>215.59056091309</ele>
        <time>2014-12-17T12:40:00Z</time>
      </trkpt>
      <trkpt lat="43.41467" lon="6.07058">
        <ele>215.63020324707</ele>
        <time>2014-12-17T12:40:03Z</time>
      </trkpt>
      <trkpt lat="43.41467" lon="6.07058">
        <ele>215.6365814209</ele>
        <time>2014-12-17T12:40:14Z</time>
      </trkpt>
      <trkpt lat="43.41467" lon="6.07058">
        <ele>215.6365814209</ele>
        <time>2014-12-17T12:40:16Z</time>
      </trkpt>
      <trkpt lat="43.4147" lon="6.07052">
        <ele>215.79373168945</ele>
        <time>2014-12-17T12:40:23Z</time>
      </trkpt>
      <trkpt lat="43.41476" lon="6.07039">
        <ele>216.11285400391</ele>
        <time>2014-12-17T12:40:27Z</time>
      </trkpt>
      <trkpt lat="43.41479" lon="6.0703">
        <ele>216.30158996582</ele>
        <time>2014-12-17T12:40:29Z</time>
      </trkpt>
      <trkpt lat="43.41492" lon="6.06996">
        <ele>216.94309997559</ele>
        <time>2014-12-17T12:40:36Z</time>
      </trkpt>
      <trkpt lat="43.41492" lon="6.06985">
        <ele>217.09243774414</ele>
        <time>2014-12-17T12:40:38Z</time>
      </trkpt>
      <trkpt lat="43.41491" lon="6.06974">
        <ele>217.20916748047</ele>
        <time>2014-12-17T12:40:40Z</time>
      </trkpt>
      <trkpt lat="43.41488" lon="6.06964">
        <ele>217.28642272949</ele>
        <time>2014-12-17T12:40:42Z</time>
      </trkpt>
      <trkpt lat="43.41481" lon="6.0695">
        <ele>217.37283325195</ele>
        <time>2014-12-17T12:40:45Z</time>
      </trkpt>
      <trkpt lat="43.41476" lon="6.06942">
        <ele>217.4100189209</ele>
        <time>2014-12-17T12:40:47Z</time>
      </trkpt>
      <trkpt lat="43.41474" lon="6.06938">
        <ele>217.43061828613</ele>
        <time>2014-12-17T12:40:48Z</time>
      </trkpt>
      <trkpt lat="43.41467" lon="6.06921">
        <ele>217.5456237793</ele>
        <time>2014-12-17T12:40:52Z</time>
      </trkpt>
      <trkpt lat="43.41468" lon="6.06918">
        <ele>217.61087036133</ele>
        <time>2014-12-17T12:40:53Z</time>
      </trkpt>
      <trkpt lat="43.41475" lon="6.06896">
        <ele>218.01490783691</ele>
        <time>2014-12-17T12:40:59Z</time>
      </trkpt>
      <trkpt lat="43.41474" lon="6.06897">
        <ele>217.99945068359</ele>
        <time>2014-12-17T12:41:03Z</time>
      </trkpt>
      <trkpt lat="43.41475" lon="6.06897">
        <ele>218.00444030762</ele>
        <time>2014-12-17T12:41:12Z</time>
      </trkpt>
      <trkpt lat="43.41474" lon="6.06894">
        <ele>218.05267333984</ele>
        <time>2014-12-17T12:41:15Z</time>
      </trkpt>
      <trkpt lat="43.41473" lon="6.06888">
        <ele>218.12759399414</ele>
        <time>2014-12-17T12:41:17Z</time>
      </trkpt>
      <trkpt lat="43.41473" lon="6.06886">
        <ele>218.16232299805</ele>
        <time>2014-12-17T12:41:21Z</time>
      </trkpt>
      <trkpt lat="43.41474" lon="6.0688">
        <ele>218.27009582519</ele>
        <time>2014-12-17T12:41:27Z</time>
      </trkpt>
      <trkpt lat="43.41473" lon="6.06865">
        <ele>218.49147033691</ele>
        <time>2014-12-17T12:41:31Z</time>
      </trkpt>
      <trkpt lat="43.41473" lon="6.06862">
        <ele>218.54875183106</ele>
        <time>2014-12-17T12:41:32Z</time>
      </trkpt>
      <trkpt lat="43.41474" lon="6.06842">
        <ele>218.86486816406</ele>
        <time>2014-12-17T12:41:37Z</time>
      </trkpt>
      <trkpt lat="43.41481" lon="6.0682">
        <ele>219.03820800781</ele>
        <time>2014-12-17T12:41:43Z</time>
      </trkpt>
      <trkpt lat="43.41486" lon="6.06804">
        <ele>219.06056213379</ele>
        <time>2014-12-17T12:41:46Z</time>
      </trkpt>
      <trkpt lat="43.41489" lon="6.06786">
        <ele>219.07171630859</ele>
        <time>2014-12-17T12:41:49Z</time>
      </trkpt>
      <trkpt lat="43.41492" lon="6.06769">
        <ele>219.06979370117</ele>
        <time>2014-12-17T12:41:52Z</time>
      </trkpt>
      <trkpt lat="43.41495" lon="6.06737">
        <ele>219.05841064453</ele>
        <time>2014-12-17T12:41:57Z</time>
      </trkpt>
      <trkpt lat="43.41498" lon="6.067">
        <ele>219.02178955078</ele>
        <time>2014-12-17T12:42:03Z</time>
      </trkpt>
      <trkpt lat="43.41502" lon="6.06658">
        <ele>219.02133178711</ele>
        <time>2014-12-17T12:42:10Z</time>
      </trkpt>
      <trkpt lat="43.41507" lon="6.06636">
        <ele>219.10836791992</ele>
        <time>2014-12-17T12:42:14Z</time>
      </trkpt>
      <trkpt lat="43.41512" lon="6.066">
        <ele>219.24838256836</ele>
        <time>2014-12-17T12:42:20Z</time>
      </trkpt>
      <trkpt lat="43.41513" lon="6.06589">
        <ele>219.29461669922</ele>
        <time>2014-12-17T12:42:22Z</time>
      </trkpt>
      <trkpt lat="43.41521" lon="6.06544">
        <ele>219.85467529297</ele>
        <time>2014-12-17T12:42:30Z</time>
      </trkpt>
      <trkpt lat="43.41528" lon="6.06506">
        <ele>220.29560852051</ele>
        <time>2014-12-17T12:42:37Z</time>
      </trkpt>
      <trkpt lat="43.41541" lon="6.06482">
        <ele>220.60234069824</ele>
        <time>2014-12-17T12:42:43Z</time>
      </trkpt>
      <trkpt lat="43.41548" lon="6.06472">
        <ele>220.77458190918</ele>
        <time>2014-12-17T12:42:47Z</time>
      </trkpt>
      <trkpt lat="43.41548" lon="6.06468">
        <ele>220.80268859863</ele>
        <time>2014-12-17T12:42:48Z</time>
      </trkpt>
      <trkpt lat="43.41545" lon="6.06454">
        <ele>220.84040832519</ele>
        <time>2014-12-17T12:42:51Z</time>
      </trkpt>
      <trkpt lat="43.41544" lon="6.06449">
        <ele>220.85815429688</ele>
        <time>2014-12-17T12:42:52Z</time>
      </trkpt>
      <trkpt lat="43.41544" lon="6.06437">
        <ele>220.93153381348</ele>
        <time>2014-12-17T12:42:54Z</time>
      </trkpt>
      <trkpt lat="43.41547" lon="6.0642">
        <ele>221.10900878906</ele>
        <time>2014-12-17T12:42:57Z</time>
      </trkpt>
      <trkpt lat="43.41549" lon="6.06408">
        <ele>221.32768249512</ele>
        <time>2014-12-17T12:42:59Z</time>
      </trkpt>
      <trkpt lat="43.41552" lon="6.06392">
        <ele>221.65625</ele>
        <time>2014-12-17T12:43:02Z</time>
      </trkpt>
      <trkpt lat="43.41555" lon="6.06377">
        <ele>221.95697021484</ele>
        <time>2014-12-17T12:43:05Z</time>
      </trkpt>
      <trkpt lat="43.41556" lon="6.06372">
        <ele>222.05244445801</ele>
        <time>2014-12-17T12:43:06Z</time>
      </trkpt>
      <trkpt lat="43.41561" lon="6.06353">
        <ele>222.43048095703</ele>
        <time>2014-12-17T12:43:10Z</time>
      </trkpt>
      <trkpt lat="43.41565" lon="6.06345">
        <ele>222.60829162598</ele>
        <time>2014-12-17T12:43:12Z</time>
      </trkpt>
      <trkpt lat="43.41569" lon="6.06337">
        <ele>222.7703704834</ele>
        <time>2014-12-17T12:43:14Z</time>
      </trkpt>
      <trkpt lat="43.41576" lon="6.06327">
        <ele>223.11480712891</ele>
        <time>2014-12-17T12:43:17Z</time>
      </trkpt>
      <trkpt lat="43.41585" lon="6.0631">
        <ele>223.97822570801</ele>
        <time>2014-12-17T12:43:22Z</time>
      </trkpt>
      <trkpt lat="43.41586" lon="6.06286">
        <ele>224.91465759277</ele>
        <time>2014-12-17T12:43:28Z</time>
      </trkpt>
      <trkpt lat="43.41586" lon="6.06269">
        <ele>225.50622558594</ele>
        <time>2014-12-17T12:43:32Z</time>
      </trkpt>
      <trkpt lat="43.41588" lon="6.06266">
        <ele>225.72848510742</ele>
        <time>2014-12-17T12:43:33Z</time>
      </trkpt>
      <trkpt lat="43.416" lon="6.06257">
        <ele>226.79685974121</ele>
        <time>2014-12-17T12:43:39Z</time>
      </trkpt>
      <trkpt lat="43.41603" lon="6.06256">
        <ele>226.99270629883</ele>
        <time>2014-12-17T12:43:41Z</time>
      </trkpt>
      <trkpt lat="43.41602" lon="6.06256">
        <ele>226.96337890625</ele>
        <time>2014-12-17T12:43:43Z</time>
      </trkpt>
      <trkpt lat="43.41602" lon="6.06256">
        <ele>226.95901489258</ele>
        <time>2014-12-17T12:43:49Z</time>
      </trkpt>
      <trkpt lat="43.41602" lon="6.06251">
        <ele>227.10057067871</ele>
        <time>2014-12-17T12:43:56Z</time>
      </trkpt>
      <trkpt lat="43.41603" lon="6.06243">
        <ele>227.36268615723</ele>
        <time>2014-12-17T12:44:01Z</time>
      </trkpt>
      <trkpt lat="43.41603" lon="6.06243">
        <ele>227.36039733887</ele>
        <time>2014-12-17T12:44:05Z</time>
      </trkpt>
      <trkpt lat="43.41603" lon="6.06241">
        <ele>227.39015197754</ele>
        <time>2014-12-17T12:44:12Z</time>
      </trkpt>
      <trkpt lat="43.41606" lon="6.0623">
        <ele>227.84677124023</ele>
        <time>2014-12-17T12:44:16Z</time>
      </trkpt>
      <trkpt lat="43.41611" lon="6.06209">
        <ele>228.68104553223</ele>
        <time>2014-12-17T12:44:23Z</time>
      </trkpt>
      <trkpt lat="43.41618" lon="6.06216">
        <ele>228.91679382324</ele>
        <time>2014-12-17T12:44:26Z</time>
      </trkpt>
      <trkpt lat="43.41628" lon="6.0623">
        <ele>229.12850952148</ele>
        <time>2014-12-17T12:44:30Z</time>
      </trkpt>
      <trkpt lat="43.41634" lon="6.06235">
        <ele>229.37341308594</ele>
        <time>2014-12-17T12:44:32Z</time>
      </trkpt>
      <trkpt lat="43.41637" lon="6.06237">
        <ele>229.50730895996</ele>
        <time>2014-12-17T12:44:33Z</time>
      </trkpt>
      <trkpt lat="43.41643" lon="6.06241">
        <ele>229.79112243652</ele>
        <time>2014-12-17T12:44:35Z</time>
      </trkpt>
      <trkpt lat="43.41659" lon="6.06246">
        <ele>230.63569641113</ele>
        <time>2014-12-17T12:44:40Z</time>
      </trkpt>
      <trkpt lat="43.41683" lon="6.06252">
        <ele>231.75807189941</ele>
        <time>2014-12-17T12:44:46Z</time>
      </trkpt>
      <trkpt lat="43.41692" lon="6.06252">
        <ele>232.18104553223</ele>
        <time>2014-12-17T12:44:48Z</time>
      </trkpt>
      <trkpt lat="43.41705" lon="6.06251">
        <ele>232.80917358398</ele>
        <time>2014-12-17T12:44:51Z</time>
      </trkpt>
      <trkpt lat="43.41725" lon="6.06252">
        <ele>233.79908752441</ele>
        <time>2014-12-17T12:44:56Z</time>
      </trkpt>
      <trkpt lat="43.41748" lon="6.06254">
        <ele>234.88647460938</ele>
        <time>2014-12-17T12:45:02Z</time>
      </trkpt>
      <trkpt lat="43.41754" lon="6.06257">
        <ele>235.18090820312</ele>
        <time>2014-12-17T12:45:04Z</time>
      </trkpt>
      <trkpt lat="43.41764" lon="6.06259">
        <ele>235.67529296875</ele>
        <time>2014-12-17T12:45:07Z</time>
      </trkpt>
      <trkpt lat="43.41779" lon="6.06267">
        <ele>236.37109375</ele>
        <time>2014-12-17T12:45:12Z</time>
      </trkpt>
      <trkpt lat="43.41782" lon="6.0627">
        <ele>236.517578125</ele>
        <time>2014-12-17T12:45:13Z</time>
      </trkpt>
      <trkpt lat="43.41792" lon="6.0628">
        <ele>237.01196289062</ele>
        <time>2014-12-17T12:45:17Z</time>
      </trkpt>
      <trkpt lat="43.41797" lon="6.06285">
        <ele>237.25</ele>
        <time>2014-12-17T12:45:19Z</time>
      </trkpt>
      <trkpt lat="43.41817" lon="6.06294">
        <ele>238.2021484375</ele>
        <time>2014-12-17T12:45:26Z</time>
      </trkpt>
      <trkpt lat="43.41819" lon="6.06293">
        <ele>238.33032226562</ele>
        <time>2014-12-17T12:45:27Z</time>
      </trkpt>
      <trkpt lat="43.41836" lon="6.06294">
        <ele>239.11767578125</ele>
        <time>2014-12-17T12:45:33Z</time>
      </trkpt>
      <trkpt lat="43.41856" lon="6.06293">
        <ele>240.1064453125</ele>
        <time>2014-12-17T12:45:41Z</time>
      </trkpt>
      <trkpt lat="43.41878" lon="6.06294">
        <ele>241.15014648438</ele>
        <time>2014-12-17T12:45:49Z</time>
      </trkpt>
      <trkpt lat="43.41884" lon="6.06294">
        <ele>241.4248046875</ele>
        <time>2014-12-17T12:45:51Z</time>
      </trkpt>
      <trkpt lat="43.41895" lon="6.06294">
        <ele>241.9375</ele>
        <time>2014-12-17T12:45:55Z</time>
      </trkpt>
      <trkpt lat="43.41905" lon="6.06294">
        <ele>242.4501953125</ele>
        <time>2014-12-17T12:45:59Z</time>
      </trkpt>
      <trkpt lat="43.41908" lon="6.06294">
        <ele>242.56005859375</ele>
        <time>2014-12-17T12:46:00Z</time>
      </trkpt>
      <trkpt lat="43.41927" lon="6.06291">
        <ele>243.92646789551</ele>
        <time>2014-12-17T12:46:08Z</time>
      </trkpt>
      <trkpt lat="43.41929" lon="6.06291">
        <ele>244.13366699219</ele>
        <time>2014-12-17T12:46:09Z</time>
      </trkpt>
      <trkpt lat="43.41953" lon="6.06284">
        <ele>246.33340454102</ele>
        <time>2014-12-17T12:46:20Z</time>
      </trkpt>
      <trkpt lat="43.41965" lon="6.0628">
        <ele>247.40803527832</ele>
        <time>2014-12-17T12:46:25Z</time>
      </trkpt>
      <trkpt lat="43.41969" lon="6.06278">
        <ele>247.76686096191</ele>
        <time>2014-12-17T12:46:27Z</time>
      </trkpt>
      <trkpt lat="43.41977" lon="6.06276">
        <ele>248.5265045166</ele>
        <time>2014-12-17T12:46:31Z</time>
      </trkpt>
      <trkpt lat="43.41979" lon="6.06275">
        <ele>248.78025817871</ele>
        <time>2014-12-17T12:46:32Z</time>
      </trkpt>
      <trkpt lat="43.41988" lon="6.06271">
        <ele>249.66320800781</ele>
        <time>2014-12-17T12:46:36Z</time>
      </trkpt>
      <trkpt lat="43.41991" lon="6.06271">
        <ele>249.88198852539</ele>
        <time>2014-12-17T12:46:37Z</time>
      </trkpt>
      <trkpt lat="43.41998" lon="6.06268">
        <ele>250.55171203613</ele>
        <time>2014-12-17T12:46:40Z</time>
      </trkpt>
      <trkpt lat="43.42006" lon="6.06266">
        <ele>251.26434326172</ele>
        <time>2014-12-17T12:46:44Z</time>
      </trkpt>
      <trkpt lat="43.42014" lon="6.06264">
        <ele>251.80563354492</ele>
        <time>2014-12-17T12:46:47Z</time>
      </trkpt>
      <trkpt lat="43.42022" lon="6.06261">
        <ele>252.47283935547</ele>
        <time>2014-12-17T12:46:51Z</time>
      </trkpt>
      <trkpt lat="43.42031" lon="6.06259">
        <ele>253.13258361816</ele>
        <time>2014-12-17T12:46:55Z</time>
      </trkpt>
      <trkpt lat="43.4204" lon="6.06255">
        <ele>253.8346862793</ele>
        <time>2014-12-17T12:46:59Z</time>
      </trkpt>
      <trkpt lat="43.4205" lon="6.06252">
        <ele>254.58654785156</ele>
        <time>2014-12-17T12:47:03Z</time>
      </trkpt>
      <trkpt lat="43.42057" lon="6.0625">
        <ele>255.14204406738</ele>
        <time>2014-12-17T12:47:06Z</time>
      </trkpt>
      <trkpt lat="43.42069" lon="6.06245">
        <ele>256.08068847656</ele>
        <time>2014-12-17T12:47:11Z</time>
      </trkpt>
      <trkpt lat="43.4208" lon="6.06241">
        <ele>256.98391723633</ele>
        <time>2014-12-17T12:47:16Z</time>
      </trkpt>
      <trkpt lat="43.42084" lon="6.0624">
        <ele>257.29751586914</ele>
        <time>2014-12-17T12:47:18Z</time>
      </trkpt>
      <trkpt lat="43.4209" lon="6.06238">
        <ele>258.17645263672</ele>
        <time>2014-12-17T12:47:21Z</time>
      </trkpt>
      <trkpt lat="43.42094" lon="6.06237">
        <ele>258.701171875</ele>
        <time>2014-12-17T12:47:23Z</time>
      </trkpt>
      <trkpt lat="43.42097" lon="6.06237">
        <ele>259.23992919922</ele>
        <time>2014-12-17T12:47:25Z</time>
      </trkpt>
      <trkpt lat="43.42105" lon="6.06234">
        <ele>260.30783081055</ele>
        <time>2014-12-17T12:47:29Z</time>
      </trkpt>
      <trkpt lat="43.42112" lon="6.06231">
        <ele>261.44741821289</ele>
        <time>2014-12-17T12:47:33Z</time>
      </trkpt>
      <trkpt lat="43.4213" lon="6.06226">
        <ele>263.9997253418</ele>
        <time>2014-12-17T12:47:42Z</time>
      </trkpt>
      <trkpt lat="43.4214" lon="6.06222">
        <ele>265.58282470703</ele>
        <time>2014-12-17T12:47:48Z</time>
      </trkpt>
      <trkpt lat="43.42145" lon="6.0622">
        <ele>266.40658569336</ele>
        <time>2014-12-17T12:47:52Z</time>
      </trkpt>
      <trkpt lat="43.42149" lon="6.06214">
        <ele>267.18838500977</ele>
        <time>2014-12-17T12:47:56Z</time>
      </trkpt>
      <trkpt lat="43.42149" lon="6.06207">
        <ele>267.560546875</ele>
        <time>2014-12-17T12:48:01Z</time>
      </trkpt>
      <trkpt lat="43.42152" lon="6.06202">
        <ele>268.12002563477</ele>
        <time>2014-12-17T12:48:05Z</time>
      </trkpt>
      <trkpt lat="43.4215" lon="6.06199">
        <ele>268.08743286133</ele>
        <time>2014-12-17T12:48:07Z</time>
      </trkpt>
      <trkpt lat="43.4215" lon="6.06198">
        <ele>268.07473754883</ele>
        <time>2014-12-17T12:48:08Z</time>
      </trkpt>
      <trkpt lat="43.4215" lon="6.06198">
        <ele>268.06030273438</ele>
        <time>2014-12-17T12:48:13Z</time>
      </trkpt>
      <trkpt lat="43.4215" lon="6.06198">
        <ele>268.06030273438</ele>
        <time>2014-12-17T12:48:16Z</time>
      </trkpt>
      <trkpt lat="43.4215" lon="6.06198">
        <ele>268.06649780273</ele>
        <time>2014-12-17T12:48:18Z</time>
      </trkpt>
      <trkpt lat="43.4215" lon="6.06198">
        <ele>268.07061767578</ele>
        <time>2014-12-17T12:48:41Z</time>
      </trkpt>
      <trkpt lat="43.4215" lon="6.06198">
        <ele>268.07269287109</ele>
        <time>2014-12-17T12:48:50Z</time>
      </trkpt>
      <trkpt lat="43.42149" lon="6.06195">
        <ele>268.01693725586</ele>
        <time>2014-12-17T12:48:52Z</time>
      </trkpt>
      <trkpt lat="43.42147" lon="6.0619">
        <ele>267.99795532227</ele>
        <time>2014-12-17T12:48:54Z</time>
      </trkpt>
      <trkpt lat="43.42139" lon="6.06168">
        <ele>267.63385009766</ele>
        <time>2014-12-17T12:48:59Z</time>
      </trkpt>
      <trkpt lat="43.42132" lon="6.06148">
        <ele>267.14865112305</ele>
        <time>2014-12-17T12:49:02Z</time>
      </trkpt>
      <trkpt lat="43.42128" lon="6.06133">
        <ele>266.92437744141</ele>
        <time>2014-12-17T12:49:04Z</time>
      </trkpt>
      <trkpt lat="43.42117" lon="6.06084">
        <ele>266.63394165039</ele>
        <time>2014-12-17T12:49:11Z</time>
      </trkpt>
      <trkpt lat="43.42116" lon="6.06078">
        <ele>266.7646484375</ele>
        <time>2014-12-17T12:49:12Z</time>
      </trkpt>
      <trkpt lat="43.42113" lon="6.06061">
        <ele>267.12857055664</ele>
        <time>2014-12-17T12:49:15Z</time>
      </trkpt>
      <trkpt lat="43.42111" lon="6.06045">
        <ele>267.53369140625</ele>
        <time>2014-12-17T12:49:18Z</time>
      </trkpt>
      <trkpt lat="43.42109" lon="6.06029">
        <ele>267.90219116211</ele>
        <time>2014-12-17T12:49:21Z</time>
      </trkpt>
      <trkpt lat="43.42103" lon="6.06005">
        <ele>268.009765625</ele>
        <time>2014-12-17T12:49:26Z</time>
      </trkpt>
      <trkpt lat="43.42094" lon="6.05967">
        <ele>268.36682128906</ele>
        <time>2014-12-17T12:49:35Z</time>
      </trkpt>
      <trkpt lat="43.42089" lon="6.05944">
        <ele>268.73303222656</ele>
        <time>2014-12-17T12:49:40Z</time>
      </trkpt>
      <trkpt lat="43.42079" lon="6.05905">
        <ele>268.4567565918</ele>
        <time>2014-12-17T12:49:48Z</time>
      </trkpt>
      <trkpt lat="43.42073" lon="6.05878">
        <ele>267.74880981445</ele>
        <time>2014-12-17T12:49:54Z</time>
      </trkpt>
      <trkpt lat="43.42071" lon="6.05871">
        <ele>267.42486572266</ele>
        <time>2014-12-17T12:49:56Z</time>
      </trkpt>
      <trkpt lat="43.42064" lon="6.05843">
        <ele>266.59408569336</ele>
        <time>2014-12-17T12:50:02Z</time>
      </trkpt>
      <trkpt lat="43.42062" lon="6.05837">
        <ele>266.38290405273</ele>
        <time>2014-12-17T12:50:03Z</time>
      </trkpt>
      <trkpt lat="43.42056" lon="6.05814">
        <ele>264.55947875977</ele>
        <time>2014-12-17T12:50:06Z</time>
      </trkpt>
      <trkpt lat="43.42054" lon="6.05797">
        <ele>263.31958007812</ele>
        <time>2014-12-17T12:50:08Z</time>
      </trkpt>
      <trkpt lat="43.42045" lon="6.05753">
        <ele>260.28192138672</ele>
        <time>2014-12-17T12:50:14Z</time>
      </trkpt>
      <trkpt lat="43.4204" lon="6.05729">
        <ele>259.81182861328</ele>
        <time>2014-12-17T12:50:17Z</time>
      </trkpt>
      <trkpt lat="43.42028" lon="6.05662">
        <ele>259.27038574219</ele>
        <time>2014-12-17T12:50:26Z</time>
      </trkpt>
      <trkpt lat="43.42022" lon="6.05628">
        <ele>260.55490112305</ele>
        <time>2014-12-17T12:50:31Z</time>
      </trkpt>
      <trkpt lat="43.4202" lon="6.05617">
        <ele>260.89184570312</ele>
        <time>2014-12-17T12:50:33Z</time>
      </trkpt>
      <trkpt lat="43.42019" lon="6.05611">
        <ele>261.06616210938</ele>
        <time>2014-12-17T12:50:34Z</time>
      </trkpt>
      <trkpt lat="43.42018" lon="6.05606">
        <ele>261.19473266602</ele>
        <time>2014-12-17T12:50:35Z</time>
      </trkpt>
      <trkpt lat="43.42015" lon="6.05595">
        <ele>261.40753173828</ele>
        <time>2014-12-17T12:50:37Z</time>
      </trkpt>
      <trkpt lat="43.42014" lon="6.05583">
        <ele>261.71566772461</ele>
        <time>2014-12-17T12:50:39Z</time>
      </trkpt>
      <trkpt lat="43.42013" lon="6.05573">
        <ele>262.00552368164</ele>
        <time>2014-12-17T12:50:41Z</time>
      </trkpt>
      <trkpt lat="43.42009" lon="6.05543">
        <ele>262.77630615234</ele>
        <time>2014-12-17T12:50:47Z</time>
      </trkpt>
      <trkpt lat="43.42006" lon="6.05525">
        <ele>263.17709350586</ele>
        <time>2014-12-17T12:50:51Z</time>
      </trkpt>
      <trkpt lat="43.42004" lon="6.05513">
        <ele>263.2724609375</ele>
        <time>2014-12-17T12:50:54Z</time>
      </trkpt>
      <trkpt lat="43.42002" lon="6.05505">
        <ele>263.29083251953</ele>
        <time>2014-12-17T12:50:56Z</time>
      </trkpt>
      <trkpt lat="43.41997" lon="6.05482">
        <ele>263.12191772461</ele>
        <time>2014-12-17T12:51:02Z</time>
      </trkpt>
      <trkpt lat="43.41995" lon="6.05473">
        <ele>263.11102294922</ele>
        <time>2014-12-17T12:51:04Z</time>
      </trkpt>
      <trkpt lat="43.41987" lon="6.05441">
        <ele>262.92715454102</ele>
        <time>2014-12-17T12:51:10Z</time>
      </trkpt>
      <trkpt lat="43.41985" lon="6.05434">
        <ele>262.86254882812</ele>
        <time>2014-12-17T12:51:11Z</time>
      </trkpt>
      <trkpt lat="43.41984" lon="6.05427">
        <ele>262.8278503418</ele>
        <time>2014-12-17T12:51:12Z</time>
      </trkpt>
      <trkpt lat="43.41975" lon="6.05395">
        <ele>261.60678100586</ele>
        <time>2014-12-17T12:51:16Z</time>
      </trkpt>
      <trkpt lat="43.41973" lon="6.05386">
        <ele>261.22549438477</ele>
        <time>2014-12-17T12:51:17Z</time>
      </trkpt>
      <trkpt lat="43.41966" lon="6.05357">
        <ele>260.22482299805</ele>
        <time>2014-12-17T12:51:20Z</time>
      </trkpt>
      <trkpt lat="43.41962" lon="6.05339">
        <ele>259.77185058594</ele>
        <time>2014-12-17T12:51:22Z</time>
      </trkpt>
      <trkpt lat="43.4196" lon="6.05328">
        <ele>259.57174682617</ele>
        <time>2014-12-17T12:51:23Z</time>
      </trkpt>
      <trkpt lat="43.41953" lon="6.05297">
        <ele>259.05963134766</ele>
        <time>2014-12-17T12:51:26Z</time>
      </trkpt>
      <trkpt lat="43.41951" lon="6.05287">
        <ele>258.91390991211</ele>
        <time>2014-12-17T12:51:27Z</time>
      </trkpt>
      <trkpt lat="43.41951" lon="6.05279">
        <ele>258.90643310547</ele>
        <time>2014-12-17T12:51:28Z</time>
      </trkpt>
      <trkpt lat="43.41949" lon="6.05262">
        <ele>258.79153442383</ele>
        <time>2014-12-17T12:51:30Z</time>
      </trkpt>
      <trkpt lat="43.41947" lon="6.05254">
        <ele>258.72695922852</ele>
        <time>2014-12-17T12:51:31Z</time>
      </trkpt>
      <trkpt lat="43.41943" lon="6.05229">
        <ele>258.98110961914</ele>
        <time>2014-12-17T12:51:34Z</time>
      </trkpt>
      <trkpt lat="43.41942" lon="6.0522">
        <ele>259.11480712891</ele>
        <time>2014-12-17T12:51:35Z</time>
      </trkpt>
      <trkpt lat="43.4194" lon="6.05193">
        <ele>259.53494262695</ele>
        <time>2014-12-17T12:51:38Z</time>
      </trkpt>
      <trkpt lat="43.41938" lon="6.05178">
        <ele>259.79559326172</ele>
        <time>2014-12-17T12:51:40Z</time>
      </trkpt>
      <trkpt lat="43.41938" lon="6.0517">
        <ele>259.94165039062</ele>
        <time>2014-12-17T12:51:41Z</time>
      </trkpt>
      <trkpt lat="43.41937" lon="6.05163">
        <ele>260.13653564453</ele>
        <time>2014-12-17T12:51:42Z</time>
      </trkpt>
      <trkpt lat="43.4194" lon="6.05155">
        <ele>260.43585205078</ele>
        <time>2014-12-17T12:51:43Z</time>
      </trkpt>
      <trkpt lat="43.41944" lon="6.0515">
        <ele>260.6794128418</ele>
        <time>2014-12-17T12:51:44Z</time>
      </trkpt>
      <trkpt lat="43.41957" lon="6.05142">
        <ele>261.17663574219</ele>
        <time>2014-12-17T12:51:47Z</time>
      </trkpt>
      <trkpt lat="43.41965" lon="6.05139">
        <ele>261.43746948242</ele>
        <time>2014-12-17T12:51:49Z</time>
      </trkpt>
      <trkpt lat="43.41976" lon="6.05135">
        <ele>261.83209228516</ele>
        <time>2014-12-17T12:51:52Z</time>
      </trkpt>
      <trkpt lat="43.4198" lon="6.05135">
        <ele>261.92153930664</ele>
        <time>2014-12-17T12:51:53Z</time>
      </trkpt>
      <trkpt lat="43.4199" lon="6.05134">
        <ele>262.1423034668</ele>
        <time>2014-12-17T12:51:56Z</time>
      </trkpt>
      <trkpt lat="43.41999" lon="6.05132">
        <ele>262.4553527832</ele>
        <time>2014-12-17T12:51:59Z</time>
      </trkpt>
      <trkpt lat="43.42017" lon="6.05128">
        <ele>263.04000854492</ele>
        <time>2014-12-17T12:52:05Z</time>
      </trkpt>
      <trkpt lat="43.42036" lon="6.05123">
        <ele>263.84020996094</ele>
        <time>2014-12-17T12:52:11Z</time>
      </trkpt>
      <trkpt lat="43.42039" lon="6.05122">
        <ele>263.95916748047</ele>
        <time>2014-12-17T12:52:12Z</time>
      </trkpt>
      <trkpt lat="43.42051" lon="6.0512">
        <ele>264.32214355469</ele>
        <time>2014-12-17T12:52:16Z</time>
      </trkpt>
      <trkpt lat="43.42053" lon="6.05119">
        <ele>264.43298339844</ele>
        <time>2014-12-17T12:52:17Z</time>
      </trkpt>
      <trkpt lat="43.42066" lon="6.05116">
        <ele>264.89529418945</ele>
        <time>2014-12-17T12:52:22Z</time>
      </trkpt>
      <trkpt lat="43.42086" lon="6.05117">
        <ele>265.45880126953</ele>
        <time>2014-12-17T12:52:29Z</time>
      </trkpt>
      <trkpt lat="43.42104" lon="6.05117">
        <ele>267.60800170898</ele>
        <time>2014-12-17T12:52:36Z</time>
      </trkpt>
      <trkpt lat="43.42107" lon="6.05117">
        <ele>267.96047973633</ele>
        <time>2014-12-17T12:52:37Z</time>
      </trkpt>
      <trkpt lat="43.4212" lon="6.05119">
        <ele>269.37838745117</ele>
        <time>2014-12-17T12:52:43Z</time>
      </trkpt>
      <trkpt lat="43.42122" lon="6.0512">
        <ele>269.5231628418</ele>
        <time>2014-12-17T12:52:44Z</time>
      </trkpt>
      <trkpt lat="43.42131" lon="6.05127">
        <ele>270.11483764648</ele>
        <time>2014-12-17T12:52:51Z</time>
      </trkpt>
      <trkpt lat="43.42134" lon="6.05126">
        <ele>270.48333740234</ele>
        <time>2014-12-17T12:52:56Z</time>
      </trkpt>
      <trkpt lat="43.42134" lon="6.05126">
        <ele>270.47930908203</ele>
        <time>2014-12-17T12:52:58Z</time>
      </trkpt>
      <trkpt lat="43.42134" lon="6.05127">
        <ele>270.45129394531</ele>
        <time>2014-12-17T12:53:04Z</time>
      </trkpt>
      <trkpt lat="43.42134" lon="6.05127">
        <ele>270.45700073242</ele>
        <time>2014-12-17T12:53:08Z</time>
      </trkpt>
      <trkpt lat="43.42134" lon="6.05127">
        <ele>270.46099853516</ele>
        <time>2014-12-17T12:53:15Z</time>
      </trkpt>
      <trkpt lat="43.42135" lon="6.05127">
        <ele>270.49478149414</ele>
        <time>2014-12-17T12:53:19Z</time>
      </trkpt>
      <trkpt lat="43.42135" lon="6.05127">
        <ele>270.50677490234</ele>
        <time>2014-12-17T12:53:23Z</time>
      </trkpt>
      <trkpt lat="43.42135" lon="6.05128">
        <ele>270.50448608398</ele>
        <time>2014-12-17T12:53:37Z</time>
      </trkpt>
      <trkpt lat="43.42135" lon="6.05127">
        <ele>270.5205078125</ele>
        <time>2014-12-17T12:53:54Z</time>
      </trkpt>
      <trkpt lat="43.42136" lon="6.05129">
        <ele>270.46786499023</ele>
        <time>2014-12-17T12:53:56Z</time>
      </trkpt>
      <trkpt lat="43.42139" lon="6.05133">
        <ele>270.55941772461</ele>
        <time>2014-12-17T12:53:59Z</time>
      </trkpt>
      <trkpt lat="43.42149" lon="6.0515">
        <ele>270.29391479492</ele>
        <time>2014-12-17T12:54:05Z</time>
      </trkpt>
      <trkpt lat="43.42165" lon="6.05162">
        <ele>271.10931396484</ele>
        <time>2014-12-17T12:54:11Z</time>
      </trkpt>
      <trkpt lat="43.42186" lon="6.05176">
        <ele>273.58114624023</ele>
        <time>2014-12-17T12:54:18Z</time>
      </trkpt>
      <trkpt lat="43.422" lon="6.05187">
        <ele>275.48672485352</ele>
        <time>2014-12-17T12:54:23Z</time>
      </trkpt>
      <trkpt lat="43.42207" lon="6.05189">
        <ele>276.25402832031</ele>
        <time>2014-12-17T12:54:25Z</time>
      </trkpt>
      <trkpt lat="43.42216" lon="6.05193">
        <ele>277.26443481445</ele>
        <time>2014-12-17T12:54:28Z</time>
      </trkpt>
      <trkpt lat="43.42225" lon="6.052">
        <ele>278.22384643555</ele>
        <time>2014-12-17T12:54:31Z</time>
      </trkpt>
      <trkpt lat="43.42234" lon="6.05212">
        <ele>279.09487915039</ele>
        <time>2014-12-17T12:54:35Z</time>
      </trkpt>
      <trkpt lat="43.42241" lon="6.05214">
        <ele>279.6164855957</ele>
        <time>2014-12-17T12:54:37Z</time>
      </trkpt>
      <trkpt lat="43.4225" lon="6.05215">
        <ele>280.42077636719</ele>
        <time>2014-12-17T12:54:40Z</time>
      </trkpt>
      <trkpt lat="43.42272" lon="6.05215">
        <ele>281.66232299805</ele>
        <time>2014-12-17T12:54:47Z</time>
      </trkpt>
      <trkpt lat="43.42279" lon="6.05216">
        <ele>281.98220825195</ele>
        <time>2014-12-17T12:54:49Z</time>
      </trkpt>
      <trkpt lat="43.42286" lon="6.05217">
        <ele>282.24197387695</ele>
        <time>2014-12-17T12:54:51Z</time>
      </trkpt>
      <trkpt lat="43.42294" lon="6.0522">
        <ele>282.46307373047</ele>
        <time>2014-12-17T12:54:54Z</time>
      </trkpt>
      <trkpt lat="43.423" lon="6.05222">
        <ele>282.58197021484</ele>
        <time>2014-12-17T12:54:56Z</time>
      </trkpt>
      <trkpt lat="43.42324" lon="6.05227">
        <ele>282.93063354492</ele>
        <time>2014-12-17T12:55:05Z</time>
      </trkpt>
      <trkpt lat="43.42332" lon="6.05228">
        <ele>283.07077026367</ele>
        <time>2014-12-17T12:55:09Z</time>
      </trkpt>
      <trkpt lat="43.42342" lon="6.05231">
        <ele>283.17953491211</ele>
        <time>2014-12-17T12:55:14Z</time>
      </trkpt>
      <trkpt lat="43.42346" lon="6.05232">
        <ele>283.24353027344</ele>
        <time>2014-12-17T12:55:16Z</time>
      </trkpt>
      <trkpt lat="43.42362" lon="6.05228">
        <ele>284.6999206543</ele>
        <time>2014-12-17T12:55:23Z</time>
      </trkpt>
      <trkpt lat="43.42375" lon="6.05229">
        <ele>285.18627929688</ele>
        <time>2014-12-17T12:55:30Z</time>
      </trkpt>
      <trkpt lat="43.42377" lon="6.05229">
        <ele>285.31365966797</ele>
        <time>2014-12-17T12:55:31Z</time>
      </trkpt>
      <trkpt lat="43.42387" lon="6.05227">
        <ele>286.13021850586</ele>
        <time>2014-12-17T12:55:36Z</time>
      </trkpt>
      <trkpt lat="43.42406" lon="6.05223">
        <ele>288.10290527344</ele>
        <time>2014-12-17T12:55:44Z</time>
      </trkpt>
      <trkpt lat="43.42412" lon="6.05224">
        <ele>288.41345214844</ele>
        <time>2014-12-17T12:55:47Z</time>
      </trkpt>
      <trkpt lat="43.42421" lon="6.05224">
        <ele>288.98950195312</ele>
        <time>2014-12-17T12:55:51Z</time>
      </trkpt>
      <trkpt lat="43.42436" lon="6.05223">
        <ele>291.28378295898</ele>
        <time>2014-12-17T12:55:58Z</time>
      </trkpt>
      <trkpt lat="43.42441" lon="6.05221">
        <ele>292.46560668945</ele>
        <time>2014-12-17T12:56:00Z</time>
      </trkpt>
      <trkpt lat="43.42449" lon="6.05216">
        <ele>294.54132080078</ele>
        <time>2014-12-17T12:56:03Z</time>
      </trkpt>
      <trkpt lat="43.42457" lon="6.05214">
        <ele>295.99392700195</ele>
        <time>2014-12-17T12:56:07Z</time>
      </trkpt>
      <trkpt lat="43.42459" lon="6.05214">
        <ele>296.32693481445</ele>
        <time>2014-12-17T12:56:08Z</time>
      </trkpt>
      <trkpt lat="43.42463" lon="6.05214">
        <ele>296.83267211914</ele>
        <time>2014-12-17T12:56:11Z</time>
      </trkpt>
      <trkpt lat="43.4247" lon="6.05214">
        <ele>297.55133056641</ele>
        <time>2014-12-17T12:56:15Z</time>
      </trkpt>
      <trkpt lat="43.42484" lon="6.05219">
        <ele>298.3303527832</ele>
        <time>2014-12-17T12:56:22Z</time>
      </trkpt>
      <trkpt lat="43.42496" lon="6.05224">
        <ele>298.68600463867</ele>
        <time>2014-12-17T12:56:27Z</time>
      </trkpt>
      <trkpt lat="43.42508" lon="6.05226">
        <ele>299.09381103516</ele>
        <time>2014-12-17T12:56:32Z</time>
      </trkpt>
      <trkpt lat="43.42521" lon="6.05228">
        <ele>299.12341308594</ele>
        <time>2014-12-17T12:56:38Z</time>
      </trkpt>
      <trkpt lat="43.42527" lon="6.05228">
        <ele>299.19268798828</ele>
        <time>2014-12-17T12:56:41Z</time>
      </trkpt>
      <trkpt lat="43.42531" lon="6.0523">
        <ele>299.11093139648</ele>
        <time>2014-12-17T12:56:43Z</time>
      </trkpt>
      <trkpt lat="43.42543" lon="6.05225">
        <ele>300.02792358398</ele>
        <time>2014-12-17T12:56:48Z</time>
      </trkpt>
      <trkpt lat="43.42549" lon="6.05224">
        <ele>300.29010009766</ele>
        <time>2014-12-17T12:56:51Z</time>
      </trkpt>
      <trkpt lat="43.42555" lon="6.05223">
        <ele>300.44607543945</ele>
        <time>2014-12-17T12:56:54Z</time>
      </trkpt>
      <trkpt lat="43.4257" lon="6.05225">
        <ele>300.59375</ele>
        <time>2014-12-17T12:57:00Z</time>
      </trkpt>
      <trkpt lat="43.42582" lon="6.05233">
        <ele>300.55194091797</ele>
        <time>2014-12-17T12:57:05Z</time>
      </trkpt>
      <trkpt lat="43.42593" lon="6.05244">
        <ele>300.19018554688</ele>
        <time>2014-12-17T12:57:11Z</time>
      </trkpt>
      <trkpt lat="43.42606" lon="6.05255">
        <ele>300</ele>
        <time>2014-12-17T12:57:17Z</time>
      </trkpt>
      <trkpt lat="43.42612" lon="6.05259">
        <ele>300</ele>
        <time>2014-12-17T12:57:20Z</time>
      </trkpt>
      <trkpt lat="43.42616" lon="6.05261">
        <ele>300</ele>
        <time>2014-12-17T12:57:23Z</time>
      </trkpt>
      <trkpt lat="43.42625" lon="6.05268">
        <ele>300</ele>
        <time>2014-12-17T12:57:29Z</time>
      </trkpt>
      <trkpt lat="43.42626" lon="6.05268">
        <ele>300</ele>
        <time>2014-12-17T12:57:30Z</time>
      </trkpt>
      <trkpt lat="43.4263" lon="6.05267">
        <ele>300</ele>
        <time>2014-12-17T12:57:34Z</time>
      </trkpt>
      <trkpt lat="43.4263" lon="6.05267">
        <ele>300</ele>
        <time>2014-12-17T12:57:38Z</time>
      </trkpt>
      <trkpt lat="43.4263" lon="6.05267">
        <ele>300</ele>
        <time>2014-12-17T12:57:42Z</time>
      </trkpt>
      <trkpt lat="43.4263" lon="6.05266">
        <ele>300</ele>
        <time>2014-12-17T12:57:47Z</time>
      </trkpt>
      <trkpt lat="43.4263" lon="6.05266">
        <ele>300</ele>
        <time>2014-12-17T12:57:52Z</time>
      </trkpt>
      <trkpt lat="43.4263" lon="6.05266">
        <ele>300</ele>
        <time>2014-12-17T12:58:00Z</time>
      </trkpt>
      <trkpt lat="43.4263" lon="6.05265">
        <ele>300</ele>
        <time>2014-12-17T13:00:46Z</time>
      </trkpt>
      <trkpt lat="43.4263" lon="6.05265">
        <ele>300</ele>
        <time>2014-12-17T13:00:57Z</time>
      </trkpt>
      <trkpt lat="43.42633" lon="6.05266">
        <ele>300</ele>
        <time>2014-12-17T13:01:06Z</time>
      </trkpt>
      <trkpt lat="43.42634" lon="6.05265">
        <ele>300</ele>
        <time>2014-12-17T13:01:07Z</time>
      </trkpt>
      <trkpt lat="43.42643" lon="6.05261">
        <ele>300</ele>
        <time>2014-12-17T13:01:12Z</time>
      </trkpt>
      <trkpt lat="43.42645" lon="6.0526">
        <ele>300</ele>
        <time>2014-12-17T13:01:13Z</time>
      </trkpt>
      <trkpt lat="43.42648" lon="6.05257">
        <ele>300</ele>
        <time>2014-12-17T13:01:15Z</time>
      </trkpt>
      <trkpt lat="43.42656" lon="6.05248">
        <ele>300.02499389648</ele>
        <time>2014-12-17T13:01:18Z</time>
      </trkpt>
      <trkpt lat="43.42662" lon="6.05244">
        <ele>300.08618164062</ele>
        <time>2014-12-17T13:01:20Z</time>
      </trkpt>
      <trkpt lat="43.42669" lon="6.05239">
        <ele>300.18884277344</ele>
        <time>2014-12-17T13:01:23Z</time>
      </trkpt>
      <trkpt lat="43.42677" lon="6.05232">
        <ele>300.4670715332</ele>
        <time>2014-12-17T13:01:26Z</time>
      </trkpt>
      <trkpt lat="43.4268" lon="6.0523">
        <ele>300.55651855469</ele>
        <time>2014-12-17T13:01:27Z</time>
      </trkpt>
      <trkpt lat="43.4269" lon="6.05226">
        <ele>300.81173706055</ele>
        <time>2014-12-17T13:01:32Z</time>
      </trkpt>
      <trkpt lat="43.42692" lon="6.05226">
        <ele>300.84515380859</ele>
        <time>2014-12-17T13:01:33Z</time>
      </trkpt>
      <trkpt lat="43.42694" lon="6.05225">
        <ele>300.89233398438</ele>
        <time>2014-12-17T13:01:34Z</time>
      </trkpt>
      <trkpt lat="43.42698" lon="6.05224">
        <ele>300.96264648438</ele>
        <time>2014-12-17T13:01:36Z</time>
      </trkpt>
      <trkpt lat="43.42699" lon="6.05224">
        <ele>301.00210571289</ele>
        <time>2014-12-17T13:01:37Z</time>
      </trkpt>
      <trkpt lat="43.42707" lon="6.05218">
        <ele>301.09506225586</ele>
        <time>2014-12-17T13:01:41Z</time>
      </trkpt>
      <trkpt lat="43.42716" lon="6.05204">
        <ele>301.02230834961</ele>
        <time>2014-12-17T13:01:47Z</time>
      </trkpt>
      <trkpt lat="43.42719" lon="6.052">
        <ele>300.97692871094</ele>
        <time>2014-12-17T13:01:49Z</time>
      </trkpt>
      <trkpt lat="43.42721" lon="6.05193">
        <ele>300.85842895508</ele>
        <time>2014-12-17T13:01:52Z</time>
      </trkpt>
      <trkpt lat="43.42723" lon="6.05187">
        <ele>300.74536132812</ele>
        <time>2014-12-17T13:01:55Z</time>
      </trkpt>
      <trkpt lat="43.42726" lon="6.0518">
        <ele>300.57302856445</ele>
        <time>2014-12-17T13:01:59Z</time>
      </trkpt>
      <trkpt lat="43.42728" lon="6.05177">
        <ele>300.51531982422</ele>
        <time>2014-12-17T13:02:00Z</time>
      </trkpt>
      <trkpt lat="43.42728" lon="6.05175">
        <ele>300.44738769531</ele>
        <time>2014-12-17T13:02:01Z</time>
      </trkpt>
      <trkpt lat="43.42729" lon="6.05169">
        <ele>300.31350708008</ele>
        <time>2014-12-17T13:02:04Z</time>
      </trkpt>
      <trkpt lat="43.4273" lon="6.05166">
        <ele>300.26766967773</ele>
        <time>2014-12-17T13:02:06Z</time>
      </trkpt>
      <trkpt lat="43.4273" lon="6.05166">
        <ele>300.30740356445</ele>
        <time>2014-12-17T13:02:10Z</time>
      </trkpt>
      <trkpt lat="43.42732" lon="6.05162">
        <ele>300.55041503906</ele>
        <time>2014-12-17T13:02:21Z</time>
      </trkpt>
      <trkpt lat="43.42733" lon="6.05158">
        <ele>300.75311279297</ele>
        <time>2014-12-17T13:02:23Z</time>
      </trkpt>
      <trkpt lat="43.42735" lon="6.05154">
        <ele>300.9860534668</ele>
        <time>2014-12-17T13:02:25Z</time>
      </trkpt>
      <trkpt lat="43.42738" lon="6.05151">
        <ele>301.16592407227</ele>
        <time>2014-12-17T13:02:28Z</time>
      </trkpt>
      <trkpt lat="43.42743" lon="6.05145">
        <ele>301.4909362793</ele>
        <time>2014-12-17T13:02:31Z</time>
      </trkpt>
      <trkpt lat="43.42745" lon="6.05138">
        <ele>301.82733154297</ele>
        <time>2014-12-17T13:02:34Z</time>
      </trkpt>
      <trkpt lat="43.42752" lon="6.05123">
        <ele>303.08990478516</ele>
        <time>2014-12-17T13:02:41Z</time>
      </trkpt>
      <trkpt lat="43.42751" lon="6.05115">
        <ele>303.3786315918</ele>
        <time>2014-12-17T13:02:44Z</time>
      </trkpt>
      <trkpt lat="43.42749" lon="6.05108">
        <ele>303.56958007812</ele>
        <time>2014-12-17T13:02:47Z</time>
      </trkpt>
      <trkpt lat="43.42746" lon="6.05092">
        <ele>304.65148925781</ele>
        <time>2014-12-17T13:02:54Z</time>
      </trkpt>
      <trkpt lat="43.42747" lon="6.05079">
        <ele>305.50885009766</ele>
        <time>2014-12-17T13:03:00Z</time>
      </trkpt>
      <trkpt lat="43.42749" lon="6.05069">
        <ele>306.26147460938</ele>
        <time>2014-12-17T13:03:04Z</time>
      </trkpt>
      <trkpt lat="43.42752" lon="6.05059">
        <ele>307.41146850586</ele>
        <time>2014-12-17T13:03:08Z</time>
      </trkpt>
      <trkpt lat="43.42754" lon="6.05055">
        <ele>307.97705078125</ele>
        <time>2014-12-17T13:03:10Z</time>
      </trkpt>
      <trkpt lat="43.42763" lon="6.05034">
        <ele>310.99285888672</ele>
        <time>2014-12-17T13:03:21Z</time>
      </trkpt>
      <trkpt lat="43.42767" lon="6.05021">
        <ele>312.55401611328</ele>
        <time>2014-12-17T13:03:28Z</time>
      </trkpt>
      <trkpt lat="43.42767" lon="6.05018">
        <ele>312.76916503906</ele>
        <time>2014-12-17T13:03:29Z</time>
      </trkpt>
      <trkpt lat="43.42767" lon="6.05012">
        <ele>313.20446777344</ele>
        <time>2014-12-17T13:03:32Z</time>
      </trkpt>
      <trkpt lat="43.42766" lon="6.05004">
        <ele>313.61163330078</ele>
        <time>2014-12-17T13:03:35Z</time>
      </trkpt>
      <trkpt lat="43.42765" lon="6.04999">
        <ele>313.84948730469</ele>
        <time>2014-12-17T13:03:37Z</time>
      </trkpt>
      <trkpt lat="43.42763" lon="6.0499">
        <ele>314.16519165039</ele>
        <time>2014-12-17T13:03:41Z</time>
      </trkpt>
      <trkpt lat="43.42762" lon="6.04965">
        <ele>315.39566040039</ele>
        <time>2014-12-17T13:03:51Z</time>
      </trkpt>
      <trkpt lat="43.4276" lon="6.04947">
        <ele>316.26574707031</ele>
        <time>2014-12-17T13:03:58Z</time>
      </trkpt>
      <trkpt lat="43.42761" lon="6.0494">
        <ele>316.7760925293</ele>
        <time>2014-12-17T13:04:01Z</time>
      </trkpt>
      <trkpt lat="43.4276" lon="6.0493">
        <ele>317.22494506836</ele>
        <time>2014-12-17T13:04:05Z</time>
      </trkpt>
      <trkpt lat="43.42759" lon="6.04923">
        <ele>317.50234985352</ele>
        <time>2014-12-17T13:04:08Z</time>
      </trkpt>
      <trkpt lat="43.42757" lon="6.04912">
        <ele>317.82543945312</ele>
        <time>2014-12-17T13:04:13Z</time>
      </trkpt>
      <trkpt lat="43.42759" lon="6.049">
        <ele>318.50927734375</ele>
        <time>2014-12-17T13:04:18Z</time>
      </trkpt>
      <trkpt lat="43.4276" lon="6.04898">
        <ele>318.71844482422</ele>
        <time>2014-12-17T13:04:19Z</time>
      </trkpt>
      <trkpt lat="43.42765" lon="6.04889">
        <ele>319.50894165039</ele>
        <time>2014-12-17T13:04:24Z</time>
      </trkpt>
      <trkpt lat="43.42766" lon="6.04887">
        <ele>319.65460205078</ele>
        <time>2014-12-17T13:04:25Z</time>
      </trkpt>
      <trkpt lat="43.4277" lon="6.04875">
        <ele>320.58706665039</ele>
        <time>2014-12-17T13:04:32Z</time>
      </trkpt>
      <trkpt lat="43.42775" lon="6.04864">
        <ele>321.53356933594</ele>
        <time>2014-12-17T13:04:38Z</time>
      </trkpt>
      <trkpt lat="43.42776" lon="6.04862">
        <ele>321.66949462891</ele>
        <time>2014-12-17T13:04:39Z</time>
      </trkpt>
      <trkpt lat="43.42777" lon="6.04855">
        <ele>322.07958984375</ele>
        <time>2014-12-17T13:04:43Z</time>
      </trkpt>
      <trkpt lat="43.42778" lon="6.04851">
        <ele>322.33917236328</ele>
        <time>2014-12-17T13:04:45Z</time>
      </trkpt>
      <trkpt lat="43.42778" lon="6.0485">
        <ele>322.40798950195</ele>
        <time>2014-12-17T13:04:46Z</time>
      </trkpt>
      <trkpt lat="43.42778" lon="6.04846">
        <ele>322.51086425781</ele>
        <time>2014-12-17T13:04:51Z</time>
      </trkpt>
      <trkpt lat="43.42778" lon="6.04845">
        <ele>322.54333496094</ele>
        <time>2014-12-17T13:04:57Z</time>
      </trkpt>
      <trkpt lat="43.42778" lon="6.04845">
        <ele>322.60296630859</ele>
        <time>2014-12-17T13:05:01Z</time>
      </trkpt>
      <trkpt lat="43.42778" lon="6.04845">
        <ele>322.60296630859</ele>
        <time>2014-12-17T13:05:02Z</time>
      </trkpt>
      <trkpt lat="43.42778" lon="6.04845">
        <ele>322.60681152344</ele>
        <time>2014-12-17T13:05:10Z</time>
      </trkpt>
      <trkpt lat="43.42778" lon="6.04845">
        <ele>322.60870361328</ele>
        <time>2014-12-17T13:05:16Z</time>
      </trkpt>
      <trkpt lat="43.42778" lon="6.04845">
        <ele>322.60870361328</ele>
        <time>2014-12-17T13:05:19Z</time>
      </trkpt>
      <trkpt lat="43.42778" lon="6.04844">
        <ele>322.62210083008</ele>
        <time>2014-12-17T13:05:21Z</time>
      </trkpt>
      <trkpt lat="43.4278" lon="6.04841">
        <ele>322.87823486328</ele>
        <time>2014-12-17T13:05:24Z</time>
      </trkpt>
      <trkpt lat="43.42781" lon="6.04838">
        <ele>323.16098022461</ele>
        <time>2014-12-17T13:05:26Z</time>
      </trkpt>
      <trkpt lat="43.42782" lon="6.04837">
        <ele>323.29315185547</ele>
        <time>2014-12-17T13:05:27Z</time>
      </trkpt>
      <trkpt lat="43.42783" lon="6.04836">
        <ele>323.3984375</ele>
        <time>2014-12-17T13:05:28Z</time>
      </trkpt>
      <trkpt lat="43.42784" lon="6.04836">
        <ele>323.53909301758</ele>
        <time>2014-12-17T13:05:29Z</time>
      </trkpt>
      <trkpt lat="43.42788" lon="6.04836">
        <ele>323.94375610352</ele>
        <time>2014-12-17T13:05:33Z</time>
      </trkpt>
      <trkpt lat="43.42796" lon="6.0484">
        <ele>324.69445800781</ele>
        <time>2014-12-17T13:05:39Z</time>
      </trkpt>
      <trkpt lat="43.42807" lon="6.04851">
        <ele>325.40295410156</ele>
        <time>2014-12-17T13:05:47Z</time>
      </trkpt>
      <trkpt lat="43.42809" lon="6.04853">
        <ele>325.50439453125</ele>
        <time>2014-12-17T13:05:48Z</time>
      </trkpt>
      <trkpt lat="43.42812" lon="6.04855">
        <ele>325.73770141602</ele>
        <time>2014-12-17T13:05:50Z</time>
      </trkpt>
      <trkpt lat="43.42814" lon="6.04855">
        <ele>325.91198730469</ele>
        <time>2014-12-17T13:05:51Z</time>
      </trkpt>
      <trkpt lat="43.42816" lon="6.04856">
        <ele>326.12811279297</ele>
        <time>2014-12-17T13:05:52Z</time>
      </trkpt>
      <trkpt lat="43.42818" lon="6.04856">
        <ele>326.33074951172</ele>
        <time>2014-12-17T13:05:53Z</time>
      </trkpt>
      <trkpt lat="43.42824" lon="6.04857">
        <ele>326.88082885742</ele>
        <time>2014-12-17T13:05:56Z</time>
      </trkpt>
      <trkpt lat="43.42829" lon="6.04857">
        <ele>327.39974975586</ele>
        <time>2014-12-17T13:05:59Z</time>
      </trkpt>
      <trkpt lat="43.4283" lon="6.04857">
        <ele>327.52764892578</ele>
        <time>2014-12-17T13:06:00Z</time>
      </trkpt>
      <trkpt lat="43.42839" lon="6.04858">
        <ele>327.64779663086</ele>
        <time>2014-12-17T13:06:05Z</time>
      </trkpt>
      <trkpt lat="43.42841" lon="6.04858">
        <ele>327.54962158203</ele>
        <time>2014-12-17T13:06:06Z</time>
      </trkpt>
      <trkpt lat="43.4285" lon="6.04867">
        <ele>326.91375732422</ele>
        <time>2014-12-17T13:06:12Z</time>
      </trkpt>
      <trkpt lat="43.42852" lon="6.04872">
        <ele>326.64855957031</ele>
        <time>2014-12-17T13:06:14Z</time>
      </trkpt>
      <trkpt lat="43.4286" lon="6.04885">
        <ele>326.03439331055</ele>
        <time>2014-12-17T13:06:19Z</time>
      </trkpt>
      <trkpt lat="43.42872" lon="6.04904">
        <ele>325.3371887207</ele>
        <time>2014-12-17T13:06:26Z</time>
      </trkpt>
      <trkpt lat="43.42878" lon="6.04918">
        <ele>324.98645019531</ele>
        <time>2014-12-17T13:06:31Z</time>
      </trkpt>
      <trkpt lat="43.4288" lon="6.04919">
        <ele>324.97894287109</ele>
        <time>2014-12-17T13:06:32Z</time>
      </trkpt>
      <trkpt lat="43.42886" lon="6.04923">
        <ele>324.96368408203</ele>
        <time>2014-12-17T13:06:35Z</time>
      </trkpt>
      <trkpt lat="43.42904" lon="6.04921">
        <ele>325.02026367188</ele>
        <time>2014-12-17T13:06:45Z</time>
      </trkpt>
      <trkpt lat="43.4292" lon="6.04917">
        <ele>324.45965576172</ele>
        <time>2014-12-17T13:06:53Z</time>
      </trkpt>
      <trkpt lat="43.42924" lon="6.04917">
        <ele>323.49603271484</ele>
        <time>2014-12-17T13:06:59Z</time>
      </trkpt>
      <trkpt lat="43.42925" lon="6.04916">
        <ele>323.34909057617</ele>
        <time>2014-12-17T13:07:06Z</time>
      </trkpt>
      <trkpt lat="43.42925" lon="6.04916">
        <ele>323.34896850586</ele>
        <time>2014-12-17T13:07:09Z</time>
      </trkpt>
      <trkpt lat="43.42926" lon="6.04916">
        <ele>323.27581787109</ele>
        <time>2014-12-17T13:07:14Z</time>
      </trkpt>
      <trkpt lat="43.42926" lon="6.04916">
        <ele>323.27581787109</ele>
        <time>2014-12-17T13:07:16Z</time>
      </trkpt>
      <trkpt lat="43.42926" lon="6.04916">
        <ele>323.27569580078</ele>
        <time>2014-12-17T13:07:33Z</time>
      </trkpt>
      <trkpt lat="43.42926" lon="6.04916">
        <ele>323.27557373047</ele>
        <time>2014-12-17T13:07:43Z</time>
      </trkpt>
      <trkpt lat="43.42928" lon="6.04914">
        <ele>322.90530395508</ele>
        <time>2014-12-17T13:07:52Z</time>
      </trkpt>
      <trkpt lat="43.42933" lon="6.04897">
        <ele>321.7646484375</ele>
        <time>2014-12-17T13:07:59Z</time>
      </trkpt>
      <trkpt lat="43.42939" lon="6.04889">
        <ele>320.54763793945</ele>
        <time>2014-12-17T13:08:02Z</time>
      </trkpt>
      <trkpt lat="43.4294" lon="6.04884">
        <ele>320.38275146484</ele>
        <time>2014-12-17T13:08:03Z</time>
      </trkpt>
      <trkpt lat="43.42944" lon="6.04876">
        <ele>319.67639160156</ele>
        <time>2014-12-17T13:08:05Z</time>
      </trkpt>
      <trkpt lat="43.42948" lon="6.04872">
        <ele>318.82800292969</ele>
        <time>2014-12-17T13:08:07Z</time>
      </trkpt>
      <trkpt lat="43.42953" lon="6.04867">
        <ele>317.66622924805</ele>
        <time>2014-12-17T13:08:10Z</time>
      </trkpt>
      <trkpt lat="43.42958" lon="6.04862">
        <ele>316.64932250977</ele>
        <time>2014-12-17T13:08:12Z</time>
      </trkpt>
      <trkpt lat="43.4297" lon="6.0485">
        <ele>314.34985351562</ele>
        <time>2014-12-17T13:08:16Z</time>
      </trkpt>
      <trkpt lat="43.42976" lon="6.04844">
        <ele>313.06475830078</ele>
        <time>2014-12-17T13:08:18Z</time>
      </trkpt>
      <trkpt lat="43.42979" lon="6.0484">
        <ele>312.25665283203</ele>
        <time>2014-12-17T13:08:19Z</time>
      </trkpt>
      <trkpt lat="43.42982" lon="6.04835">
        <ele>311.58868408203</ele>
        <time>2014-12-17T13:08:20Z</time>
      </trkpt>
      <trkpt lat="43.42987" lon="6.04825">
        <ele>310.97866821289</ele>
        <time>2014-12-17T13:08:22Z</time>
      </trkpt>
      <trkpt lat="43.42989" lon="6.0482">
        <ele>310.88610839844</ele>
        <time>2014-12-17T13:08:23Z</time>
      </trkpt>
      <trkpt lat="43.42996" lon="6.04804">
        <ele>310.10333251953</ele>
        <time>2014-12-17T13:08:27Z</time>
      </trkpt>
      <trkpt lat="43.43" lon="6.04798">
        <ele>309.66485595703</ele>
        <time>2014-12-17T13:08:29Z</time>
      </trkpt>
      <trkpt lat="43.43004" lon="6.04794">
        <ele>309.59619140625</ele>
        <time>2014-12-17T13:08:31Z</time>
      </trkpt>
      <trkpt lat="43.43009" lon="6.0479">
        <ele>309.41995239258</ele>
        <time>2014-12-17T13:08:33Z</time>
      </trkpt>
      <trkpt lat="43.43015" lon="6.04785">
        <ele>309.23684692383</ele>
        <time>2014-12-17T13:08:35Z</time>
      </trkpt>
      <trkpt lat="43.43018" lon="6.04783">
        <ele>309.12240600586</ele>
        <time>2014-12-17T13:08:36Z</time>
      </trkpt>
      <trkpt lat="43.43024" lon="6.04779">
        <ele>308.8385925293</ele>
        <time>2014-12-17T13:08:38Z</time>
      </trkpt>
      <trkpt lat="43.43026" lon="6.04779">
        <ele>308.77679443359</ele>
        <time>2014-12-17T13:08:39Z</time>
      </trkpt>
      <trkpt lat="43.43026" lon="6.04779">
        <ele>308.78823852539</ele>
        <time>2014-12-17T13:08:40Z</time>
      </trkpt>
      <trkpt lat="43.43026" lon="6.04777">
        <ele>308.79739379883</ele>
        <time>2014-12-17T13:08:43Z</time>
      </trkpt>
      <trkpt lat="43.43026" lon="6.04778">
        <ele>308.79510498047</ele>
        <time>2014-12-17T13:09:02Z</time>
      </trkpt>
      <trkpt lat="43.43026" lon="6.04778">
        <ele>308.79510498047</ele>
        <time>2014-12-17T13:09:05Z</time>
      </trkpt>
      <trkpt lat="43.43026" lon="6.04778">
        <ele>308.79739379883</ele>
        <time>2014-12-17T13:09:34Z</time>
      </trkpt>
      <trkpt lat="43.43026" lon="6.04778">
        <ele>308.79739379883</ele>
        <time>2014-12-17T13:09:47Z</time>
      </trkpt>
      <trkpt lat="43.43026" lon="6.04778">
        <ele>308.78366088867</ele>
        <time>2014-12-17T13:10:30Z</time>
      </trkpt>
      <trkpt lat="43.43026" lon="6.04778">
        <ele>308.78823852539</ele>
        <time>2014-12-17T13:10:32Z</time>
      </trkpt>
      <trkpt lat="43.43026" lon="6.04778">
        <ele>308.78823852539</ele>
        <time>2014-12-17T13:10:38Z</time>
      </trkpt>
      <trkpt lat="43.43026" lon="6.04778">
        <ele>308.76763916016</ele>
        <time>2014-12-17T13:11:03Z</time>
      </trkpt>
      <trkpt lat="43.43026" lon="6.04778">
        <ele>308.76306152344</ele>
        <time>2014-12-17T13:11:07Z</time>
      </trkpt>
      <trkpt lat="43.43026" lon="6.0478">
        <ele>308.68295288086</ele>
        <time>2014-12-17T13:11:19Z</time>
      </trkpt>
      <trkpt lat="43.43026" lon="6.04779">
        <ele>308.6921081543</ele>
        <time>2014-12-17T13:11:25Z</time>
      </trkpt>
      <trkpt lat="43.43027" lon="6.04779">
        <ele>308.66235351562</ele>
        <time>2014-12-17T13:11:30Z</time>
      </trkpt>
      <trkpt lat="43.43026" lon="6.04778">
        <ele>308.82943725586</ele>
        <time>2014-12-17T13:11:40Z</time>
      </trkpt>
      <trkpt lat="43.43026" lon="6.04778">
        <ele>308.78594970703</ele>
        <time>2014-12-17T13:11:48Z</time>
      </trkpt>
      <trkpt lat="43.43026" lon="6.04782">
        <ele>308.60055541992</ele>
        <time>2014-12-17T13:11:53Z</time>
      </trkpt>
      <trkpt lat="43.43025" lon="6.04787">
        <ele>308.4494934082</ele>
        <time>2014-12-17T13:11:55Z</time>
      </trkpt>
      <trkpt lat="43.43023" lon="6.04805">
        <ele>307.67129516602</ele>
        <time>2014-12-17T13:11:59Z</time>
      </trkpt>
      <trkpt lat="43.43023" lon="6.04811">
        <ele>307.43325805664</ele>
        <time>2014-12-17T13:12:00Z</time>
      </trkpt>
      <trkpt lat="43.43022" lon="6.04842">
        <ele>306.48187255859</ele>
        <time>2014-12-17T13:12:05Z</time>
      </trkpt>
      <trkpt lat="43.43022" lon="6.04847">
        <ele>306.47891235352</ele>
        <time>2014-12-17T13:12:06Z</time>
      </trkpt>
      <trkpt lat="43.43026" lon="6.04858">
        <ele>306.26989746094</ele>
        <time>2014-12-17T13:12:09Z</time>
      </trkpt>
      <trkpt lat="43.43027" lon="6.04863">
        <ele>306.14279174805</ele>
        <time>2014-12-17T13:12:11Z</time>
      </trkpt>
      <trkpt lat="43.43032" lon="6.04868">
        <ele>305.8176574707</ele>
        <time>2014-12-17T13:12:13Z</time>
      </trkpt>
      <trkpt lat="43.43036" lon="6.04875">
        <ele>305.48550415039</ele>
        <time>2014-12-17T13:12:15Z</time>
      </trkpt>
      <trkpt lat="43.43045" lon="6.04889">
        <ele>304.73635864258</ele>
        <time>2014-12-17T13:12:18Z</time>
      </trkpt>
      <trkpt lat="43.43047" lon="6.04893">
        <ele>304.52890014648</ele>
        <time>2014-12-17T13:12:19Z</time>
      </trkpt>
      <trkpt lat="43.43053" lon="6.04904">
        <ele>303.91439819336</ele>
        <time>2014-12-17T13:12:22Z</time>
      </trkpt>
      <trkpt lat="43.43063" lon="6.04924">
        <ele>302.95065307617</ele>
        <time>2014-12-17T13:12:26Z</time>
      </trkpt>
      <trkpt lat="43.43066" lon="6.04929">
        <ele>302.65179443359</ele>
        <time>2014-12-17T13:12:27Z</time>
      </trkpt>
      <trkpt lat="43.43073" lon="6.04943">
        <ele>301.68676757812</ele>
        <time>2014-12-17T13:12:29Z</time>
      </trkpt>
      <trkpt lat="43.43081" lon="6.04956">
        <ele>300.40951538086</ele>
        <time>2014-12-17T13:12:31Z</time>
      </trkpt>
      <trkpt lat="43.43092" lon="6.04973">
        <ele>299.5598449707</ele>
        <time>2014-12-17T13:12:34Z</time>
      </trkpt>
      <trkpt lat="43.43104" lon="6.04993">
        <ele>298.74380493164</ele>
        <time>2014-12-17T13:12:37Z</time>
      </trkpt>
      <trkpt lat="43.43108" lon="6.05">
        <ele>298.42581176758</ele>
        <time>2014-12-17T13:12:38Z</time>
      </trkpt>
      <trkpt lat="43.43116" lon="6.05012">
        <ele>297.9460144043</ele>
        <time>2014-12-17T13:12:40Z</time>
      </trkpt>
      <trkpt lat="43.43128" lon="6.0503">
        <ele>296.70416259766</ele>
        <time>2014-12-17T13:12:43Z</time>
      </trkpt>
      <trkpt lat="43.43132" lon="6.05035">
        <ele>296.16625976562</ele>
        <time>2014-12-17T13:12:44Z</time>
      </trkpt>
      <trkpt lat="43.4314" lon="6.05046">
        <ele>295.03106689453</ele>
        <time>2014-12-17T13:12:46Z</time>
      </trkpt>
      <trkpt lat="43.43148" lon="6.05056">
        <ele>293.54333496094</ele>
        <time>2014-12-17T13:12:49Z</time>
      </trkpt>
      <trkpt lat="43.4316" lon="6.05065">
        <ele>291.52990722656</ele>
        <time>2014-12-17T13:12:54Z</time>
      </trkpt>
      <trkpt lat="43.43161" lon="6.05067">
        <ele>291.17266845703</ele>
        <time>2014-12-17T13:12:55Z</time>
      </trkpt>
      <trkpt lat="43.43168" lon="6.05072">
        <ele>289.90484619141</ele>
        <time>2014-12-17T13:12:58Z</time>
      </trkpt>
      <trkpt lat="43.43174" lon="6.05074">
        <ele>289.06256103516</ele>
        <time>2014-12-17T13:13:00Z</time>
      </trkpt>
      <trkpt lat="43.43178" lon="6.05076">
        <ele>288.48120117188</ele>
        <time>2014-12-17T13:13:01Z</time>
      </trkpt>
      <trkpt lat="43.43192" lon="6.0508">
        <ele>286.65930175781</ele>
        <time>2014-12-17T13:13:04Z</time>
      </trkpt>
      <trkpt lat="43.43201" lon="6.05082">
        <ele>285.37756347656</ele>
        <time>2014-12-17T13:13:06Z</time>
      </trkpt>
      <trkpt lat="43.43209" lon="6.05084">
        <ele>284.41925048828</ele>
        <time>2014-12-17T13:13:08Z</time>
      </trkpt>
      <trkpt lat="43.43227" lon="6.05082">
        <ele>282.66760253906</ele>
        <time>2014-12-17T13:13:13Z</time>
      </trkpt>
      <trkpt lat="43.4323" lon="6.05082">
        <ele>282.26934814453</ele>
        <time>2014-12-17T13:13:14Z</time>
      </trkpt>
      <trkpt lat="43.43246" lon="6.05082">
        <ele>280.58935546875</ele>
        <time>2014-12-17T13:13:17Z</time>
      </trkpt>
      <trkpt lat="43.43251" lon="6.05082">
        <ele>279.99301147461</ele>
        <time>2014-12-17T13:13:18Z</time>
      </trkpt>
      <trkpt lat="43.43277" lon="6.05084">
        <ele>277.11968994141</ele>
        <time>2014-12-17T13:13:22Z</time>
      </trkpt>
      <trkpt lat="43.43283" lon="6.05087">
        <ele>276.27926635742</ele>
        <time>2014-12-17T13:13:23Z</time>
      </trkpt>
      <trkpt lat="43.43288" lon="6.05091">
        <ele>275.52896118164</ele>
        <time>2014-12-17T13:13:24Z</time>
      </trkpt>
      <trkpt lat="43.43306" lon="6.05104">
        <ele>273.07772827148</ele>
        <time>2014-12-17T13:13:27Z</time>
      </trkpt>
      <trkpt lat="43.43311" lon="6.0511">
        <ele>272.33670043945</ele>
        <time>2014-12-17T13:13:28Z</time>
      </trkpt>
      <trkpt lat="43.43316" lon="6.05116">
        <ele>271.60189819336</ele>
        <time>2014-12-17T13:13:29Z</time>
      </trkpt>
      <trkpt lat="43.43321" lon="6.05121">
        <ele>270.9287109375</ele>
        <time>2014-12-17T13:13:30Z</time>
      </trkpt>
      <trkpt lat="43.4333" lon="6.05132">
        <ele>269.59982299805</ele>
        <time>2014-12-17T13:13:32Z</time>
      </trkpt>
      <trkpt lat="43.43335" lon="6.05135">
        <ele>269.00009155273</ele>
        <time>2014-12-17T13:13:33Z</time>
      </trkpt>
      <trkpt lat="43.43339" lon="6.05138">
        <ele>268.45092773438</ele>
        <time>2014-12-17T13:13:34Z</time>
      </trkpt>
      <trkpt lat="43.43343" lon="6.05141">
        <ele>267.87631225586</ele>
        <time>2014-12-17T13:13:35Z</time>
      </trkpt>
      <trkpt lat="43.43351" lon="6.05145">
        <ele>266.92694091797</ele>
        <time>2014-12-17T13:13:37Z</time>
      </trkpt>
      <trkpt lat="43.43357" lon="6.0515">
        <ele>266.24044799805</ele>
        <time>2014-12-17T13:13:41Z</time>
      </trkpt>
      <trkpt lat="43.43357" lon="6.0515">
        <ele>266.17739868164</ele>
        <time>2014-12-17T13:13:45Z</time>
      </trkpt>
      <trkpt lat="43.43358" lon="6.0515">
        <ele>266.12649536133</ele>
        <time>2014-12-17T13:13:51Z</time>
      </trkpt>
      <trkpt lat="43.43361" lon="6.05149">
        <ele>265.84170532227</ele>
        <time>2014-12-17T13:13:58Z</time>
      </trkpt>
      <trkpt lat="43.43361" lon="6.05149">
        <ele>265.7978515625</ele>
        <time>2014-12-17T13:14:07Z</time>
      </trkpt>
      <trkpt lat="43.43362" lon="6.0515">
        <ele>265.75799560547</ele>
        <time>2014-12-17T13:14:21Z</time>
      </trkpt>
      <trkpt lat="43.43362" lon="6.0515">
        <ele>265.74871826172</ele>
        <time>2014-12-17T13:14:35Z</time>
      </trkpt>
      <trkpt lat="43.43366" lon="6.05149">
        <ele>265.33822631836</ele>
        <time>2014-12-17T13:14:47Z</time>
      </trkpt>
      <trkpt lat="43.43377" lon="6.05146">
        <ele>264.34161376953</ele>
        <time>2014-12-17T13:14:52Z</time>
      </trkpt>
      <trkpt lat="43.43379" lon="6.05145">
        <ele>264.12347412109</ele>
        <time>2014-12-17T13:14:53Z</time>
      </trkpt>
      <trkpt lat="43.4338" lon="6.05144">
        <ele>264.07147216797</ele>
        <time>2014-12-17T13:14:54Z</time>
      </trkpt>
      <trkpt lat="43.43382" lon="6.05142">
        <ele>263.84475708008</ele>
        <time>2014-12-17T13:14:57Z</time>
      </trkpt>
      <trkpt lat="43.43383" lon="6.05142">
        <ele>263.81060791016</ele>
        <time>2014-12-17T13:15:05Z</time>
      </trkpt>
      <trkpt lat="43.43383" lon="6.05142">
        <ele>263.80541992188</ele>
        <time>2014-12-17T13:15:17Z</time>
      </trkpt>
      <trkpt lat="43.43382" lon="6.05142">
        <ele>263.84579467773</ele>
        <time>2014-12-17T13:15:28Z</time>
      </trkpt>
      <trkpt lat="43.43382" lon="6.05145">
        <ele>263.82531738281</ele>
        <time>2014-12-17T13:15:34Z</time>
      </trkpt>
      <trkpt lat="43.43382" lon="6.05145">
        <ele>263.82424926758</ele>
        <time>2014-12-17T13:15:39Z</time>
      </trkpt>
      <trkpt lat="43.4338" lon="6.05146">
        <ele>263.95257568359</ele>
        <time>2014-12-17T13:15:49Z</time>
      </trkpt>
      <trkpt lat="43.43375" lon="6.05145">
        <ele>264.52011108398</ele>
        <time>2014-12-17T13:15:51Z</time>
      </trkpt>
      <trkpt lat="43.43366" lon="6.05144">
        <ele>265.48428344727</ele>
        <time>2014-12-17T13:15:55Z</time>
      </trkpt>
      <trkpt lat="43.43367" lon="6.05148">
        <ele>265.29644775391</ele>
        <time>2014-12-17T13:15:59Z</time>
      </trkpt>
      <trkpt lat="43.43373" lon="6.05157">
        <ele>264.39303588867</ele>
        <time>2014-12-17T13:16:03Z</time>
      </trkpt>
      <trkpt lat="43.43375" lon="6.05158">
        <ele>264.17132568359</ele>
        <time>2014-12-17T13:16:04Z</time>
      </trkpt>
      <trkpt lat="43.43381" lon="6.05154">
        <ele>263.70510864258</ele>
        <time>2014-12-17T13:16:08Z</time>
      </trkpt>
      <trkpt lat="43.43383" lon="6.05148">
        <ele>263.60018920898</ele>
        <time>2014-12-17T13:16:10Z</time>
      </trkpt>
      <trkpt lat="43.43384" lon="6.05144">
        <ele>263.59613037109</ele>
        <time>2014-12-17T13:16:11Z</time>
      </trkpt>
      <trkpt lat="43.43388" lon="6.05135">
        <ele>263.4358215332</ele>
        <time>2014-12-17T13:16:14Z</time>
      </trkpt>
      <trkpt lat="43.43391" lon="6.05129">
        <ele>263.15609741211</ele>
        <time>2014-12-17T13:16:18Z</time>
      </trkpt>
      <trkpt lat="43.43394" lon="6.05137">
        <ele>262.67886352539</ele>
        <time>2014-12-17T13:16:22Z</time>
      </trkpt>
      <trkpt lat="43.43395" lon="6.05146">
        <ele>262.46722412109</ele>
        <time>2014-12-17T13:16:24Z</time>
      </trkpt>
      <trkpt lat="43.43396" lon="6.05157">
        <ele>262.12460327148</ele>
        <time>2014-12-17T13:16:27Z</time>
      </trkpt>
      <trkpt lat="43.43395" lon="6.05165">
        <ele>262.08520507812</ele>
        <time>2014-12-17T13:16:30Z</time>
      </trkpt>
      <trkpt lat="43.43395" lon="6.05171">
        <ele>262.15786743164</ele>
        <time>2014-12-17T13:16:31Z</time>
      </trkpt>
      <trkpt lat="43.43395" lon="6.0518">
        <ele>262.265625</ele>
        <time>2014-12-17T13:16:33Z</time>
      </trkpt>
      <trkpt lat="43.43397" lon="6.05194">
        <ele>262.31033325195</ele>
        <time>2014-12-17T13:16:36Z</time>
      </trkpt>
      <trkpt lat="43.43402" lon="6.0521">
        <ele>262.00756835938</ele>
        <time>2014-12-17T13:16:40Z</time>
      </trkpt>
      <trkpt lat="43.43403" lon="6.05226">
        <ele>262.10916137695</ele>
        <time>2014-12-17T13:16:44Z</time>
      </trkpt>
      <trkpt lat="43.43404" lon="6.05228">
        <ele>262.01782226562</ele>
        <time>2014-12-17T13:16:45Z</time>
      </trkpt>
      <trkpt lat="43.43403" lon="6.05235">
        <ele>262.27508544922</ele>
        <time>2014-12-17T13:16:49Z</time>
      </trkpt>
      <trkpt lat="43.43403" lon="6.05235">
        <ele>262.28375244141</ele>
        <time>2014-12-17T13:16:52Z</time>
      </trkpt>
      <trkpt lat="43.43403" lon="6.05236">
        <ele>262.29977416992</ele>
        <time>2014-12-17T13:16:57Z</time>
      </trkpt>
      <trkpt lat="43.43403" lon="6.0524">
        <ele>262.30914306641</ele>
        <time>2014-12-17T13:17:00Z</time>
      </trkpt>
      <trkpt lat="43.43403" lon="6.05244">
        <ele>262.36892700195</ele>
        <time>2014-12-17T13:17:02Z</time>
      </trkpt>
      <trkpt lat="43.43402" lon="6.05248">
        <ele>262.57971191406</ele>
        <time>2014-12-17T13:17:04Z</time>
      </trkpt>
      <trkpt lat="43.43404" lon="6.05259">
        <ele>262.28900146484</ele>
        <time>2014-12-17T13:17:08Z</time>
      </trkpt>
      <trkpt lat="43.43404" lon="6.05263">
        <ele>262.1530456543</ele>
        <time>2014-12-17T13:17:09Z</time>
      </trkpt>
      <trkpt lat="43.43404" lon="6.05272">
        <ele>262.10040283203</ele>
        <time>2014-12-17T13:17:12Z</time>
      </trkpt>
      <trkpt lat="43.43404" lon="6.05276">
        <ele>261.96527099609</ele>
        <time>2014-12-17T13:17:13Z</time>
      </trkpt>
      <trkpt lat="43.4341" lon="6.05304">
        <ele>261.05163574219</ele>
        <time>2014-12-17T13:17:20Z</time>
      </trkpt>
      <trkpt lat="43.43409" lon="6.05309">
        <ele>261.05624389648</ele>
        <time>2014-12-17T13:17:22Z</time>
      </trkpt>
      <trkpt lat="43.43408" lon="6.05314">
        <ele>261.06533813477</ele>
        <time>2014-12-17T13:17:24Z</time>
      </trkpt>
      <trkpt lat="43.43409" lon="6.05328">
        <ele>260.80807495117</ele>
        <time>2014-12-17T13:17:29Z</time>
      </trkpt>
      <trkpt lat="43.43414" lon="6.0535">
        <ele>260.01596069336</ele>
        <time>2014-12-17T13:17:34Z</time>
      </trkpt>
      <trkpt lat="43.43415" lon="6.05354">
        <ele>259.93402099609</ele>
        <time>2014-12-17T13:17:36Z</time>
      </trkpt>
      <trkpt lat="43.43415" lon="6.05354">
        <ele>259.90319824219</ele>
        <time>2014-12-17T13:17:37Z</time>
      </trkpt>
      <trkpt lat="43.43416" lon="6.05353">
        <ele>259.8356628418</ele>
        <time>2014-12-17T13:17:49Z</time>
      </trkpt>
      <trkpt lat="43.43416" lon="6.05354">
        <ele>259.83047485352</ele>
        <time>2014-12-17T13:18:03Z</time>
      </trkpt>
      <trkpt lat="43.43416" lon="6.05354">
        <ele>259.83047485352</ele>
        <time>2014-12-17T13:18:09Z</time>
      </trkpt>
      <trkpt lat="43.43415" lon="6.05354">
        <ele>259.86654663086</ele>
        <time>2014-12-17T13:18:49Z</time>
      </trkpt>
      <trkpt lat="43.43416" lon="6.05354">
        <ele>259.83163452148</ele>
        <time>2014-12-17T13:18:53Z</time>
      </trkpt>
      <trkpt lat="43.43416" lon="6.05354">
        <ele>259.83279418945</ele>
        <time>2014-12-17T13:19:14Z</time>
      </trkpt>
      <trkpt lat="43.43416" lon="6.05354">
        <ele>259.83395385742</ele>
        <time>2014-12-17T13:20:12Z</time>
      </trkpt>
      <trkpt lat="43.43419" lon="6.05356">
        <ele>259.68075561523</ele>
        <time>2014-12-17T13:20:20Z</time>
      </trkpt>
      <trkpt lat="43.43422" lon="6.05354">
        <ele>259.62640380859</ele>
        <time>2014-12-17T13:20:23Z</time>
      </trkpt>
      <trkpt lat="43.43431" lon="6.05355">
        <ele>259.39007568359</ele>
        <time>2014-12-17T13:20:26Z</time>
      </trkpt>
      <trkpt lat="43.43438" lon="6.05352">
        <ele>259.25274658203</ele>
        <time>2014-12-17T13:20:28Z</time>
      </trkpt>
      <trkpt lat="43.43443" lon="6.05348">
        <ele>259.20812988281</ele>
        <time>2014-12-17T13:20:29Z</time>
      </trkpt>
      <trkpt lat="43.43446" lon="6.05343">
        <ele>259.19494628906</ele>
        <time>2014-12-17T13:20:30Z</time>
      </trkpt>
      <trkpt lat="43.4345" lon="6.05339">
        <ele>259.1360168457</ele>
        <time>2014-12-17T13:20:31Z</time>
      </trkpt>
      <trkpt lat="43.43462" lon="6.0534">
        <ele>258.837890625</ele>
        <time>2014-12-17T13:20:33Z</time>
      </trkpt>
      <trkpt lat="43.43467" lon="6.05342">
        <ele>258.70230102539</ele>
        <time>2014-12-17T13:20:34Z</time>
      </trkpt>
      <trkpt lat="43.43489" lon="6.05348">
        <ele>258.08087158203</ele>
        <time>2014-12-17T13:20:38Z</time>
      </trkpt>
      <trkpt lat="43.43495" lon="6.05351">
        <ele>257.90350341797</ele>
        <time>2014-12-17T13:20:39Z</time>
      </trkpt>
      <trkpt lat="43.43499" lon="6.05354">
        <ele>257.76846313477</ele>
        <time>2014-12-17T13:20:40Z</time>
      </trkpt>
      <trkpt lat="43.43512" lon="6.05352">
        <ele>258.13723754883</ele>
        <time>2014-12-17T13:20:43Z</time>
      </trkpt>
      <trkpt lat="43.43515" lon="6.05349">
        <ele>258.236328125</ele>
        <time>2014-12-17T13:20:44Z</time>
      </trkpt>
      <trkpt lat="43.43517" lon="6.05347">
        <ele>258.30075073242</ele>
        <time>2014-12-17T13:20:46Z</time>
      </trkpt>
      <trkpt lat="43.43517" lon="6.05346">
        <ele>258.31781005859</ele>
        <time>2014-12-17T13:20:47Z</time>
      </trkpt>
      <trkpt lat="43.43519" lon="6.05343">
        <ele>258.3994140625</ele>
        <time>2014-12-17T13:20:49Z</time>
      </trkpt>
      <trkpt lat="43.43521" lon="6.0534">
        <ele>258.45489501953</ele>
        <time>2014-12-17T13:20:52Z</time>
      </trkpt>
      <trkpt lat="43.43527" lon="6.05333">
        <ele>258.6533203125</ele>
        <time>2014-12-17T13:20:58Z</time>
      </trkpt>
      <trkpt lat="43.43528" lon="6.05332">
        <ele>258.68078613281</ele>
        <time>2014-12-17T13:20:59Z</time>
      </trkpt>
      <trkpt lat="43.43534" lon="6.0533">
        <ele>258.82727050781</ele>
        <time>2014-12-17T13:21:04Z</time>
      </trkpt>
      <trkpt lat="43.43536" lon="6.0533">
        <ele>258.85473632812</ele>
        <time>2014-12-17T13:21:05Z</time>
      </trkpt>
      <trkpt lat="43.4354" lon="6.05332">
        <ele>258.95544433594</ele>
        <time>2014-12-17T13:21:08Z</time>
      </trkpt>
      <trkpt lat="43.43545" lon="6.05335">
        <ele>259.07556152344</ele>
        <time>2014-12-17T13:21:11Z</time>
      </trkpt>
      <trkpt lat="43.43561" lon="6.05341">
        <ele>259.49862670898</ele>
        <time>2014-12-17T13:21:18Z</time>
      </trkpt>
      <trkpt lat="43.43565" lon="6.05343">
        <ele>259.63815307617</ele>
        <time>2014-12-17T13:21:20Z</time>
      </trkpt>
      <trkpt lat="43.4357" lon="6.05352">
        <ele>259.84014892578</ele>
        <time>2014-12-17T13:21:24Z</time>
      </trkpt>
      <trkpt lat="43.43571" lon="6.05363">
        <ele>259.94384765625</ele>
        <time>2014-12-17T13:21:28Z</time>
      </trkpt>
      <trkpt lat="43.4357" lon="6.05374">
        <ele>260.02554321289</ele>
        <time>2014-12-17T13:21:32Z</time>
      </trkpt>
      <trkpt lat="43.43566" lon="6.05397">
        <ele>260.01950073242</ele>
        <time>2014-12-17T13:21:39Z</time>
      </trkpt>
      <trkpt lat="43.43563" lon="6.05417">
        <ele>260.04614257812</ele>
        <time>2014-12-17T13:21:45Z</time>
      </trkpt>
      <trkpt lat="43.43563" lon="6.05423">
        <ele>260.00952148438</ele>
        <time>2014-12-17T13:21:47Z</time>
      </trkpt>
      <trkpt lat="43.4356" lon="6.05439">
        <ele>259.88134765625</ele>
        <time>2014-12-17T13:21:52Z</time>
      </trkpt>
      <trkpt lat="43.43557" lon="6.05454">
        <ele>259.75317382812</ele>
        <time>2014-12-17T13:21:56Z</time>
      </trkpt>
      <trkpt lat="43.43555" lon="6.05476">
        <ele>259.625</ele>
        <time>2014-12-17T13:22:02Z</time>
      </trkpt>
      <trkpt lat="43.43557" lon="6.05499">
        <ele>259.73486328125</ele>
        <time>2014-12-17T13:22:09Z</time>
      </trkpt>
      <trkpt lat="43.43557" lon="6.05502">
        <ele>259.7287902832</ele>
        <time>2014-12-17T13:22:10Z</time>
      </trkpt>
      <trkpt lat="43.4356" lon="6.0553">
        <ele>259.79928588867</ele>
        <time>2014-12-17T13:22:17Z</time>
      </trkpt>
      <trkpt lat="43.43568" lon="6.05559">
        <ele>260.13619995117</ele>
        <time>2014-12-17T13:22:24Z</time>
      </trkpt>
      <trkpt lat="43.43583" lon="6.05595">
        <ele>260.55920410156</ele>
        <time>2014-12-17T13:22:32Z</time>
      </trkpt>
      <trkpt lat="43.43594" lon="6.05622">
        <ele>259.79498291016</ele>
        <time>2014-12-17T13:22:37Z</time>
      </trkpt>
      <trkpt lat="43.43602" lon="6.05639">
        <ele>259.37673950195</ele>
        <time>2014-12-17T13:22:40Z</time>
      </trkpt>
      <trkpt lat="43.43605" lon="6.0564">
        <ele>259.39025878906</ele>
        <time>2014-12-17T13:22:41Z</time>
      </trkpt>
      <trkpt lat="43.43608" lon="6.05641">
        <ele>259.44891357422</ele>
        <time>2014-12-17T13:22:42Z</time>
      </trkpt>
      <trkpt lat="43.43614" lon="6.05641">
        <ele>259.53137207031</ele>
        <time>2014-12-17T13:22:44Z</time>
      </trkpt>
      <trkpt lat="43.43622" lon="6.05645">
        <ele>259.57098388672</ele>
        <time>2014-12-17T13:22:48Z</time>
      </trkpt>
      <trkpt lat="43.43627" lon="6.05646">
        <ele>259.66491699219</ele>
        <time>2014-12-17T13:22:50Z</time>
      </trkpt>
      <trkpt lat="43.43634" lon="6.05643">
        <ele>259.91519165039</ele>
        <time>2014-12-17T13:22:53Z</time>
      </trkpt>
      <trkpt lat="43.43643" lon="6.05634">
        <ele>260.3408203125</ele>
        <time>2014-12-17T13:22:57Z</time>
      </trkpt>
      <trkpt lat="43.43652" lon="6.05623">
        <ele>260.80160522461</ele>
        <time>2014-12-17T13:23:02Z</time>
      </trkpt>
      <trkpt lat="43.43655" lon="6.05618">
        <ele>260.97244262695</ele>
        <time>2014-12-17T13:23:04Z</time>
      </trkpt>
      <trkpt lat="43.43664" lon="6.05603">
        <ele>261.47982788086</ele>
        <time>2014-12-17T13:23:10Z</time>
      </trkpt>
      <trkpt lat="43.43665" lon="6.05602">
        <ele>261.54187011719</ele>
        <time>2014-12-17T13:23:11Z</time>
      </trkpt>
      <trkpt lat="43.43669" lon="6.05595">
        <ele>261.81713867188</ele>
        <time>2014-12-17T13:23:14Z</time>
      </trkpt>
      <trkpt lat="43.43671" lon="6.05591">
        <ele>261.99353027344</ele>
        <time>2014-12-17T13:23:16Z</time>
      </trkpt>
      <trkpt lat="43.43673" lon="6.05588">
        <ele>262.16162109375</ele>
        <time>2014-12-17T13:23:18Z</time>
      </trkpt>
      <trkpt lat="43.43675" lon="6.0558">
        <ele>262.51400756836</ele>
        <time>2014-12-17T13:23:22Z</time>
      </trkpt>
      <trkpt lat="43.43678" lon="6.05567">
        <ele>263.10162353516</ele>
        <time>2014-12-17T13:23:27Z</time>
      </trkpt>
      <trkpt lat="43.43679" lon="6.05565">
        <ele>263.21817016602</ele>
        <time>2014-12-17T13:23:28Z</time>
      </trkpt>
      <trkpt lat="43.43681" lon="6.05556">
        <ele>263.61544799805</ele>
        <time>2014-12-17T13:23:32Z</time>
      </trkpt>
      <trkpt lat="43.43686" lon="6.05541">
        <ele>264.33068847656</ele>
        <time>2014-12-17T13:23:39Z</time>
      </trkpt>
      <trkpt lat="43.43685" lon="6.05536">
        <ele>264.45462036133</ele>
        <time>2014-12-17T13:23:41Z</time>
      </trkpt>
      <trkpt lat="43.43684" lon="6.05532">
        <ele>264.55603027344</ele>
        <time>2014-12-17T13:23:43Z</time>
      </trkpt>
      <trkpt lat="43.43683" lon="6.05527">
        <ele>264.6741027832</ele>
        <time>2014-12-17T13:23:45Z</time>
      </trkpt>
      <trkpt lat="43.43678" lon="6.05522">
        <ele>264.67404174805</ele>
        <time>2014-12-17T13:23:49Z</time>
      </trkpt>
      <trkpt lat="43.43666" lon="6.05515">
        <ele>264.41955566406</ele>
        <time>2014-12-17T13:23:58Z</time>
      </trkpt>
      <trkpt lat="43.43653" lon="6.05512">
        <ele>264.00378417969</ele>
        <time>2014-12-17T13:24:06Z</time>
      </trkpt>
      <trkpt lat="43.43651" lon="6.05507">
        <ele>264.04556274414</ele>
        <time>2014-12-17T13:24:09Z</time>
      </trkpt>
      <trkpt lat="43.43652" lon="6.05504">
        <ele>264.19360351562</ele>
        <time>2014-12-17T13:24:11Z</time>
      </trkpt>
      <trkpt lat="43.43657" lon="6.05492">
        <ele>264.55053710938</ele>
        <time>2014-12-17T13:24:18Z</time>
      </trkpt>
      <trkpt lat="43.43658" lon="6.05489">
        <ele>264.56884765625</ele>
        <time>2014-12-17T13:24:19Z</time>
      </trkpt>
      <trkpt lat="43.43663" lon="6.05477">
        <ele>264.80688476562</ele>
        <time>2014-12-17T13:24:24Z</time>
      </trkpt>
      <trkpt lat="43.43667" lon="6.05457">
        <ele>265.00622558594</ele>
        <time>2014-12-17T13:24:31Z</time>
      </trkpt>
      <trkpt lat="43.43671" lon="6.05438">
        <ele>265.15728759766</ele>
        <time>2014-12-17T13:24:37Z</time>
      </trkpt>
      <trkpt lat="43.43673" lon="6.05431">
        <ele>265.23968505859</ele>
        <time>2014-12-17T13:24:39Z</time>
      </trkpt>
      <trkpt lat="43.43676" lon="6.05427">
        <ele>265.34954833984</ele>
        <time>2014-12-17T13:24:41Z</time>
      </trkpt>
      <trkpt lat="43.43683" lon="6.05425">
        <ele>265.5830078125</ele>
        <time>2014-12-17T13:24:43Z</time>
      </trkpt>
      <trkpt lat="43.43705" lon="6.05431">
        <ele>266.36578369141</ele>
        <time>2014-12-17T13:24:47Z</time>
      </trkpt>
      <trkpt lat="43.43716" lon="6.05432">
        <ele>266.76403808594</ele>
        <time>2014-12-17T13:24:49Z</time>
      </trkpt>
      <trkpt lat="43.43719" lon="6.05429">
        <ele>266.9013671875</ele>
        <time>2014-12-17T13:24:50Z</time>
      </trkpt>
      <trkpt lat="43.43723" lon="6.05424">
        <ele>267.03869628906</ele>
        <time>2014-12-17T13:24:51Z</time>
      </trkpt>
      <trkpt lat="43.43727" lon="6.05408">
        <ele>267.06976318359</ele>
        <time>2014-12-17T13:24:54Z</time>
      </trkpt>
      <trkpt lat="43.43736" lon="6.05381">
        <ele>267.06460571289</ele>
        <time>2014-12-17T13:24:59Z</time>
      </trkpt>
      <trkpt lat="43.43739" lon="6.05359">
        <ele>266.91296386719</ele>
        <time>2014-12-17T13:25:02Z</time>
      </trkpt>
      <trkpt lat="43.43738" lon="6.05352">
        <ele>266.78765869141</ele>
        <time>2014-12-17T13:25:03Z</time>
      </trkpt>
      <trkpt lat="43.43736" lon="6.05332">
        <ele>266.50561523438</ele>
        <time>2014-12-17T13:25:07Z</time>
      </trkpt>
      <trkpt lat="43.43736" lon="6.05313">
        <ele>266.47814941406</ele>
        <time>2014-12-17T13:25:12Z</time>
      </trkpt>
      <trkpt lat="43.43735" lon="6.0531">
        <ele>266.46441650391</ele>
        <time>2014-12-17T13:25:13Z</time>
      </trkpt>
      <trkpt lat="43.43734" lon="6.05283">
        <ele>266.40948486328</ele>
        <time>2014-12-17T13:25:21Z</time>
      </trkpt>
      <trkpt lat="43.43736" lon="6.05276">
        <ele>266.50561523438</ele>
        <time>2014-12-17T13:25:26Z</time>
      </trkpt>
      <trkpt lat="43.43736" lon="6.05275">
        <ele>266.47814941406</ele>
        <time>2014-12-17T13:25:32Z</time>
      </trkpt>
      <trkpt lat="43.43736" lon="6.05275">
        <ele>266.47814941406</ele>
        <time>2014-12-17T13:25:41Z</time>
      </trkpt>
      <trkpt lat="43.43736" lon="6.05274">
        <ele>266.47814941406</ele>
        <time>2014-12-17T13:25:59Z</time>
      </trkpt>
      <trkpt lat="43.43738" lon="6.05273">
        <ele>266.57427978516</ele>
        <time>2014-12-17T13:26:15Z</time>
      </trkpt>
      <trkpt lat="43.43741" lon="6.05273">
        <ele>266.67041015625</ele>
        <time>2014-12-17T13:26:16Z</time>
      </trkpt>
      <trkpt lat="43.43745" lon="6.05274">
        <ele>266.80773925781</ele>
        <time>2014-12-17T13:26:17Z</time>
      </trkpt>
      <trkpt lat="43.43749" lon="6.05274">
        <ele>266.95880126953</ele>
        <time>2014-12-17T13:26:18Z</time>
      </trkpt>
      <trkpt lat="43.43756" lon="6.05274">
        <ele>267.29296875</ele>
        <time>2014-12-17T13:26:20Z</time>
      </trkpt>
      <trkpt lat="43.43771" lon="6.05273">
        <ele>268.00708007812</ele>
        <time>2014-12-17T13:26:24Z</time>
      </trkpt>
      <trkpt lat="43.43796" lon="6.05274">
        <ele>269.197265625</ele>
        <time>2014-12-17T13:26:31Z</time>
      </trkpt>
      <trkpt lat="43.43815" lon="6.05283">
        <ele>270.13110351562</ele>
        <time>2014-12-17T13:26:37Z</time>
      </trkpt>
      <trkpt lat="43.43824" lon="6.05284">
        <ele>270.55224609375</ele>
        <time>2014-12-17T13:26:40Z</time>
      </trkpt>
      <trkpt lat="43.43829" lon="6.05283">
        <ele>270.80859375</ele>
        <time>2014-12-17T13:26:42Z</time>
      </trkpt>
      <trkpt lat="43.43833" lon="6.0528">
        <ele>270.97338867188</ele>
        <time>2014-12-17T13:26:44Z</time>
      </trkpt>
      <trkpt lat="43.43834" lon="6.05274">
        <ele>271.03497314453</ele>
        <time>2014-12-17T13:26:46Z</time>
      </trkpt>
      <trkpt lat="43.43837" lon="6.05263">
        <ele>271.13110351562</ele>
        <time>2014-12-17T13:26:49Z</time>
      </trkpt>
      <trkpt lat="43.4384" lon="6.05246">
        <ele>271.32684326172</ele>
        <time>2014-12-17T13:26:53Z</time>
      </trkpt>
      <trkpt lat="43.43845" lon="6.05212">
        <ele>272.28317260742</ele>
        <time>2014-12-17T13:27:00Z</time>
      </trkpt>
      <trkpt lat="43.4385" lon="6.05198">
        <ele>272.72732543945</ele>
        <time>2014-12-17T13:27:03Z</time>
      </trkpt>
      <trkpt lat="43.43857" lon="6.05189">
        <ele>273.1086730957</ele>
        <time>2014-12-17T13:27:06Z</time>
      </trkpt>
      <trkpt lat="43.43861" lon="6.05189">
        <ele>273.21466064453</ele>
        <time>2014-12-17T13:27:07Z</time>
      </trkpt>
      <trkpt lat="43.43868" lon="6.05189">
        <ele>273.39520263672</ele>
        <time>2014-12-17T13:27:09Z</time>
      </trkpt>
      <trkpt lat="43.43893" lon="6.05191">
        <ele>274.04516601562</ele>
        <time>2014-12-17T13:27:16Z</time>
      </trkpt>
      <trkpt lat="43.439" lon="6.05192">
        <ele>274.24835205078</ele>
        <time>2014-12-17T13:27:18Z</time>
      </trkpt>
      <trkpt lat="43.43921" lon="6.05192">
        <ele>274.89886474609</ele>
        <time>2014-12-17T13:27:24Z</time>
      </trkpt>
      <trkpt lat="43.43924" lon="6.05192">
        <ele>275.0329284668</ele>
        <time>2014-12-17T13:27:25Z</time>
      </trkpt>
      <trkpt lat="43.43946" lon="6.05188">
        <ele>276.04138183594</ele>
        <time>2014-12-17T13:27:31Z</time>
      </trkpt>
      <trkpt lat="43.43953" lon="6.05187">
        <ele>276.3740234375</ele>
        <time>2014-12-17T13:27:33Z</time>
      </trkpt>
      <trkpt lat="43.4397" lon="6.05188">
        <ele>277.16049194336</ele>
        <time>2014-12-17T13:27:38Z</time>
      </trkpt>
      <trkpt lat="43.43991" lon="6.05191">
        <ele>278.02941894531</ele>
        <time>2014-12-17T13:27:44Z</time>
      </trkpt>
      <trkpt lat="43.43998" lon="6.0519">
        <ele>278.34103393555</ele>
        <time>2014-12-17T13:27:46Z</time>
      </trkpt>
      <trkpt lat="43.44022" lon="6.05191">
        <ele>279.48077392578</ele>
        <time>2014-12-17T13:27:53Z</time>
      </trkpt>
      <trkpt lat="43.44059" lon="6.05193">
        <ele>281.22253417969</ele>
        <time>2014-12-17T13:28:04Z</time>
      </trkpt>
      <trkpt lat="43.44078" lon="6.05197">
        <ele>282.00305175781</ele>
        <time>2014-12-17T13:28:10Z</time>
      </trkpt>
      <trkpt lat="43.4408" lon="6.052">
        <ele>282.01220703125</ele>
        <time>2014-12-17T13:28:11Z</time>
      </trkpt>
      <trkpt lat="43.44082" lon="6.05206">
        <ele>281.98587036133</ele>
        <time>2014-12-17T13:28:13Z</time>
      </trkpt>
      <trkpt lat="43.44083" lon="6.05211">
        <ele>281.93341064453</ele>
        <time>2014-12-17T13:28:16Z</time>
      </trkpt>
      <trkpt lat="43.44086" lon="6.05226">
        <ele>281.92767333984</ele>
        <time>2014-12-17T13:28:25Z</time>
      </trkpt>
      <trkpt lat="43.44086" lon="6.05229">
        <ele>281.796875</ele>
        <time>2014-12-17T13:28:29Z</time>
      </trkpt>
      <trkpt lat="43.44086" lon="6.0523">
        <ele>281.81536865234</ele>
        <time>2014-12-17T13:28:41Z</time>
      </trkpt>
      <trkpt lat="43.44086" lon="6.05239">
        <ele>281.55914306641</ele>
        <time>2014-12-17T13:28:46Z</time>
      </trkpt>
      <trkpt lat="43.44084" lon="6.05262">
        <ele>281.05355834961</ele>
        <time>2014-12-17T13:28:51Z</time>
      </trkpt>
      <trkpt lat="43.44082" lon="6.0528">
        <ele>280.93017578125</ele>
        <time>2014-12-17T13:28:54Z</time>
      </trkpt>
      <trkpt lat="43.44078" lon="6.05305">
        <ele>280.76538085938</ele>
        <time>2014-12-17T13:28:58Z</time>
      </trkpt>
      <trkpt lat="43.4407" lon="6.05368">
        <ele>280.7939453125</ele>
        <time>2014-12-17T13:29:08Z</time>
      </trkpt>
      <trkpt lat="43.44069" lon="6.05379">
        <ele>280.86889648438</ele>
        <time>2014-12-17T13:29:10Z</time>
      </trkpt>
      <trkpt lat="43.44064" lon="6.05418">
        <ele>281.08001708984</ele>
        <time>2014-12-17T13:29:17Z</time>
      </trkpt>
      <trkpt lat="43.44059" lon="6.05468">
        <ele>281.43365478516</ele>
        <time>2014-12-17T13:29:25Z</time>
      </trkpt>
      <trkpt lat="43.44053" lon="6.05532">
        <ele>280.99063110352</ele>
        <time>2014-12-17T13:29:34Z</time>
      </trkpt>
      <trkpt lat="43.44046" lon="6.05589">
        <ele>279.61584472656</ele>
        <time>2014-12-17T13:29:41Z</time>
      </trkpt>
      <trkpt lat="43.44046" lon="6.05597">
        <ele>279.32284545898</ele>
        <time>2014-12-17T13:29:42Z</time>
      </trkpt>
      <trkpt lat="43.44043" lon="6.05632">
        <ele>278.08676147461</ele>
        <time>2014-12-17T13:29:46Z</time>
      </trkpt>
      <trkpt lat="43.44041" lon="6.05658">
        <ele>277.25592041016</ele>
        <time>2014-12-17T13:29:49Z</time>
      </trkpt>
      <trkpt lat="43.44042" lon="6.05669">
        <ele>277.02587890625</ele>
        <time>2014-12-17T13:29:51Z</time>
      </trkpt>
      <trkpt lat="43.44044" lon="6.05671">
        <ele>277.11743164062</ele>
        <time>2014-12-17T13:29:52Z</time>
      </trkpt>
      <trkpt lat="43.44053" lon="6.0567">
        <ele>277.52026367188</ele>
        <time>2014-12-17T13:29:55Z</time>
      </trkpt>
      <trkpt lat="43.44073" lon="6.05668">
        <ele>278.49072265625</ele>
        <time>2014-12-17T13:30:02Z</time>
      </trkpt>
      <trkpt lat="43.44102" lon="6.05666">
        <ele>280.63766479492</ele>
        <time>2014-12-17T13:30:11Z</time>
      </trkpt>
      <trkpt lat="43.44109" lon="6.05665">
        <ele>281.23046875</ele>
        <time>2014-12-17T13:30:13Z</time>
      </trkpt>
      <trkpt lat="43.44128" lon="6.05663">
        <ele>282.88787841797</ele>
        <time>2014-12-17T13:30:19Z</time>
      </trkpt>
      <trkpt lat="43.44151" lon="6.05654">
        <ele>284.97650146484</ele>
        <time>2014-12-17T13:30:27Z</time>
      </trkpt>
      <trkpt lat="43.44162" lon="6.05649">
        <ele>286.01544189453</ele>
        <time>2014-12-17T13:30:31Z</time>
      </trkpt>
      <trkpt lat="43.44178" lon="6.05643">
        <ele>287.57391357422</ele>
        <time>2014-12-17T13:30:37Z</time>
      </trkpt>
      <trkpt lat="43.44191" lon="6.05639">
        <ele>288.84057617188</ele>
        <time>2014-12-17T13:30:42Z</time>
      </trkpt>
      <trkpt lat="43.44199" lon="6.05637">
        <ele>289.5426940918</ele>
        <time>2014-12-17T13:30:45Z</time>
      </trkpt>
      <trkpt lat="43.44213" lon="6.05634">
        <ele>290.84143066406</ele>
        <time>2014-12-17T13:30:51Z</time>
      </trkpt>
      <trkpt lat="43.44226" lon="6.05631">
        <ele>291.95074462891</ele>
        <time>2014-12-17T13:30:56Z</time>
      </trkpt>
      <trkpt lat="43.44235" lon="6.05628">
        <ele>292.7126159668</ele>
        <time>2014-12-17T13:31:00Z</time>
      </trkpt>
      <trkpt lat="43.44248" lon="6.05626">
        <ele>293.81631469727</ele>
        <time>2014-12-17T13:31:06Z</time>
      </trkpt>
      <trkpt lat="43.44257" lon="6.05624">
        <ele>294.61779785156</ele>
        <time>2014-12-17T13:31:11Z</time>
      </trkpt>
      <trkpt lat="43.44266" lon="6.05622">
        <ele>295.35479736328</ele>
        <time>2014-12-17T13:31:16Z</time>
      </trkpt>
      <trkpt lat="43.44271" lon="6.05621">
        <ele>295.80340576172</ele>
        <time>2014-12-17T13:31:19Z</time>
      </trkpt>
      <trkpt lat="43.4428" lon="6.05618">
        <ele>296.50836181641</ele>
        <time>2014-12-17T13:31:24Z</time>
      </trkpt>
      <trkpt lat="43.44287" lon="6.05616">
        <ele>297.1171875</ele>
        <time>2014-12-17T13:31:28Z</time>
      </trkpt>
      <trkpt lat="43.44292" lon="6.05614">
        <ele>297.56579589844</ele>
        <time>2014-12-17T13:31:31Z</time>
      </trkpt>
      <trkpt lat="43.44302" lon="6.05612">
        <ele>298.33483886719</ele>
        <time>2014-12-17T13:31:36Z</time>
      </trkpt>
      <trkpt lat="43.44305" lon="6.05611">
        <ele>298.62322998047</ele>
        <time>2014-12-17T13:31:38Z</time>
      </trkpt>
      <trkpt lat="43.44314" lon="6.05611">
        <ele>299.39227294922</ele>
        <time>2014-12-17T13:31:44Z</time>
      </trkpt>
      <trkpt lat="43.44326" lon="6.05609">
        <ele>300.41766357422</ele>
        <time>2014-12-17T13:31:51Z</time>
      </trkpt>
      <trkpt lat="43.44328" lon="6.05609">
        <ele>300.57788085938</ele>
        <time>2014-12-17T13:31:52Z</time>
      </trkpt>
      <trkpt lat="43.44337" lon="6.05608">
        <ele>301.78308105469</ele>
        <time>2014-12-17T13:31:58Z</time>
      </trkpt>
      <trkpt lat="43.44342" lon="6.05608">
        <ele>302.89923095703</ele>
        <time>2014-12-17T13:32:02Z</time>
      </trkpt>
      <trkpt lat="43.44345" lon="6.05608">
        <ele>303.4580078125</ele>
        <time>2014-12-17T13:32:04Z</time>
      </trkpt>
      <trkpt lat="43.44352" lon="6.05607">
        <ele>304.81826782227</ele>
        <time>2014-12-17T13:32:09Z</time>
      </trkpt>
      <trkpt lat="43.44353" lon="6.05607">
        <ele>305.21774291992</ele>
        <time>2014-12-17T13:32:11Z</time>
      </trkpt>
      <trkpt lat="43.4436" lon="6.05607">
        <ele>306.49230957031</ele>
        <time>2014-12-17T13:32:16Z</time>
      </trkpt>
      <trkpt lat="43.44363" lon="6.05607">
        <ele>307.2873840332</ele>
        <time>2014-12-17T13:32:19Z</time>
      </trkpt>
      <trkpt lat="43.44366" lon="6.05608">
        <ele>307.84033203125</ele>
        <time>2014-12-17T13:32:21Z</time>
      </trkpt>
      <trkpt lat="43.44372" lon="6.0561">
        <ele>309.01733398438</ele>
        <time>2014-12-17T13:32:26Z</time>
      </trkpt>
      <trkpt lat="43.44374" lon="6.05609">
        <ele>309.49557495117</ele>
        <time>2014-12-17T13:32:28Z</time>
      </trkpt>
      <trkpt lat="43.44381" lon="6.0561">
        <ele>310.84362792969</ele>
        <time>2014-12-17T13:32:33Z</time>
      </trkpt>
      <trkpt lat="43.44387" lon="6.05611">
        <ele>312.25299072266</ele>
        <time>2014-12-17T13:32:39Z</time>
      </trkpt>
      <trkpt lat="43.44391" lon="6.05611">
        <ele>312.9670715332</ele>
        <time>2014-12-17T13:32:42Z</time>
      </trkpt>
      <trkpt lat="43.44395" lon="6.0561">
        <ele>313.94821166992</ele>
        <time>2014-12-17T13:32:46Z</time>
      </trkpt>
      <trkpt lat="43.444" lon="6.05604">
        <ele>315.0832824707</ele>
        <time>2014-12-17T13:32:50Z</time>
      </trkpt>
      <trkpt lat="43.44405" lon="6.05598">
        <ele>316.18222045898</ele>
        <time>2014-12-17T13:32:55Z</time>
      </trkpt>
      <trkpt lat="43.44408" lon="6.05594">
        <ele>316.9150390625</ele>
        <time>2014-12-17T13:32:58Z</time>
      </trkpt>
      <trkpt lat="43.44409" lon="6.05592">
        <ele>317.11178588867</ele>
        <time>2014-12-17T13:32:59Z</time>
      </trkpt>
      <trkpt lat="43.44415" lon="6.05579">
        <ele>318.44488525391</ele>
        <time>2014-12-17T13:33:08Z</time>
      </trkpt>
      <trkpt lat="43.44416" lon="6.05576">
        <ele>318.69610595703</ele>
        <time>2014-12-17T13:33:11Z</time>
      </trkpt>
      <trkpt lat="43.44418" lon="6.0557">
        <ele>319.0944519043</ele>
        <time>2014-12-17T13:33:15Z</time>
      </trkpt>
      <trkpt lat="43.4442" lon="6.05565">
        <ele>319.61175537109</ele>
        <time>2014-12-17T13:33:18Z</time>
      </trkpt>
      <trkpt lat="43.44423" lon="6.05558">
        <ele>320.56927490234</ele>
        <time>2014-12-17T13:33:23Z</time>
      </trkpt>
      <trkpt lat="43.44426" lon="6.05551">
        <ele>321.41384887695</ele>
        <time>2014-12-17T13:33:28Z</time>
      </trkpt>
      <trkpt lat="43.44429" lon="6.05543">
        <ele>321.98748779297</ele>
        <time>2014-12-17T13:33:34Z</time>
      </trkpt>
      <trkpt lat="43.44432" lon="6.05538">
        <ele>322.99703979492</ele>
        <time>2014-12-17T13:33:39Z</time>
      </trkpt>
      <trkpt lat="43.44434" lon="6.05534">
        <ele>323.42434692383</ele>
        <time>2014-12-17T13:33:42Z</time>
      </trkpt>
      <trkpt lat="43.44434" lon="6.05534">
        <ele>323.66464233398</ele>
        <time>2014-12-17T13:33:43Z</time>
      </trkpt>
      <trkpt lat="43.44435" lon="6.0553">
        <ele>323.84606933594</ele>
        <time>2014-12-17T13:33:45Z</time>
      </trkpt>
      <trkpt lat="43.44437" lon="6.05521">
        <ele>324.40573120117</ele>
        <time>2014-12-17T13:33:51Z</time>
      </trkpt>
      <trkpt lat="43.44439" lon="6.05516">
        <ele>324.81967163086</ele>
        <time>2014-12-17T13:33:54Z</time>
      </trkpt>
      <trkpt lat="43.44442" lon="6.05508">
        <ele>325.67877197266</ele>
        <time>2014-12-17T13:33:59Z</time>
      </trkpt>
      <trkpt lat="43.44442" lon="6.05499">
        <ele>325.6139831543</ele>
        <time>2014-12-17T13:34:04Z</time>
      </trkpt>
      <trkpt lat="43.44443" lon="6.05494">
        <ele>325.53741455078</ele>
        <time>2014-12-17T13:34:07Z</time>
      </trkpt>
      <trkpt lat="43.44444" lon="6.05488">
        <ele>325.52508544922</ele>
        <time>2014-12-17T13:34:11Z</time>
      </trkpt>
      <trkpt lat="43.44445" lon="6.05485">
        <ele>325.91464233398</ele>
        <time>2014-12-17T13:34:13Z</time>
      </trkpt>
      <trkpt lat="43.44446" lon="6.05481">
        <ele>326.04470825195</ele>
        <time>2014-12-17T13:34:15Z</time>
      </trkpt>
      <trkpt lat="43.44447" lon="6.05474">
        <ele>326.25463867188</ele>
        <time>2014-12-17T13:34:20Z</time>
      </trkpt>
      <trkpt lat="43.44452" lon="6.0546">
        <ele>327.32186889648</ele>
        <time>2014-12-17T13:34:30Z</time>
      </trkpt>
      <trkpt lat="43.44455" lon="6.05454">
        <ele>327.93646240234</ele>
        <time>2014-12-17T13:34:35Z</time>
      </trkpt>
      <trkpt lat="43.44457" lon="6.05445">
        <ele>328.20986938477</ele>
        <time>2014-12-17T13:34:41Z</time>
      </trkpt>
      <trkpt lat="43.44458" lon="6.05444">
        <ele>328.40826416016</ele>
        <time>2014-12-17T13:34:42Z</time>
      </trkpt>
      <trkpt lat="43.4446" lon="6.05434">
        <ele>328.88665771484</ele>
        <time>2014-12-17T13:34:48Z</time>
      </trkpt>
      <trkpt lat="43.44461" lon="6.05426">
        <ele>328.79016113281</ele>
        <time>2014-12-17T13:34:54Z</time>
      </trkpt>
      <trkpt lat="43.44461" lon="6.05424">
        <ele>328.80093383789</ele>
        <time>2014-12-17T13:34:58Z</time>
      </trkpt>
      <trkpt lat="43.44461" lon="6.05423">
        <ele>328.66683959961</ele>
        <time>2014-12-17T13:35:00Z</time>
      </trkpt>
      <trkpt lat="43.44461" lon="6.05423">
        <ele>328.77459716797</ele>
        <time>2014-12-17T13:35:11Z</time>
      </trkpt>
      <trkpt lat="43.44462" lon="6.05423">
        <ele>329.01235961914</ele>
        <time>2014-12-17T13:35:24Z</time>
      </trkpt>
      <trkpt lat="43.44463" lon="6.05421">
        <ele>329.32302856445</ele>
        <time>2014-12-17T13:35:37Z</time>
      </trkpt>
      <trkpt lat="43.44463" lon="6.05421">
        <ele>329.30673217773</ele>
        <time>2014-12-17T13:35:48Z</time>
      </trkpt>
      <trkpt lat="43.44463" lon="6.05421">
        <ele>329.31283569336</ele>
        <time>2014-12-17T13:35:53Z</time>
      </trkpt>
      <trkpt lat="43.44463" lon="6.05421">
        <ele>329.31283569336</ele>
        <time>2014-12-17T13:35:58Z</time>
      </trkpt>
      <trkpt lat="43.44463" lon="6.05421">
        <ele>329.18899536133</ele>
        <time>2014-12-17T13:36:07Z</time>
      </trkpt>
      <trkpt lat="43.44463" lon="6.05421">
        <ele>329.18899536133</ele>
        <time>2014-12-17T13:36:15Z</time>
      </trkpt>
      <trkpt lat="43.44463" lon="6.05421">
        <ele>329.18698120117</ele>
        <time>2014-12-17T13:36:33Z</time>
      </trkpt>
      <trkpt lat="43.44463" lon="6.05421">
        <ele>329.30877685547</ele>
        <time>2014-12-17T13:36:55Z</time>
      </trkpt>
      <trkpt lat="43.44463" lon="6.05421">
        <ele>329.30062866211</ele>
        <time>2014-12-17T13:37:09Z</time>
      </trkpt>
      <trkpt lat="43.44463" lon="6.05421">
        <ele>329.29449462891</ele>
        <time>2014-12-17T13:37:24Z</time>
      </trkpt>
      <trkpt lat="43.44463" lon="6.0542">
        <ele>329.02044677734</ele>
        <time>2014-12-17T13:37:40Z</time>
      </trkpt>
      <trkpt lat="43.44462" lon="6.0542">
        <ele>328.89260864258</ele>
        <time>2014-12-17T13:37:54Z</time>
      </trkpt>
      <trkpt lat="43.44462" lon="6.0542">
        <ele>328.89260864258</ele>
        <time>2014-12-17T13:38:02Z</time>
      </trkpt>
      <trkpt lat="43.44462" lon="6.05419">
        <ele>328.86828613281</ele>
        <time>2014-12-17T13:38:16Z</time>
      </trkpt>
      <trkpt lat="43.44463" lon="6.0542">
        <ele>329.00216674805</ele>
        <time>2014-12-17T13:38:27Z</time>
      </trkpt>
      <trkpt lat="43.44465" lon="6.05416">
        <ele>329.59555053711</ele>
        <time>2014-12-17T13:38:48Z</time>
      </trkpt>
      <trkpt lat="43.44467" lon="6.05413">
        <ele>329.94006347656</ele>
        <time>2014-12-17T13:38:51Z</time>
      </trkpt>
      <trkpt lat="43.44469" lon="6.05407">
        <ele>330.24215698242</ele>
        <time>2014-12-17T13:38:54Z</time>
      </trkpt>
      <trkpt lat="43.44473" lon="6.05395">
        <ele>330.68756103516</ele>
        <time>2014-12-17T13:39:00Z</time>
      </trkpt>
      <trkpt lat="43.44476" lon="6.0539">
        <ele>331.16491699219</ele>
        <time>2014-12-17T13:39:03Z</time>
      </trkpt>
      <trkpt lat="43.44479" lon="6.05386">
        <ele>331.65344238281</ele>
        <time>2014-12-17T13:39:06Z</time>
      </trkpt>
      <trkpt lat="43.44481" lon="6.05379">
        <ele>331.76470947266</ele>
        <time>2014-12-17T13:39:09Z</time>
      </trkpt>
      <trkpt lat="43.44487" lon="6.05364">
        <ele>332.71243286133</ele>
        <time>2014-12-17T13:39:16Z</time>
      </trkpt>
      <trkpt lat="43.44493" lon="6.05355">
        <ele>333.5696105957</ele>
        <time>2014-12-17T13:39:20Z</time>
      </trkpt>
      <trkpt lat="43.44494" lon="6.05352">
        <ele>333.73178100586</ele>
        <time>2014-12-17T13:39:21Z</time>
      </trkpt>
      <trkpt lat="43.44507" lon="6.05332">
        <ele>336.20428466797</ele>
        <time>2014-12-17T13:39:29Z</time>
      </trkpt>
      <trkpt lat="43.44517" lon="6.05317">
        <ele>337.13656616211</ele>
        <time>2014-12-17T13:39:35Z</time>
      </trkpt>
      <trkpt lat="43.4452" lon="6.05311">
        <ele>337.3330078125</ele>
        <time>2014-12-17T13:39:37Z</time>
      </trkpt>
      <trkpt lat="43.44524" lon="6.05303">
        <ele>337.40298461914</ele>
        <time>2014-12-17T13:39:40Z</time>
      </trkpt>
      <trkpt lat="43.44529" lon="6.05293">
        <ele>337.30014038086</ele>
        <time>2014-12-17T13:39:44Z</time>
      </trkpt>
      <trkpt lat="43.44544" lon="6.05267">
        <ele>337.24203491211</ele>
        <time>2014-12-17T13:39:53Z</time>
      </trkpt>
      <trkpt lat="43.44553" lon="6.05247">
        <ele>336.60028076172</ele>
        <time>2014-12-17T13:39:59Z</time>
      </trkpt>
      <trkpt lat="43.44571" lon="6.05219">
        <ele>337.93081665039</ele>
        <time>2014-12-17T13:40:08Z</time>
      </trkpt>
      <trkpt lat="43.4458" lon="6.05203">
        <ele>337.92114257812</ele>
        <time>2014-12-17T13:40:13Z</time>
      </trkpt>
      <trkpt lat="43.4459" lon="6.05194">
        <ele>337.58108520508</ele>
        <time>2014-12-17T13:40:18Z</time>
      </trkpt>
      <trkpt lat="43.44595" lon="6.05191">
        <ele>337.45861816406</ele>
        <time>2014-12-17T13:40:21Z</time>
      </trkpt>
      <trkpt lat="43.44603" lon="6.05187">
        <ele>337.36477661133</ele>
        <time>2014-12-17T13:40:25Z</time>
      </trkpt>
      <trkpt lat="43.44611" lon="6.05186">
        <ele>337.62686157227</ele>
        <time>2014-12-17T13:40:29Z</time>
      </trkpt>
      <trkpt lat="43.44614" lon="6.05185">
        <ele>337.6875</ele>
        <time>2014-12-17T13:40:31Z</time>
      </trkpt>
      <trkpt lat="43.44619" lon="6.05185">
        <ele>337.91067504883</ele>
        <time>2014-12-17T13:40:35Z</time>
      </trkpt>
      <trkpt lat="43.44624" lon="6.05184">
        <ele>337.97476196289</ele>
        <time>2014-12-17T13:40:38Z</time>
      </trkpt>
      <trkpt lat="43.44626" lon="6.05184">
        <ele>338.06173706055</ele>
        <time>2014-12-17T13:40:40Z</time>
      </trkpt>
      <trkpt lat="43.44635" lon="6.05182">
        <ele>338.32836914062</ele>
        <time>2014-12-17T13:40:45Z</time>
      </trkpt>
      <trkpt lat="43.44646" lon="6.0518">
        <ele>338.65454101562</ele>
        <time>2014-12-17T13:40:52Z</time>
      </trkpt>
      <trkpt lat="43.44659" lon="6.05178">
        <ele>339.03677368164</ele>
        <time>2014-12-17T13:40:59Z</time>
      </trkpt>
      <trkpt lat="43.44665" lon="6.05178">
        <ele>339.26565551758</ele>
        <time>2014-12-17T13:41:02Z</time>
      </trkpt>
      <trkpt lat="43.4467" lon="6.05181">
        <ele>340.04620361328</ele>
        <time>2014-12-17T13:41:06Z</time>
      </trkpt>
      <trkpt lat="43.44678" lon="6.05183">
        <ele>340.79476928711</ele>
        <time>2014-12-17T13:41:11Z</time>
      </trkpt>
      <trkpt lat="43.44681" lon="6.05183">
        <ele>341.0673828125</ele>
        <time>2014-12-17T13:41:13Z</time>
      </trkpt>
      <trkpt lat="43.44691" lon="6.05183">
        <ele>341.73596191406</ele>
        <time>2014-12-17T13:41:19Z</time>
      </trkpt>
      <trkpt lat="43.44697" lon="6.05184">
        <ele>342.32208251953</ele>
        <time>2014-12-17T13:41:23Z</time>
      </trkpt>
      <trkpt lat="43.44703" lon="6.05186">
        <ele>342.85269165039</ele>
        <time>2014-12-17T13:41:27Z</time>
      </trkpt>
      <trkpt lat="43.44715" lon="6.05192">
        <ele>344.1081237793</ele>
        <time>2014-12-17T13:41:36Z</time>
      </trkpt>
      <trkpt lat="43.44717" lon="6.05193">
        <ele>344.26251220703</ele>
        <time>2014-12-17T13:41:37Z</time>
      </trkpt>
      <trkpt lat="43.44724" lon="6.05197">
        <ele>344.8844909668</ele>
        <time>2014-12-17T13:41:42Z</time>
      </trkpt>
      <trkpt lat="43.44734" lon="6.05209">
        <ele>345.85516357422</ele>
        <time>2014-12-17T13:41:52Z</time>
      </trkpt>
      <trkpt lat="43.44739" lon="6.05214">
        <ele>346.17181396484</ele>
        <time>2014-12-17T13:41:57Z</time>
      </trkpt>
      <trkpt lat="43.44744" lon="6.05222">
        <ele>346.52996826172</ele>
        <time>2014-12-17T13:42:03Z</time>
      </trkpt>
      <trkpt lat="43.44748" lon="6.05227">
        <ele>346.67944335938</ele>
        <time>2014-12-17T13:42:06Z</time>
      </trkpt>
      <trkpt lat="43.44751" lon="6.05237">
        <ele>346.96450805664</ele>
        <time>2014-12-17T13:42:12Z</time>
      </trkpt>
      <trkpt lat="43.44751" lon="6.05241">
        <ele>347.1682434082</ele>
        <time>2014-12-17T13:42:14Z</time>
      </trkpt>
      <trkpt lat="43.4475" lon="6.05247">
        <ele>347.00479125977</ele>
        <time>2014-12-17T13:42:17Z</time>
      </trkpt>
      <trkpt lat="43.4475" lon="6.05249">
        <ele>347.02725219727</ele>
        <time>2014-12-17T13:42:18Z</time>
      </trkpt>
      <trkpt lat="43.4475" lon="6.05263">
        <ele>348.11660766602</ele>
        <time>2014-12-17T13:42:25Z</time>
      </trkpt>
      <trkpt lat="43.44749" lon="6.05267">
        <ele>348.47772216797</ele>
        <time>2014-12-17T13:42:27Z</time>
      </trkpt>
      <trkpt lat="43.44752" lon="6.05273">
        <ele>349.21295166016</ele>
        <time>2014-12-17T13:42:30Z</time>
      </trkpt>
      <trkpt lat="43.44752" lon="6.05279">
        <ele>349.7336730957</ele>
        <time>2014-12-17T13:42:33Z</time>
      </trkpt>
      <trkpt lat="43.44752" lon="6.05283">
        <ele>349.99014282227</ele>
        <time>2014-12-17T13:42:35Z</time>
      </trkpt>
      <trkpt lat="43.44751" lon="6.05287">
        <ele>350.21817016602</ele>
        <time>2014-12-17T13:42:37Z</time>
      </trkpt>
      <trkpt lat="43.44752" lon="6.0529">
        <ele>350.61578369141</ele>
        <time>2014-12-17T13:42:39Z</time>
      </trkpt>
      <trkpt lat="43.44751" lon="6.05299">
        <ele>351.22244262695</ele>
        <time>2014-12-17T13:42:43Z</time>
      </trkpt>
      <trkpt lat="43.44751" lon="6.05311">
        <ele>352.26611328125</ele>
        <time>2014-12-17T13:42:49Z</time>
      </trkpt>
      <trkpt lat="43.44752" lon="6.05317">
        <ele>352.76861572266</ele>
        <time>2014-12-17T13:42:52Z</time>
      </trkpt>
      <trkpt lat="43.44754" lon="6.0532">
        <ele>353.1994934082</ele>
        <time>2014-12-17T13:42:54Z</time>
      </trkpt>
      <trkpt lat="43.44753" lon="6.05327">
        <ele>353.76962280273</ele>
        <time>2014-12-17T13:42:58Z</time>
      </trkpt>
      <trkpt lat="43.44753" lon="6.05336">
        <ele>354.52157592773</ele>
        <time>2014-12-17T13:43:02Z</time>
      </trkpt>
      <trkpt lat="43.44752" lon="6.0534">
        <ele>354.84072875977</ele>
        <time>2014-12-17T13:43:04Z</time>
      </trkpt>
      <trkpt lat="43.44751" lon="6.05346">
        <ele>355.4541015625</ele>
        <time>2014-12-17T13:43:07Z</time>
      </trkpt>
      <trkpt lat="43.44751" lon="6.0535">
        <ele>355.80630493164</ele>
        <time>2014-12-17T13:43:10Z</time>
      </trkpt>
      <trkpt lat="43.4475" lon="6.0536">
        <ele>356.86053466797</ele>
        <time>2014-12-17T13:43:15Z</time>
      </trkpt>
      <trkpt lat="43.4475" lon="6.05372">
        <ele>358.18975830078</ele>
        <time>2014-12-17T13:43:21Z</time>
      </trkpt>
      <trkpt lat="43.4475" lon="6.05379">
        <ele>358.9899597168</ele>
        <time>2014-12-17T13:43:25Z</time>
      </trkpt>
      <trkpt lat="43.44749" lon="6.05381">
        <ele>359.26986694336</ele>
        <time>2014-12-17T13:43:26Z</time>
      </trkpt>
      <trkpt lat="43.44748" lon="6.0539">
        <ele>360.64361572266</ele>
        <time>2014-12-17T13:43:31Z</time>
      </trkpt>
      <trkpt lat="43.44747" lon="6.05392">
        <ele>361.04791259766</ele>
        <time>2014-12-17T13:43:32Z</time>
      </trkpt>
      <trkpt lat="43.44748" lon="6.05394">
        <ele>360.94610595703</ele>
        <time>2014-12-17T13:43:33Z</time>
      </trkpt>
      <trkpt lat="43.44748" lon="6.05399">
        <ele>361.6584777832</ele>
        <time>2014-12-17T13:43:36Z</time>
      </trkpt>
      <trkpt lat="43.44749" lon="6.05407">
        <ele>362.18817138672</ele>
        <time>2014-12-17T13:43:39Z</time>
      </trkpt>
      <trkpt lat="43.44749" lon="6.05411">
        <ele>362.53002929688</ele>
        <time>2014-12-17T13:43:41Z</time>
      </trkpt>
      <trkpt lat="43.4475" lon="6.05424">
        <ele>364.27465820312</ele>
        <time>2014-12-17T13:43:47Z</time>
      </trkpt>
      <trkpt lat="43.44751" lon="6.05435">
        <ele>366.0227355957</ele>
        <time>2014-12-17T13:43:53Z</time>
      </trkpt>
      <trkpt lat="43.44752" lon="6.05436">
        <ele>366.20947265625</ele>
        <time>2014-12-17T13:43:54Z</time>
      </trkpt>
      <trkpt lat="43.44751" lon="6.05439">
        <ele>366.74502563477</ele>
        <time>2014-12-17T13:43:56Z</time>
      </trkpt>
      <trkpt lat="43.44752" lon="6.05444">
        <ele>367.50268554688</ele>
        <time>2014-12-17T13:43:59Z</time>
      </trkpt>
      <trkpt lat="43.44752" lon="6.05451">
        <ele>368.5654296875</ele>
        <time>2014-12-17T13:44:03Z</time>
      </trkpt>
      <trkpt lat="43.44751" lon="6.05454">
        <ele>369.14202880859</ele>
        <time>2014-12-17T13:44:05Z</time>
      </trkpt>
      <trkpt lat="43.44752" lon="6.05458">
        <ele>369.70007324219</ele>
        <time>2014-12-17T13:44:07Z</time>
      </trkpt>
      <trkpt lat="43.44753" lon="6.0548">
        <ele>373.13330078125</ele>
        <time>2014-12-17T13:44:19Z</time>
      </trkpt>
      <trkpt lat="43.44753" lon="6.05489">
        <ele>374.76705932617</ele>
        <time>2014-12-17T13:44:25Z</time>
      </trkpt>
      <trkpt lat="43.44754" lon="6.05493">
        <ele>375.06634521484</ele>
        <time>2014-12-17T13:44:28Z</time>
      </trkpt>
      <trkpt lat="43.44756" lon="6.05494">
        <ele>375.15319824219</ele>
        <time>2014-12-17T13:44:30Z</time>
      </trkpt>
      <trkpt lat="43.44759" lon="6.05496">
        <ele>374.90380859375</ele>
        <time>2014-12-17T13:44:32Z</time>
      </trkpt>
      <trkpt lat="43.44764" lon="6.05502">
        <ele>375.0595703125</ele>
        <time>2014-12-17T13:44:36Z</time>
      </trkpt>
      <trkpt lat="43.44766" lon="6.05505">
        <ele>375.3450012207</ele>
        <time>2014-12-17T13:44:38Z</time>
      </trkpt>
      <trkpt lat="43.44775" lon="6.05514">
        <ele>375.64508056641</ele>
        <time>2014-12-17T13:44:45Z</time>
      </trkpt>
      <trkpt lat="43.44783" lon="6.05525">
        <ele>376.5068359375</ele>
        <time>2014-12-17T13:44:53Z</time>
      </trkpt>
      <trkpt lat="43.44791" lon="6.0553">
        <ele>375.96685791016</ele>
        <time>2014-12-17T13:44:59Z</time>
      </trkpt>
      <trkpt lat="43.44794" lon="6.05532">
        <ele>375.5998840332</ele>
        <time>2014-12-17T13:45:01Z</time>
      </trkpt>
      <trkpt lat="43.44798" lon="6.05537">
        <ele>375.70861816406</ele>
        <time>2014-12-17T13:45:05Z</time>
      </trkpt>
      <trkpt lat="43.44801" lon="6.05541">
        <ele>375.92855834961</ele>
        <time>2014-12-17T13:45:08Z</time>
      </trkpt>
      <trkpt lat="43.44803" lon="6.05544">
        <ele>376.00003051758</ele>
        <time>2014-12-17T13:45:11Z</time>
      </trkpt>
      <trkpt lat="43.44811" lon="6.05548">
        <ele>374.88812255859</ele>
        <time>2014-12-17T13:45:17Z</time>
      </trkpt>
      <trkpt lat="43.44822" lon="6.05551">
        <ele>372.95681762695</ele>
        <time>2014-12-17T13:45:22Z</time>
      </trkpt>
      <trkpt lat="43.44831" lon="6.05558">
        <ele>371.79235839844</ele>
        <time>2014-12-17T13:45:27Z</time>
      </trkpt>
      <trkpt lat="43.44841" lon="6.05562">
        <ele>372.40811157227</ele>
        <time>2014-12-17T13:45:33Z</time>
      </trkpt>
      <trkpt lat="43.44844" lon="6.05562">
        <ele>372.55276489258</ele>
        <time>2014-12-17T13:45:35Z</time>
      </trkpt>
      <trkpt lat="43.44853" lon="6.05561">
        <ele>372.8703918457</ele>
        <time>2014-12-17T13:45:42Z</time>
      </trkpt>
      <trkpt lat="43.44855" lon="6.05562">
        <ele>373.15200805664</ele>
        <time>2014-12-17T13:45:45Z</time>
      </trkpt>
      <trkpt lat="43.44856" lon="6.05561">
        <ele>373.10147094727</ele>
        <time>2014-12-17T13:45:51Z</time>
      </trkpt>
      <trkpt lat="43.44856" lon="6.05561">
        <ele>373.09555053711</ele>
        <time>2014-12-17T13:46:04Z</time>
      </trkpt>
      <trkpt lat="43.44857" lon="6.05561">
        <ele>373.12243652344</ele>
        <time>2014-12-17T13:46:19Z</time>
      </trkpt>
      <trkpt lat="43.44857" lon="6.05561">
        <ele>373.10473632812</ele>
        <time>2014-12-17T13:46:39Z</time>
      </trkpt>
      <trkpt lat="43.44856" lon="6.05562">
        <ele>373.2021484375</ele>
        <time>2014-12-17T13:46:59Z</time>
      </trkpt>
      <trkpt lat="43.44857" lon="6.05562">
        <ele>373.20513916016</ele>
        <time>2014-12-17T13:47:10Z</time>
      </trkpt>
      <trkpt lat="43.44857" lon="6.05562">
        <ele>373.20513916016</ele>
        <time>2014-12-17T13:47:43Z</time>
      </trkpt>
      <trkpt lat="43.44856" lon="6.05562">
        <ele>373.18438720703</ele>
        <time>2014-12-17T13:48:16Z</time>
      </trkpt>
      <trkpt lat="43.44857" lon="6.05562">
        <ele>373.18740844727</ele>
        <time>2014-12-17T13:48:29Z</time>
      </trkpt>
      <trkpt lat="43.44857" lon="6.05562">
        <ele>373.18740844727</ele>
        <time>2014-12-17T13:48:32Z</time>
      </trkpt>
      <trkpt lat="43.44857" lon="6.05562">
        <ele>373.17559814453</ele>
        <time>2014-12-17T13:48:44Z</time>
      </trkpt>
      <trkpt lat="43.44858" lon="6.05565">
        <ele>373.68542480469</ele>
        <time>2014-12-17T13:49:07Z</time>
      </trkpt>
      <trkpt lat="43.44864" lon="6.05576">
        <ele>375.18615722656</ele>
        <time>2014-12-17T13:49:14Z</time>
      </trkpt>
      <trkpt lat="43.44865" lon="6.05577">
        <ele>375.3796081543</ele>
        <time>2014-12-17T13:49:15Z</time>
      </trkpt>
      <trkpt lat="43.44872" lon="6.05589">
        <ele>377.11517333984</ele>
        <time>2014-12-17T13:49:24Z</time>
      </trkpt>
      <trkpt lat="43.44877" lon="6.05596">
        <ele>378.18988037109</ele>
        <time>2014-12-17T13:49:29Z</time>
      </trkpt>
      <trkpt lat="43.44884" lon="6.05596">
        <ele>378.45571899414</ele>
        <time>2014-12-17T13:49:34Z</time>
      </trkpt>
      <trkpt lat="43.44888" lon="6.05597">
        <ele>378.57073974609</ele>
        <time>2014-12-17T13:49:37Z</time>
      </trkpt>
      <trkpt lat="43.44896" lon="6.05594">
        <ele>378.4914855957</ele>
        <time>2014-12-17T13:49:42Z</time>
      </trkpt>
      <trkpt lat="43.44898" lon="6.05593">
        <ele>378.45727539062</ele>
        <time>2014-12-17T13:49:43Z</time>
      </trkpt>
      <trkpt lat="43.44899" lon="6.05592">
        <ele>378.37719726562</ele>
        <time>2014-12-17T13:49:44Z</time>
      </trkpt>
      <trkpt lat="43.44909" lon="6.05584">
        <ele>377.82711791992</ele>
        <time>2014-12-17T13:49:51Z</time>
      </trkpt>
      <trkpt lat="43.44916" lon="6.05576">
        <ele>377.45303344727</ele>
        <time>2014-12-17T13:49:56Z</time>
      </trkpt>
      <trkpt lat="43.44921" lon="6.0557">
        <ele>377.53967285156</ele>
        <time>2014-12-17T13:49:59Z</time>
      </trkpt>
      <trkpt lat="43.44931" lon="6.05556">
        <ele>377.8440246582</ele>
        <time>2014-12-17T13:50:05Z</time>
      </trkpt>
      <trkpt lat="43.4494" lon="6.05538">
        <ele>377.66799926758</ele>
        <time>2014-12-17T13:50:12Z</time>
      </trkpt>
      <trkpt lat="43.4495" lon="6.05521">
        <ele>377.70635986328</ele>
        <time>2014-12-17T13:50:19Z</time>
      </trkpt>
      <trkpt lat="43.44958" lon="6.05506">
        <ele>377.45571899414</ele>
        <time>2014-12-17T13:50:25Z</time>
      </trkpt>
      <trkpt lat="43.44972" lon="6.05474">
        <ele>378.10015869141</ele>
        <time>2014-12-17T13:50:35Z</time>
      </trkpt>
      <trkpt lat="43.44985" lon="6.05454">
        <ele>379.1833190918</ele>
        <time>2014-12-17T13:50:41Z</time>
      </trkpt>
      <trkpt lat="43.44992" lon="6.05443">
        <ele>379.75479125977</ele>
        <time>2014-12-17T13:50:45Z</time>
      </trkpt>
      <trkpt lat="43.44994" lon="6.0544">
        <ele>379.84735107422</ele>
        <time>2014-12-17T13:50:47Z</time>
      </trkpt>
      <trkpt lat="43.44993" lon="6.0544">
        <ele>379.80596923828</ele>
        <time>2014-12-17T13:50:52Z</time>
      </trkpt>
      <trkpt lat="43.44993" lon="6.0544">
        <ele>379.80596923828</ele>
        <time>2014-12-17T13:50:55Z</time>
      </trkpt>
      <trkpt lat="43.44993" lon="6.0544">
        <ele>379.80706787109</ele>
        <time>2014-12-17T13:51:04Z</time>
      </trkpt>
      <trkpt lat="43.44993" lon="6.0544">
        <ele>379.80816650391</ele>
        <time>2014-12-17T13:51:22Z</time>
      </trkpt>
      <trkpt lat="43.44993" lon="6.0544">
        <ele>379.81036376953</ele>
        <time>2014-12-17T13:51:34Z</time>
      </trkpt>
      <trkpt lat="43.44993" lon="6.0544">
        <ele>379.81365966797</ele>
        <time>2014-12-17T13:51:50Z</time>
      </trkpt>
      <trkpt lat="43.44994" lon="6.05434">
        <ele>379.7819519043</ele>
        <time>2014-12-17T13:51:58Z</time>
      </trkpt>
      <trkpt lat="43.44995" lon="6.05429">
        <ele>379.81146240234</ele>
        <time>2014-12-17T13:52:02Z</time>
      </trkpt>
      <trkpt lat="43.44997" lon="6.05427">
        <ele>379.89117431641</ele>
        <time>2014-12-17T13:52:03Z</time>
      </trkpt>
      <trkpt lat="43.45004" lon="6.05416">
        <ele>380.00454711914</ele>
        <time>2014-12-17T13:52:07Z</time>
      </trkpt>
      <trkpt lat="43.45015" lon="6.05398">
        <ele>382.8486328125</ele>
        <time>2014-12-17T13:52:12Z</time>
      </trkpt>
      <trkpt lat="43.45021" lon="6.05385">
        <ele>384.81372070312</ele>
        <time>2014-12-17T13:52:16Z</time>
      </trkpt>
      <trkpt lat="43.45034" lon="6.05377">
        <ele>385.06817626953</ele>
        <time>2014-12-17T13:52:20Z</time>
      </trkpt>
      <trkpt lat="43.45037" lon="6.05374">
        <ele>385.328125</ele>
        <time>2014-12-17T13:52:21Z</time>
      </trkpt>
      <trkpt lat="43.45049" lon="6.05371">
        <ele>384.71780395508</ele>
        <time>2014-12-17T13:52:24Z</time>
      </trkpt>
      <trkpt lat="43.45058" lon="6.05363">
        <ele>384.7844543457</ele>
        <time>2014-12-17T13:52:27Z</time>
      </trkpt>
      <trkpt lat="43.45061" lon="6.05361">
        <ele>384.73120117188</ele>
        <time>2014-12-17T13:52:28Z</time>
      </trkpt>
      <trkpt lat="43.45072" lon="6.05349">
        <ele>384.86929321289</ele>
        <time>2014-12-17T13:52:32Z</time>
      </trkpt>
      <trkpt lat="43.45074" lon="6.05346">
        <ele>384.96307373047</ele>
        <time>2014-12-17T13:52:33Z</time>
      </trkpt>
      <trkpt lat="43.45078" lon="6.0534">
        <ele>385.13488769531</ele>
        <time>2014-12-17T13:52:35Z</time>
      </trkpt>
      <trkpt lat="43.4508" lon="6.05334">
        <ele>385.42727661133</ele>
        <time>2014-12-17T13:52:38Z</time>
      </trkpt>
      <trkpt lat="43.45085" lon="6.05325">
        <ele>385.61242675781</ele>
        <time>2014-12-17T13:52:42Z</time>
      </trkpt>
      <trkpt lat="43.45087" lon="6.05322">
        <ele>385.41723632812</ele>
        <time>2014-12-17T13:52:43Z</time>
      </trkpt>
      <trkpt lat="43.45089" lon="6.05322">
        <ele>385.06628417969</ele>
        <time>2014-12-17T13:52:44Z</time>
      </trkpt>
      <trkpt lat="43.45092" lon="6.05317">
        <ele>384.6950378418</ele>
        <time>2014-12-17T13:52:46Z</time>
      </trkpt>
      <trkpt lat="43.45092" lon="6.05314">
        <ele>385.0947265625</ele>
        <time>2014-12-17T13:52:47Z</time>
      </trkpt>
      <trkpt lat="43.45099" lon="6.05294">
        <ele>385.45477294922</ele>
        <time>2014-12-17T13:52:52Z</time>
      </trkpt>
      <trkpt lat="43.45102" lon="6.05289">
        <ele>385.3098449707</ele>
        <time>2014-12-17T13:52:53Z</time>
      </trkpt>
      <trkpt lat="43.45105" lon="6.05279">
        <ele>385.65231323242</ele>
        <time>2014-12-17T13:52:55Z</time>
      </trkpt>
      <trkpt lat="43.45111" lon="6.05265">
        <ele>385.38360595703</ele>
        <time>2014-12-17T13:52:58Z</time>
      </trkpt>
      <trkpt lat="43.45118" lon="6.05255">
        <ele>384.38552856445</ele>
        <time>2014-12-17T13:53:01Z</time>
      </trkpt>
      <trkpt lat="43.45119" lon="6.05251">
        <ele>384.23388671875</ele>
        <time>2014-12-17T13:53:02Z</time>
      </trkpt>
      <trkpt lat="43.45128" lon="6.05239">
        <ele>382.80807495117</ele>
        <time>2014-12-17T13:53:05Z</time>
      </trkpt>
      <trkpt lat="43.45129" lon="6.05236">
        <ele>382.83569335938</ele>
        <time>2014-12-17T13:53:06Z</time>
      </trkpt>
      <trkpt lat="43.45129" lon="6.05229">
        <ele>383.50595092773</ele>
        <time>2014-12-17T13:53:08Z</time>
      </trkpt>
      <trkpt lat="43.45132" lon="6.0522">
        <ele>383.68978881836</ele>
        <time>2014-12-17T13:53:10Z</time>
      </trkpt>
      <trkpt lat="43.45135" lon="6.05214">
        <ele>383.29797363281</ele>
        <time>2014-12-17T13:53:12Z</time>
      </trkpt>
      <trkpt lat="43.45144" lon="6.05206">
        <ele>381.11657714844</ele>
        <time>2014-12-17T13:53:14Z</time>
      </trkpt>
      <trkpt lat="43.45153" lon="6.05196">
        <ele>379.37219238281</ele>
        <time>2014-12-17T13:53:16Z</time>
      </trkpt>
      <trkpt lat="43.45159" lon="6.05184">
        <ele>378.74859619141</ele>
        <time>2014-12-17T13:53:18Z</time>
      </trkpt>
      <trkpt lat="43.45161" lon="6.05178">
        <ele>378.82369995117</ele>
        <time>2014-12-17T13:53:19Z</time>
      </trkpt>
      <trkpt lat="43.45162" lon="6.05164">
        <ele>379.73275756836</ele>
        <time>2014-12-17T13:53:21Z</time>
      </trkpt>
      <trkpt lat="43.45164" lon="6.05158">
        <ele>379.71401977539</ele>
        <time>2014-12-17T13:53:22Z</time>
      </trkpt>
      <trkpt lat="43.45173" lon="6.05138">
        <ele>378.94827270508</ele>
        <time>2014-12-17T13:53:26Z</time>
      </trkpt>
      <trkpt lat="43.45182" lon="6.0511">
        <ele>378.55041503906</ele>
        <time>2014-12-17T13:53:31Z</time>
      </trkpt>
      <trkpt lat="43.45189" lon="6.05092">
        <ele>377.8825378418</ele>
        <time>2014-12-17T13:53:34Z</time>
      </trkpt>
      <trkpt lat="43.45192" lon="6.05081">
        <ele>377.71392822266</ele>
        <time>2014-12-17T13:53:36Z</time>
      </trkpt>
      <trkpt lat="43.45195" lon="6.05048">
        <ele>379.03823852539</ele>
        <time>2014-12-17T13:53:41Z</time>
      </trkpt>
      <trkpt lat="43.45195" lon="6.05027">
        <ele>380.77432250977</ele>
        <time>2014-12-17T13:53:46Z</time>
      </trkpt>
      <trkpt lat="43.45195" lon="6.05018">
        <ele>381.55340576172</ele>
        <time>2014-12-17T13:53:48Z</time>
      </trkpt>
      <trkpt lat="43.45194" lon="6.05008">
        <ele>382.43801879883</ele>
        <time>2014-12-17T13:53:51Z</time>
      </trkpt>
      <trkpt lat="43.45196" lon="6.04993">
        <ele>382.99481201172</ele>
        <time>2014-12-17T13:53:55Z</time>
      </trkpt>
      <trkpt lat="43.45198" lon="6.04986">
        <ele>382.52191162109</ele>
        <time>2014-12-17T13:53:57Z</time>
      </trkpt>
      <trkpt lat="43.45207" lon="6.04964">
        <ele>380.94213867188</ele>
        <time>2014-12-17T13:54:02Z</time>
      </trkpt>
      <trkpt lat="43.45214" lon="6.04939">
        <ele>380.08715820312</ele>
        <time>2014-12-17T13:54:07Z</time>
      </trkpt>
      <trkpt lat="43.45222" lon="6.04915">
        <ele>378.66485595703</ele>
        <time>2014-12-17T13:54:12Z</time>
      </trkpt>
      <trkpt lat="43.45221" lon="6.0491">
        <ele>379.63037109375</ele>
        <time>2014-12-17T13:54:13Z</time>
      </trkpt>
      <trkpt lat="43.45224" lon="6.04903">
        <ele>378.75994873047</ele>
        <time>2014-12-17T13:54:15Z</time>
      </trkpt>
      <trkpt lat="43.45227" lon="6.04895">
        <ele>378.34777832031</ele>
        <time>2014-12-17T13:54:17Z</time>
      </trkpt>
      <trkpt lat="43.45227" lon="6.04892">
        <ele>378.80261230469</ele>
        <time>2014-12-17T13:54:18Z</time>
      </trkpt>
      <trkpt lat="43.45228" lon="6.04888">
        <ele>378.72918701172</ele>
        <time>2014-12-17T13:54:19Z</time>
      </trkpt>
      <trkpt lat="43.45231" lon="6.04877">
        <ele>378.35702514648</ele>
        <time>2014-12-17T13:54:23Z</time>
      </trkpt>
      <trkpt lat="43.45236" lon="6.04858">
        <ele>378.28973388672</ele>
        <time>2014-12-17T13:54:30Z</time>
      </trkpt>
      <trkpt lat="43.45243" lon="6.04841">
        <ele>376.97927856445</ele>
        <time>2014-12-17T13:54:36Z</time>
      </trkpt>
      <trkpt lat="43.45245" lon="6.04833">
        <ele>377.0129699707</ele>
        <time>2014-12-17T13:54:39Z</time>
      </trkpt>
      <trkpt lat="43.45248" lon="6.04824">
        <ele>376.44247436523</ele>
        <time>2014-12-17T13:54:43Z</time>
      </trkpt>
      <trkpt lat="43.45253" lon="6.04807">
        <ele>377.42282104492</ele>
        <time>2014-12-17T13:54:49Z</time>
      </trkpt>
      <trkpt lat="43.45255" lon="6.04794">
        <ele>378.5774230957</ele>
        <time>2014-12-17T13:54:53Z</time>
      </trkpt>
      <trkpt lat="43.45256" lon="6.04787">
        <ele>379.13034057617</ele>
        <time>2014-12-17T13:54:55Z</time>
      </trkpt>
      <trkpt lat="43.45258" lon="6.04772">
        <ele>380.33111572266</ele>
        <time>2014-12-17T13:55:00Z</time>
      </trkpt>
      <trkpt lat="43.4526" lon="6.04761">
        <ele>381.20086669922</ele>
        <time>2014-12-17T13:55:04Z</time>
      </trkpt>
      <trkpt lat="43.45261" lon="6.04748">
        <ele>382.11926269531</ele>
        <time>2014-12-17T13:55:08Z</time>
      </trkpt>
      <trkpt lat="43.45264" lon="6.04736">
        <ele>383.02825927734</ele>
        <time>2014-12-17T13:55:12Z</time>
      </trkpt>
      <trkpt lat="43.45265" lon="6.04727">
        <ele>383.64901733398</ele>
        <time>2014-12-17T13:55:15Z</time>
      </trkpt>
      <trkpt lat="43.45268" lon="6.04712">
        <ele>384.62759399414</ele>
        <time>2014-12-17T13:55:21Z</time>
      </trkpt>
      <trkpt lat="43.45268" lon="6.04698">
        <ele>385.57476806641</ele>
        <time>2014-12-17T13:55:27Z</time>
      </trkpt>
      <trkpt lat="43.4527" lon="6.0469">
        <ele>386.01303100586</ele>
        <time>2014-12-17T13:55:30Z</time>
      </trkpt>
      <trkpt lat="43.45274" lon="6.04681">
        <ele>386.40689086914</ele>
        <time>2014-12-17T13:55:34Z</time>
      </trkpt>
      <trkpt lat="43.45278" lon="6.04667">
        <ele>386.95388793945</ele>
        <time>2014-12-17T13:55:40Z</time>
      </trkpt>
      <trkpt lat="43.45279" lon="6.04665">
        <ele>387.04733276367</ele>
        <time>2014-12-17T13:55:41Z</time>
      </trkpt>
      <trkpt lat="43.4528" lon="6.04652">
        <ele>387.73532104492</ele>
        <time>2014-12-17T13:55:46Z</time>
      </trkpt>
      <trkpt lat="43.4528" lon="6.0465">
        <ele>387.86920166016</ele>
        <time>2014-12-17T13:55:47Z</time>
      </trkpt>
      <trkpt lat="43.45284" lon="6.04636">
        <ele>388.45623779297</ele>
        <time>2014-12-17T13:55:53Z</time>
      </trkpt>
      <trkpt lat="43.45285" lon="6.0463">
        <ele>388.66149902344</ele>
        <time>2014-12-17T13:55:56Z</time>
      </trkpt>
      <trkpt lat="43.45287" lon="6.04624">
        <ele>388.79049682617</ele>
        <time>2014-12-17T13:55:59Z</time>
      </trkpt>
      <trkpt lat="43.45288" lon="6.0462">
        <ele>388.92544555664</ele>
        <time>2014-12-17T13:56:01Z</time>
      </trkpt>
      <trkpt lat="43.45288" lon="6.04608">
        <ele>389.57052612305</ele>
        <time>2014-12-17T13:56:06Z</time>
      </trkpt>
      <trkpt lat="43.45289" lon="6.04604">
        <ele>389.73721313477</ele>
        <time>2014-12-17T13:56:08Z</time>
      </trkpt>
      <trkpt lat="43.4529" lon="6.04596">
        <ele>389.97760009766</ele>
        <time>2014-12-17T13:56:11Z</time>
      </trkpt>
      <trkpt lat="43.45291" lon="6.04592">
        <ele>390.15878295898</ele>
        <time>2014-12-17T13:56:13Z</time>
      </trkpt>
      <trkpt lat="43.45292" lon="6.04586">
        <ele>390.32113647461</ele>
        <time>2014-12-17T13:56:16Z</time>
      </trkpt>
      <trkpt lat="43.45295" lon="6.0457">
        <ele>390.89044189453</ele>
        <time>2014-12-17T13:56:23Z</time>
      </trkpt>
      <trkpt lat="43.45295" lon="6.04568">
        <ele>390.93041992188</ele>
        <time>2014-12-17T13:56:24Z</time>
      </trkpt>
      <trkpt lat="43.45296" lon="6.04561">
        <ele>391.11828613281</ele>
        <time>2014-12-17T13:56:29Z</time>
      </trkpt>
      <trkpt lat="43.45297" lon="6.04557">
        <ele>391.29934692383</ele>
        <time>2014-12-17T13:56:31Z</time>
      </trkpt>
      <trkpt lat="43.45302" lon="6.04545">
        <ele>391.04748535156</ele>
        <time>2014-12-17T13:56:36Z</time>
      </trkpt>
      <trkpt lat="43.45306" lon="6.04533">
        <ele>390.84561157227</ele>
        <time>2014-12-17T13:56:40Z</time>
      </trkpt>
      <trkpt lat="43.45307" lon="6.0453">
        <ele>390.77261352539</ele>
        <time>2014-12-17T13:56:41Z</time>
      </trkpt>
      <trkpt lat="43.45313" lon="6.04521">
        <ele>389.98056030273</ele>
        <time>2014-12-17T13:56:45Z</time>
      </trkpt>
      <trkpt lat="43.45314" lon="6.04518">
        <ele>389.75723266602</ele>
        <time>2014-12-17T13:56:46Z</time>
      </trkpt>
      <trkpt lat="43.45321" lon="6.04495">
        <ele>389.19515991211</ele>
        <time>2014-12-17T13:56:55Z</time>
      </trkpt>
      <trkpt lat="43.45321" lon="6.0449">
        <ele>389.53518676758</ele>
        <time>2014-12-17T13:56:57Z</time>
      </trkpt>
      <trkpt lat="43.45322" lon="6.0448">
        <ele>389.92443847656</ele>
        <time>2014-12-17T13:57:02Z</time>
      </trkpt>
      <trkpt lat="43.45321" lon="6.04474">
        <ele>390.44009399414</ele>
        <time>2014-12-17T13:57:05Z</time>
      </trkpt>
      <trkpt lat="43.45322" lon="6.04465">
        <ele>390.71252441406</ele>
        <time>2014-12-17T13:57:09Z</time>
      </trkpt>
      <trkpt lat="43.45322" lon="6.04461">
        <ele>390.81341552734</ele>
        <time>2014-12-17T13:57:11Z</time>
      </trkpt>
      <trkpt lat="43.45323" lon="6.04452">
        <ele>391.12899780273</ele>
        <time>2014-12-17T13:57:16Z</time>
      </trkpt>
      <trkpt lat="43.45324" lon="6.0444">
        <ele>391.47714233398</ele>
        <time>2014-12-17T13:57:22Z</time>
      </trkpt>
      <trkpt lat="43.45325" lon="6.04436">
        <ele>391.25323486328</ele>
        <time>2014-12-17T13:57:24Z</time>
      </trkpt>
      <trkpt lat="43.45329" lon="6.04425">
        <ele>390.8762512207</ele>
        <time>2014-12-17T13:57:30Z</time>
      </trkpt>
      <trkpt lat="43.4533" lon="6.04423">
        <ele>390.76275634766</ele>
        <time>2014-12-17T13:57:31Z</time>
      </trkpt>
      <trkpt lat="43.45332" lon="6.04416">
        <ele>390.30166625977</ele>
        <time>2014-12-17T13:57:38Z</time>
      </trkpt>
      <trkpt lat="43.45332" lon="6.04416">
        <ele>390.41659545898</ele>
        <time>2014-12-17T13:57:52Z</time>
      </trkpt>
      <trkpt lat="43.45332" lon="6.04416">
        <ele>390.41659545898</ele>
        <time>2014-12-17T13:57:58Z</time>
      </trkpt>
      <trkpt lat="43.45332" lon="6.04416">
        <ele>390.41781616211</ele>
        <time>2014-12-17T13:58:19Z</time>
      </trkpt>
      <trkpt lat="43.45333" lon="6.04416">
        <ele>390.19039916992</ele>
        <time>2014-12-17T13:58:44Z</time>
      </trkpt>
      <trkpt lat="43.45333" lon="6.04416">
        <ele>390.07455444336</ele>
        <time>2014-12-17T13:58:56Z</time>
      </trkpt>
      <trkpt lat="43.45333" lon="6.04416">
        <ele>390.04406738281</ele>
        <time>2014-12-17T13:59:02Z</time>
      </trkpt>
      <trkpt lat="43.45333" lon="6.04416">
        <ele>390.07803344727</ele>
        <time>2014-12-17T14:00:02Z</time>
      </trkpt>
      <trkpt lat="43.45334" lon="6.04415">
        <ele>390.25082397461</ele>
        <time>2014-12-17T14:00:16Z</time>
      </trkpt>
      <trkpt lat="43.45334" lon="6.04411">
        <ele>390.24673461914</ele>
        <time>2014-12-17T14:00:17Z</time>
      </trkpt>
      <trkpt lat="43.45336" lon="6.04399">
        <ele>390.98733520508</ele>
        <time>2014-12-17T14:00:20Z</time>
      </trkpt>
      <trkpt lat="43.45338" lon="6.04389">
        <ele>391.60983276367</ele>
        <time>2014-12-17T14:00:22Z</time>
      </trkpt>
      <trkpt lat="43.4534" lon="6.0437">
        <ele>392.14099121094</ele>
        <time>2014-12-17T14:00:25Z</time>
      </trkpt>
      <trkpt lat="43.45341" lon="6.04344">
        <ele>392.66784667969</ele>
        <time>2014-12-17T14:00:29Z</time>
      </trkpt>
      <trkpt lat="43.45343" lon="6.04338">
        <ele>392.89276123047</ele>
        <time>2014-12-17T14:00:30Z</time>
      </trkpt>
      <trkpt lat="43.4535" lon="6.04314">
        <ele>393.50122070312</ele>
        <time>2014-12-17T14:00:33Z</time>
      </trkpt>
      <trkpt lat="43.45355" lon="6.04298">
        <ele>393.61190795898</ele>
        <time>2014-12-17T14:00:35Z</time>
      </trkpt>
      <trkpt lat="43.4536" lon="6.04281">
        <ele>393.40328979492</ele>
        <time>2014-12-17T14:00:37Z</time>
      </trkpt>
      <trkpt lat="43.45366" lon="6.04264">
        <ele>392.90151977539</ele>
        <time>2014-12-17T14:00:39Z</time>
      </trkpt>
      <trkpt lat="43.45371" lon="6.04246">
        <ele>391.99887084961</ele>
        <time>2014-12-17T14:00:41Z</time>
      </trkpt>
      <trkpt lat="43.45378" lon="6.04221">
        <ele>390.41616821289</ele>
        <time>2014-12-17T14:00:44Z</time>
      </trkpt>
      <trkpt lat="43.4538" lon="6.04213">
        <ele>389.77944946289</ele>
        <time>2014-12-17T14:00:45Z</time>
      </trkpt>
      <trkpt lat="43.45383" lon="6.04196">
        <ele>388.65576171875</ele>
        <time>2014-12-17T14:00:47Z</time>
      </trkpt>
      <trkpt lat="43.4538" lon="6.04188">
        <ele>388.49111938477</ele>
        <time>2014-12-17T14:00:48Z</time>
      </trkpt>
      <trkpt lat="43.45379" lon="6.04179">
        <ele>388.18295288086</ele>
        <time>2014-12-17T14:00:49Z</time>
      </trkpt>
      <trkpt lat="43.45377" lon="6.0417">
        <ele>387.86990356445</ele>
        <time>2014-12-17T14:00:50Z</time>
      </trkpt>
      <trkpt lat="43.45377" lon="6.04157">
        <ele>387.0578918457</ele>
        <time>2014-12-17T14:00:51Z</time>
      </trkpt>
      <trkpt lat="43.45377" lon="6.04145">
        <ele>386.09393310547</ele>
        <time>2014-12-17T14:00:52Z</time>
      </trkpt>
      <trkpt lat="43.45375" lon="6.04131">
        <ele>385.20910644531</ele>
        <time>2014-12-17T14:00:53Z</time>
      </trkpt>
      <trkpt lat="43.45374" lon="6.04118">
        <ele>384.3127746582</ele>
        <time>2014-12-17T14:00:54Z</time>
      </trkpt>
      <trkpt lat="43.45371" lon="6.04106">
        <ele>383.51501464844</ele>
        <time>2014-12-17T14:00:55Z</time>
      </trkpt>
      <trkpt lat="43.45369" lon="6.04096">
        <ele>382.77069091797</ele>
        <time>2014-12-17T14:00:56Z</time>
      </trkpt>
      <trkpt lat="43.45369" lon="6.04086">
        <ele>381.96441650391</ele>
        <time>2014-12-17T14:00:57Z</time>
      </trkpt>
      <trkpt lat="43.4537" lon="6.04078">
        <ele>381.57781982422</ele>
        <time>2014-12-17T14:00:58Z</time>
      </trkpt>
      <trkpt lat="43.45369" lon="6.04069">
        <ele>381.4294128418</ele>
        <time>2014-12-17T14:01:00Z</time>
      </trkpt>
      <trkpt lat="43.45364" lon="6.04055">
        <ele>381.27081298828</ele>
        <time>2014-12-17T14:01:03Z</time>
      </trkpt>
      <trkpt lat="43.45364" lon="6.04051">
        <ele>381.16046142578</ele>
        <time>2014-12-17T14:01:04Z</time>
      </trkpt>
      <trkpt lat="43.4537" lon="6.0404">
        <ele>380.81225585938</ele>
        <time>2014-12-17T14:01:07Z</time>
      </trkpt>
      <trkpt lat="43.45378" lon="6.04031">
        <ele>380.5129699707</ele>
        <time>2014-12-17T14:01:12Z</time>
      </trkpt>
      <trkpt lat="43.45385" lon="6.04027">
        <ele>380.37005615234</ele>
        <time>2014-12-17T14:01:17Z</time>
      </trkpt>
      <trkpt lat="43.4539" lon="6.04026">
        <ele>380.30499267578</ele>
        <time>2014-12-17T14:01:21Z</time>
      </trkpt>
      <trkpt lat="43.45392" lon="6.04025">
        <ele>380.26379394531</ele>
        <time>2014-12-17T14:01:23Z</time>
      </trkpt>
      <trkpt lat="43.45395" lon="6.04023">
        <ele>380.21057128906</ele>
        <time>2014-12-17T14:01:26Z</time>
      </trkpt>
      <trkpt lat="43.45395" lon="6.04023">
        <ele>380.2194519043</ele>
        <time>2014-12-17T14:01:28Z</time>
      </trkpt>
      <trkpt lat="43.45395" lon="6.04023">
        <ele>380.21716308594</ele>
        <time>2014-12-17T14:01:30Z</time>
      </trkpt>
      <trkpt lat="43.45394" lon="6.04022">
        <ele>380.2102355957</ele>
        <time>2014-12-17T14:01:36Z</time>
      </trkpt>
      <trkpt lat="43.45388" lon="6.04024">
        <ele>380.29312133789</ele>
        <time>2014-12-17T14:01:44Z</time>
      </trkpt>
      <trkpt lat="43.45386" lon="6.04025">
        <ele>380.33758544922</ele>
        <time>2014-12-17T14:01:48Z</time>
      </trkpt>
      <trkpt lat="43.45386" lon="6.04025">
        <ele>380.33758544922</ele>
        <time>2014-12-17T14:01:51Z</time>
      </trkpt>
      <trkpt lat="43.45384" lon="6.04027">
        <ele>380.38882446289</ele>
        <time>2014-12-17T14:02:07Z</time>
      </trkpt>
      <trkpt lat="43.45384" lon="6.04027">
        <ele>380.38497924805</ele>
        <time>2014-12-17T14:02:21Z</time>
      </trkpt>
      <trkpt lat="43.45386" lon="6.04027">
        <ele>380.35986328125</ele>
        <time>2014-12-17T14:02:25Z</time>
      </trkpt>
      <trkpt lat="43.4539" lon="6.04025">
        <ele>380.28680419922</ele>
        <time>2014-12-17T14:02:28Z</time>
      </trkpt>
      <trkpt lat="43.45395" lon="6.04025">
        <ele>380.23037719727</ele>
        <time>2014-12-17T14:02:31Z</time>
      </trkpt>
      <trkpt lat="43.45396" lon="6.04025">
        <ele>380.22583007812</ele>
        <time>2014-12-17T14:02:32Z</time>
      </trkpt>
      <trkpt lat="43.45395" lon="6.04025">
        <ele>380.22817993164</ele>
        <time>2014-12-17T14:02:35Z</time>
      </trkpt>
      <trkpt lat="43.45395" lon="6.04024">
        <ele>380.22552490234</ele>
        <time>2014-12-17T14:02:37Z</time>
      </trkpt>
      <trkpt lat="43.45395" lon="6.04023">
        <ele>380.21533203125</ele>
        <time>2014-12-17T14:02:45Z</time>
      </trkpt>
      <trkpt lat="43.45391" lon="6.04023">
        <ele>380.25817871094</ele>
        <time>2014-12-17T14:02:52Z</time>
      </trkpt>
      <trkpt lat="43.45386" lon="6.04024">
        <ele>380.3151550293</ele>
        <time>2014-12-17T14:02:58Z</time>
      </trkpt>
      <trkpt lat="43.45385" lon="6.04024">
        <ele>380.33013916016</ele>
        <time>2014-12-17T14:02:59Z</time>
      </trkpt>
      <trkpt lat="43.45385" lon="6.04026">
        <ele>380.35308837891</ele>
        <time>2014-12-17T14:03:00Z</time>
      </trkpt>
      <trkpt lat="43.45385" lon="6.04027">
        <ele>380.36352539062</ele>
        <time>2014-12-17T14:03:03Z</time>
      </trkpt>
      <trkpt lat="43.45384" lon="6.04029">
        <ele>380.40573120117</ele>
        <time>2014-12-17T14:03:11Z</time>
      </trkpt>
      <trkpt lat="43.45385" lon="6.04029">
        <ele>380.39828491211</ele>
        <time>2014-12-17T14:03:21Z</time>
      </trkpt>
      <trkpt lat="43.45386" lon="6.04028">
        <ele>380.36737060547</ele>
        <time>2014-12-17T14:03:23Z</time>
      </trkpt>
      <trkpt lat="43.45394" lon="6.04025">
        <ele>380.24642944336</ele>
        <time>2014-12-17T14:03:28Z</time>
      </trkpt>
      <trkpt lat="43.45395" lon="6.04025">
        <ele>380.23181152344</ele>
        <time>2014-12-17T14:03:29Z</time>
      </trkpt>
      <trkpt lat="43.45396" lon="6.04023">
        <ele>380.21157836914</ele>
        <time>2014-12-17T14:03:32Z</time>
      </trkpt>
      <trkpt lat="43.45396" lon="6.04023">
        <ele>380.20983886719</ele>
        <time>2014-12-17T14:03:35Z</time>
      </trkpt>
      <trkpt lat="43.45397" lon="6.04023">
        <ele>380.19552612305</ele>
        <time>2014-12-17T14:03:39Z</time>
      </trkpt>
      <trkpt lat="43.45399" lon="6.04023">
        <ele>380.16818237305</ele>
        <time>2014-12-17T14:03:44Z</time>
      </trkpt>
      <trkpt lat="43.45401" lon="6.04022">
        <ele>380.1506652832</ele>
        <time>2014-12-17T14:03:46Z</time>
      </trkpt>
      <trkpt lat="43.45404" lon="6.0402">
        <ele>380.10455322266</ele>
        <time>2014-12-17T14:03:52Z</time>
      </trkpt>
      <trkpt lat="43.45405" lon="6.04019">
        <ele>380.09909057617</ele>
        <time>2014-12-17T14:03:53Z</time>
      </trkpt>
      <trkpt lat="43.45409" lon="6.04017">
        <ele>380.05661010742</ele>
        <time>2014-12-17T14:04:00Z</time>
      </trkpt>
      <trkpt lat="43.4541" lon="6.04016">
        <ele>380.04867553711</ele>
        <time>2014-12-17T14:04:02Z</time>
      </trkpt>
      <trkpt lat="43.45412" lon="6.04013">
        <ele>380.02459716797</ele>
        <time>2014-12-17T14:04:09Z</time>
      </trkpt>
      <trkpt lat="43.45414" lon="6.04011">
        <ele>380.01519775391</ele>
        <time>2014-12-17T14:04:15Z</time>
      </trkpt>
      <trkpt lat="43.45414" lon="6.04011">
        <ele>380.01260375977</ele>
        <time>2014-12-17T14:04:20Z</time>
      </trkpt>
      <trkpt lat="43.45415" lon="6.0401">
        <ele>380.00842285156</ele>
        <time>2014-12-17T14:04:24Z</time>
      </trkpt>
      <trkpt lat="43.45415" lon="6.0401">
        <ele>380.00820922852</ele>
        <time>2014-12-17T14:04:30Z</time>
      </trkpt>
      <trkpt lat="43.45415" lon="6.0401">
        <ele>380.00643920898</ele>
        <time>2014-12-17T14:04:38Z</time>
      </trkpt>
      <trkpt lat="43.45416" lon="6.04007">
        <ele>380.00122070312</ele>
        <time>2014-12-17T14:04:47Z</time>
      </trkpt>
      <trkpt lat="43.45417" lon="6.04006">
        <ele>380.04144287109</ele>
        <time>2014-12-17T14:04:48Z</time>
      </trkpt>
      <trkpt lat="43.4542" lon="6.04003">
        <ele>380.38299560547</ele>
        <time>2014-12-17T14:04:51Z</time>
      </trkpt>
      <trkpt lat="43.45425" lon="6.03996">
        <ele>381.0891418457</ele>
        <time>2014-12-17T14:04:57Z</time>
      </trkpt>
      <trkpt lat="43.45432" lon="6.03985">
        <ele>382.47634887695</ele>
        <time>2014-12-17T14:05:06Z</time>
      </trkpt>
      <trkpt lat="43.45435" lon="6.03981">
        <ele>382.98696899414</ele>
        <time>2014-12-17T14:05:10Z</time>
      </trkpt>
      <trkpt lat="43.4544" lon="6.03973">
        <ele>383.8908996582</ele>
        <time>2014-12-17T14:05:17Z</time>
      </trkpt>
      <trkpt lat="43.45441" lon="6.03972">
        <ele>383.98208618164</ele>
        <time>2014-12-17T14:05:18Z</time>
      </trkpt>
      <trkpt lat="43.45446" lon="6.03959">
        <ele>385.10806274414</ele>
        <time>2014-12-17T14:05:27Z</time>
      </trkpt>
      <trkpt lat="43.45451" lon="6.03948">
        <ele>386.06683349609</ele>
        <time>2014-12-17T14:05:31Z</time>
      </trkpt>
      <trkpt lat="43.45455" lon="6.0394">
        <ele>386.77642822266</ele>
        <time>2014-12-17T14:05:33Z</time>
      </trkpt>
      <trkpt lat="43.4546" lon="6.0393">
        <ele>387.56008911133</ele>
        <time>2014-12-17T14:05:37Z</time>
      </trkpt>
      <trkpt lat="43.45464" lon="6.03925">
        <ele>388.0305480957</ele>
        <time>2014-12-17T14:05:40Z</time>
      </trkpt>
      <trkpt lat="43.45467" lon="6.03921">
        <ele>388.48846435547</ele>
        <time>2014-12-17T14:05:43Z</time>
      </trkpt>
      <trkpt lat="43.45471" lon="6.03919">
        <ele>388.82925415039</ele>
        <time>2014-12-17T14:05:49Z</time>
      </trkpt>
      <trkpt lat="43.45471" lon="6.03919">
        <ele>388.83447265625</ele>
        <time>2014-12-17T14:05:52Z</time>
      </trkpt>
      <trkpt lat="43.45472" lon="6.03919">
        <ele>388.87271118164</ele>
        <time>2014-12-17T14:06:16Z</time>
      </trkpt>
      <trkpt lat="43.45472" lon="6.03919">
        <ele>388.87619018555</ele>
        <time>2014-12-17T14:06:25Z</time>
      </trkpt>
      <trkpt lat="43.45472" lon="6.03919">
        <ele>388.91088867188</ele>
        <time>2014-12-17T14:06:35Z</time>
      </trkpt>
      <trkpt lat="43.45472" lon="6.03918">
        <ele>388.88830566406</ele>
        <time>2014-12-17T14:06:44Z</time>
      </trkpt>
      <trkpt lat="43.45472" lon="6.03918">
        <ele>388.89001464844</ele>
        <time>2014-12-17T14:06:47Z</time>
      </trkpt>
      <trkpt lat="43.45472" lon="6.03918">
        <ele>388.900390625</ele>
        <time>2014-12-17T14:07:34Z</time>
      </trkpt>
      <trkpt lat="43.45473" lon="6.03916">
        <ele>389.13250732422</ele>
        <time>2014-12-17T14:08:00Z</time>
      </trkpt>
      <trkpt lat="43.4548" lon="6.03901">
        <ele>391.68963623047</ele>
        <time>2014-12-17T14:08:06Z</time>
      </trkpt>
      <trkpt lat="43.45484" lon="6.03889">
        <ele>393.36389160156</ele>
        <time>2014-12-17T14:08:11Z</time>
      </trkpt>
      <trkpt lat="43.45487" lon="6.03883">
        <ele>394.23849487305</ele>
        <time>2014-12-17T14:08:14Z</time>
      </trkpt>
      <trkpt lat="43.4549" lon="6.03873">
        <ele>395.31884765625</ele>
        <time>2014-12-17T14:08:18Z</time>
      </trkpt>
      <trkpt lat="43.45494" lon="6.03857">
        <ele>396.970703125</ele>
        <time>2014-12-17T14:08:24Z</time>
      </trkpt>
      <trkpt lat="43.45496" lon="6.03834">
        <ele>399.3210144043</ele>
        <time>2014-12-17T14:08:30Z</time>
      </trkpt>
      <trkpt lat="43.45497" lon="6.03816">
        <ele>400.58538818359</ele>
        <time>2014-12-17T14:08:36Z</time>
      </trkpt>
      <trkpt lat="43.45505" lon="6.03801">
        <ele>401.51406860352</ele>
        <time>2014-12-17T14:08:42Z</time>
      </trkpt>
      <trkpt lat="43.4551" lon="6.0379">
        <ele>402.29174804688</ele>
        <time>2014-12-17T14:08:47Z</time>
      </trkpt>
      <trkpt lat="43.45512" lon="6.03788">
        <ele>402.43090820312</ele>
        <time>2014-12-17T14:08:48Z</time>
      </trkpt>
      <trkpt lat="43.45516" lon="6.03771">
        <ele>403.24612426758</ele>
        <time>2014-12-17T14:08:55Z</time>
      </trkpt>
      <trkpt lat="43.4552" lon="6.0376">
        <ele>403.63073730469</ele>
        <time>2014-12-17T14:09:00Z</time>
      </trkpt>
      <trkpt lat="43.45521" lon="6.03756">
        <ele>403.75149536133</ele>
        <time>2014-12-17T14:09:02Z</time>
      </trkpt>
      <trkpt lat="43.45524" lon="6.03748">
        <ele>403.96835327148</ele>
        <time>2014-12-17T14:09:06Z</time>
      </trkpt>
      <trkpt lat="43.45529" lon="6.03739">
        <ele>404.26766967773</ele>
        <time>2014-12-17T14:09:11Z</time>
      </trkpt>
      <trkpt lat="43.45537" lon="6.03725">
        <ele>404.43060302734</ele>
        <time>2014-12-17T14:09:19Z</time>
      </trkpt>
      <trkpt lat="43.45538" lon="6.03723">
        <ele>404.46258544922</ele>
        <time>2014-12-17T14:09:20Z</time>
      </trkpt>
      <trkpt lat="43.45541" lon="6.03716">
        <ele>404.47946166992</ele>
        <time>2014-12-17T14:09:23Z</time>
      </trkpt>
      <trkpt lat="43.45546" lon="6.03705">
        <ele>404.45913696289</ele>
        <time>2014-12-17T14:09:28Z</time>
      </trkpt>
      <trkpt lat="43.45549" lon="6.0369">
        <ele>404.53756713867</ele>
        <time>2014-12-17T14:09:34Z</time>
      </trkpt>
      <trkpt lat="43.45551" lon="6.03674">
        <ele>404.84573364258</ele>
        <time>2014-12-17T14:09:40Z</time>
      </trkpt>
      <trkpt lat="43.45552" lon="6.03665">
        <ele>405.00366210938</ele>
        <time>2014-12-17T14:09:43Z</time>
      </trkpt>
      <trkpt lat="43.45553" lon="6.03654">
        <ele>405.28042602539</ele>
        <time>2014-12-17T14:09:48Z</time>
      </trkpt>
      <trkpt lat="43.45555" lon="6.0365">
        <ele>405.20492553711</ele>
        <time>2014-12-17T14:09:50Z</time>
      </trkpt>
      <trkpt lat="43.4556" lon="6.0364">
        <ele>404.72543334961</ele>
        <time>2014-12-17T14:09:55Z</time>
      </trkpt>
      <trkpt lat="43.45565" lon="6.03628">
        <ele>404.22515869141</ele>
        <time>2014-12-17T14:10:01Z</time>
      </trkpt>
      <trkpt lat="43.45567" lon="6.03624">
        <ele>404.14715576172</ele>
        <time>2014-12-17T14:10:03Z</time>
      </trkpt>
      <trkpt lat="43.45569" lon="6.03615">
        <ele>404.05346679688</ele>
        <time>2014-12-17T14:10:07Z</time>
      </trkpt>
      <trkpt lat="43.4557" lon="6.03612">
        <ele>403.98178100586</ele>
        <time>2014-12-17T14:10:08Z</time>
      </trkpt>
      <trkpt lat="43.45572" lon="6.03599">
        <ele>403.89352416992</ele>
        <time>2014-12-17T14:10:13Z</time>
      </trkpt>
      <trkpt lat="43.45573" lon="6.03595">
        <ele>403.77484130859</ele>
        <time>2014-12-17T14:10:14Z</time>
      </trkpt>
      <trkpt lat="43.4558" lon="6.03582">
        <ele>402.85229492188</ele>
        <time>2014-12-17T14:10:20Z</time>
      </trkpt>
      <trkpt lat="43.45581" lon="6.03579">
        <ele>402.59814453125</ele>
        <time>2014-12-17T14:10:22Z</time>
      </trkpt>
      <trkpt lat="43.45583" lon="6.03571">
        <ele>402.28967285156</ele>
        <time>2014-12-17T14:10:26Z</time>
      </trkpt>
      <trkpt lat="43.45584" lon="6.03567">
        <ele>402.48663330078</ele>
        <time>2014-12-17T14:10:28Z</time>
      </trkpt>
      <trkpt lat="43.45585" lon="6.03563">
        <ele>402.68682861328</ele>
        <time>2014-12-17T14:10:30Z</time>
      </trkpt>
      <trkpt lat="43.45586" lon="6.03547">
        <ele>403.2067565918</ele>
        <time>2014-12-17T14:10:37Z</time>
      </trkpt>
      <trkpt lat="43.45586" lon="6.03544">
        <ele>403.25360107422</ele>
        <time>2014-12-17T14:10:38Z</time>
      </trkpt>
      <trkpt lat="43.45588" lon="6.0353">
        <ele>403.69534301758</ele>
        <time>2014-12-17T14:10:45Z</time>
      </trkpt>
      <trkpt lat="43.45589" lon="6.03529">
        <ele>403.78454589844</ele>
        <time>2014-12-17T14:10:46Z</time>
      </trkpt>
      <trkpt lat="43.45594" lon="6.03519">
        <ele>404.41418457031</ele>
        <time>2014-12-17T14:10:52Z</time>
      </trkpt>
      <trkpt lat="43.45599" lon="6.03515">
        <ele>404.78369140625</ele>
        <time>2014-12-17T14:10:55Z</time>
      </trkpt>
      <trkpt lat="43.45605" lon="6.0351">
        <ele>405.28460693359</ele>
        <time>2014-12-17T14:10:59Z</time>
      </trkpt>
      <trkpt lat="43.45614" lon="6.03499">
        <ele>405.84805297852</ele>
        <time>2014-12-17T14:11:06Z</time>
      </trkpt>
      <trkpt lat="43.45618" lon="6.03496">
        <ele>406.0466003418</ele>
        <time>2014-12-17T14:11:09Z</time>
      </trkpt>
      <trkpt lat="43.45627" lon="6.03484">
        <ele>406.29730224609</ele>
        <time>2014-12-17T14:11:16Z</time>
      </trkpt>
      <trkpt lat="43.45629" lon="6.03481">
        <ele>406.34497070312</ele>
        <time>2014-12-17T14:11:18Z</time>
      </trkpt>
      <trkpt lat="43.45638" lon="6.03464">
        <ele>406.28826904297</ele>
        <time>2014-12-17T14:11:27Z</time>
      </trkpt>
      <trkpt lat="43.45642" lon="6.03452">
        <ele>406.07510375977</ele>
        <time>2014-12-17T14:11:35Z</time>
      </trkpt>
      <trkpt lat="43.45642" lon="6.0345">
        <ele>406.02551269531</ele>
        <time>2014-12-17T14:11:40Z</time>
      </trkpt>
      <trkpt lat="43.45642" lon="6.0345">
        <ele>406.02697753906</ele>
        <time>2014-12-17T14:11:41Z</time>
      </trkpt>
      <trkpt lat="43.45642" lon="6.0345">
        <ele>406.02987670898</ele>
        <time>2014-12-17T14:11:44Z</time>
      </trkpt>
      <trkpt lat="43.45642" lon="6.0345">
        <ele>406.03280639648</ele>
        <time>2014-12-17T14:12:24Z</time>
      </trkpt>
      <trkpt lat="43.45643" lon="6.0345">
        <ele>406.021484375</ele>
        <time>2014-12-17T14:13:14Z</time>
      </trkpt>
      <trkpt lat="43.45647" lon="6.03441">
        <ele>405.84045410156</ele>
        <time>2014-12-17T14:13:23Z</time>
      </trkpt>
      <trkpt lat="43.45657" lon="6.0342">
        <ele>405.15118408203</ele>
        <time>2014-12-17T14:13:30Z</time>
      </trkpt>
      <trkpt lat="43.4566" lon="6.03412">
        <ele>404.75091552734</ele>
        <time>2014-12-17T14:13:32Z</time>
      </trkpt>
      <trkpt lat="43.45671" lon="6.03388">
        <ele>403.97412109375</ele>
        <time>2014-12-17T14:13:37Z</time>
      </trkpt>
      <trkpt lat="43.45684" lon="6.03357">
        <ele>403.75854492188</ele>
        <time>2014-12-17T14:13:44Z</time>
      </trkpt>
      <trkpt lat="43.45686" lon="6.03347">
        <ele>403.27447509766</ele>
        <time>2014-12-17T14:13:46Z</time>
      </trkpt>
      <trkpt lat="43.45687" lon="6.03328">
        <ele>402.25576782227</ele>
        <time>2014-12-17T14:13:49Z</time>
      </trkpt>
      <trkpt lat="43.45689" lon="6.03296">
        <ele>401.04104614258</ele>
        <time>2014-12-17T14:13:54Z</time>
      </trkpt>
      <trkpt lat="43.45689" lon="6.0329">
        <ele>400.75827026367</ele>
        <time>2014-12-17T14:13:55Z</time>
      </trkpt>
      <trkpt lat="43.45687" lon="6.03271">
        <ele>399.89331054688</ele>
        <time>2014-12-17T14:13:59Z</time>
      </trkpt>
      <trkpt lat="43.45687" lon="6.03268">
        <ele>399.69091796875</ele>
        <time>2014-12-17T14:14:00Z</time>
      </trkpt>
      <trkpt lat="43.45679" lon="6.03257">
        <ele>398.85980224609</ele>
        <time>2014-12-17T14:14:03Z</time>
      </trkpt>
      <trkpt lat="43.45678" lon="6.03255">
        <ele>398.70416259766</ele>
        <time>2014-12-17T14:14:04Z</time>
      </trkpt>
      <trkpt lat="43.4567" lon="6.0325">
        <ele>398.14822387695</ele>
        <time>2014-12-17T14:14:07Z</time>
      </trkpt>
      <trkpt lat="43.45662" lon="6.03245">
        <ele>398.52322387695</ele>
        <time>2014-12-17T14:14:09Z</time>
      </trkpt>
      <trkpt lat="43.45659" lon="6.0324">
        <ele>398.82336425781</ele>
        <time>2014-12-17T14:14:10Z</time>
      </trkpt>
      <trkpt lat="43.45658" lon="6.03236">
        <ele>398.89440917969</ele>
        <time>2014-12-17T14:14:11Z</time>
      </trkpt>
      <trkpt lat="43.45659" lon="6.03231">
        <ele>398.76583862305</ele>
        <time>2014-12-17T14:14:13Z</time>
      </trkpt>
      <trkpt lat="43.45658" lon="6.03229">
        <ele>398.85531616211</ele>
        <time>2014-12-17T14:14:14Z</time>
      </trkpt>
      <trkpt lat="43.45658" lon="6.03217">
        <ele>398.83432006836</ele>
        <time>2014-12-17T14:14:18Z</time>
      </trkpt>
      <trkpt lat="43.45661" lon="6.03204">
        <ele>398.35177612305</ele>
        <time>2014-12-17T14:14:22Z</time>
      </trkpt>
      <trkpt lat="43.45662" lon="6.03194">
        <ele>398.02893066406</ele>
        <time>2014-12-17T14:14:25Z</time>
      </trkpt>
      <trkpt lat="43.4567" lon="6.03166">
        <ele>397.01766967773</ele>
        <time>2014-12-17T14:14:32Z</time>
      </trkpt>
      <trkpt lat="43.45676" lon="6.0315">
        <ele>396.63348388672</ele>
        <time>2014-12-17T14:14:36Z</time>
      </trkpt>
      <trkpt lat="43.45681" lon="6.03129">
        <ele>396.02606201172</ele>
        <time>2014-12-17T14:14:40Z</time>
      </trkpt>
      <trkpt lat="43.45697" lon="6.03094">
        <ele>394.69082641602</ele>
        <time>2014-12-17T14:14:47Z</time>
      </trkpt>
      <trkpt lat="43.45699" lon="6.03091">
        <ele>394.52450561523</ele>
        <time>2014-12-17T14:14:48Z</time>
      </trkpt>
      <trkpt lat="43.45708" lon="6.0307">
        <ele>393.04193115234</ele>
        <time>2014-12-17T14:14:53Z</time>
      </trkpt>
      <trkpt lat="43.45709" lon="6.03064">
        <ele>392.62124633789</ele>
        <time>2014-12-17T14:14:54Z</time>
      </trkpt>
      <trkpt lat="43.45713" lon="6.03049">
        <ele>391.37481689453</ele>
        <time>2014-12-17T14:14:57Z</time>
      </trkpt>
      <trkpt lat="43.4572" lon="6.03027">
        <ele>389.48010253906</ele>
        <time>2014-12-17T14:15:01Z</time>
      </trkpt>
      <trkpt lat="43.45723" lon="6.03015">
        <ele>388.47900390625</ele>
        <time>2014-12-17T14:15:03Z</time>
      </trkpt>
      <trkpt lat="43.45723" lon="6.03003">
        <ele>387.48495483398</ele>
        <time>2014-12-17T14:15:05Z</time>
      </trkpt>
      <trkpt lat="43.45723" lon="6.02996">
        <ele>386.98922729492</ele>
        <time>2014-12-17T14:15:06Z</time>
      </trkpt>
      <trkpt lat="43.45728" lon="6.02972">
        <ele>385.0517578125</ele>
        <time>2014-12-17T14:15:10Z</time>
      </trkpt>
      <trkpt lat="43.45722" lon="6.02957">
        <ele>384.22662353516</ele>
        <time>2014-12-17T14:15:13Z</time>
      </trkpt>
      <trkpt lat="43.45718" lon="6.02943">
        <ele>383.44500732422</ele>
        <time>2014-12-17T14:15:15Z</time>
      </trkpt>
      <trkpt lat="43.45717" lon="6.02935">
        <ele>382.91625976562</ele>
        <time>2014-12-17T14:15:16Z</time>
      </trkpt>
      <trkpt lat="43.45716" lon="6.02926">
        <ele>382.32116699219</ele>
        <time>2014-12-17T14:15:17Z</time>
      </trkpt>
      <trkpt lat="43.45716" lon="6.02917">
        <ele>381.70092773438</ele>
        <time>2014-12-17T14:15:18Z</time>
      </trkpt>
      <trkpt lat="43.45719" lon="6.02894">
        <ele>380.25039672852</ele>
        <time>2014-12-17T14:15:21Z</time>
      </trkpt>
      <trkpt lat="43.45719" lon="6.02887">
        <ele>379.88885498047</ele>
        <time>2014-12-17T14:15:22Z</time>
      </trkpt>
      <trkpt lat="43.45719" lon="6.02881">
        <ele>379.5478515625</ele>
        <time>2014-12-17T14:15:23Z</time>
      </trkpt>
      <trkpt lat="43.45717" lon="6.02874">
        <ele>379.23098754883</ele>
        <time>2014-12-17T14:15:24Z</time>
      </trkpt>
      <trkpt lat="43.45714" lon="6.02868">
        <ele>378.95413208008</ele>
        <time>2014-12-17T14:15:25Z</time>
      </trkpt>
      <trkpt lat="43.45712" lon="6.02862">
        <ele>378.68463134766</ele>
        <time>2014-12-17T14:15:26Z</time>
      </trkpt>
      <trkpt lat="43.45712" lon="6.02857">
        <ele>378.37240600586</ele>
        <time>2014-12-17T14:15:27Z</time>
      </trkpt>
      <trkpt lat="43.45712" lon="6.02851">
        <ele>378.04913330078</ele>
        <time>2014-12-17T14:15:28Z</time>
      </trkpt>
      <trkpt lat="43.45712" lon="6.02846">
        <ele>377.70919799805</ele>
        <time>2014-12-17T14:15:29Z</time>
      </trkpt>
      <trkpt lat="43.45711" lon="6.0284">
        <ele>377.41674804688</ele>
        <time>2014-12-17T14:15:30Z</time>
      </trkpt>
      <trkpt lat="43.45711" lon="6.02828">
        <ele>376.75708007812</ele>
        <time>2014-12-17T14:15:32Z</time>
      </trkpt>
      <trkpt lat="43.45709" lon="6.02823">
        <ele>376.50570678711</ele>
        <time>2014-12-17T14:15:34Z</time>
      </trkpt>
      <trkpt lat="43.45709" lon="6.02823">
        <ele>376.51480102539</ele>
        <time>2014-12-17T14:15:38Z</time>
      </trkpt>
      <trkpt lat="43.45708" lon="6.02823">
        <ele>376.51028442383</ele>
        <time>2014-12-17T14:15:50Z</time>
      </trkpt>
      <trkpt lat="43.45709" lon="6.02822">
        <ele>376.47384643555</ele>
        <time>2014-12-17T14:16:03Z</time>
      </trkpt>
      <trkpt lat="43.45709" lon="6.02822">
        <ele>376.46701049805</ele>
        <time>2014-12-17T14:16:07Z</time>
      </trkpt>
      <trkpt lat="43.45708" lon="6.02822">
        <ele>376.47817993164</ele>
        <time>2014-12-17T14:16:21Z</time>
      </trkpt>
      <trkpt lat="43.45708" lon="6.02822">
        <ele>376.45980834961</ele>
        <time>2014-12-17T14:16:29Z</time>
      </trkpt>
      <trkpt lat="43.45708" lon="6.02822">
        <ele>376.44833374023</ele>
        <time>2014-12-17T14:16:34Z</time>
      </trkpt>
      <trkpt lat="43.45707" lon="6.02821">
        <ele>376.38491821289</ele>
        <time>2014-12-17T14:16:43Z</time>
      </trkpt>
      <trkpt lat="43.45707" lon="6.0282">
        <ele>376.36346435547</ele>
        <time>2014-12-17T14:16:46Z</time>
      </trkpt>
      <trkpt lat="43.45706" lon="6.02818">
        <ele>376.24691772461</ele>
        <time>2014-12-17T14:16:54Z</time>
      </trkpt>
      <trkpt lat="43.45703" lon="6.02814">
        <ele>375.99731445312</ele>
        <time>2014-12-17T14:16:58Z</time>
      </trkpt>
      <trkpt lat="43.45702" lon="6.02812">
        <ele>375.89099121094</ele>
        <time>2014-12-17T14:16:59Z</time>
      </trkpt>
      <trkpt lat="43.45699" lon="6.02809">
        <ele>375.71292114258</ele>
        <time>2014-12-17T14:17:00Z</time>
      </trkpt>
      <trkpt lat="43.45697" lon="6.02803">
        <ele>375.37069702148</ele>
        <time>2014-12-17T14:17:01Z</time>
      </trkpt>
      <trkpt lat="43.45695" lon="6.02797">
        <ele>374.98114013672</ele>
        <time>2014-12-17T14:17:02Z</time>
      </trkpt>
      <trkpt lat="43.45693" lon="6.0279">
        <ele>374.52746582031</ele>
        <time>2014-12-17T14:17:03Z</time>
      </trkpt>
      <trkpt lat="43.45693" lon="6.02782">
        <ele>374.08395385742</ele>
        <time>2014-12-17T14:17:04Z</time>
      </trkpt>
      <trkpt lat="43.45693" lon="6.02775">
        <ele>373.67901611328</ele>
        <time>2014-12-17T14:17:05Z</time>
      </trkpt>
      <trkpt lat="43.45692" lon="6.02769">
        <ele>373.26708984375</ele>
        <time>2014-12-17T14:17:06Z</time>
      </trkpt>
      <trkpt lat="43.45689" lon="6.02747">
        <ele>372.17553710938</ele>
        <time>2014-12-17T14:17:10Z</time>
      </trkpt>
      <trkpt lat="43.45689" lon="6.02742">
        <ele>372.34320068359</ele>
        <time>2014-12-17T14:17:11Z</time>
      </trkpt>
      <trkpt lat="43.45686" lon="6.02729">
        <ele>372.68765258789</ele>
        <time>2014-12-17T14:17:15Z</time>
      </trkpt>
      <trkpt lat="43.45686" lon="6.02729">
        <ele>372.71112060547</ele>
        <time>2014-12-17T14:17:16Z</time>
      </trkpt>
      <trkpt lat="43.45684" lon="6.02722">
        <ele>372.85815429688</ele>
        <time>2014-12-17T14:17:19Z</time>
      </trkpt>
      <trkpt lat="43.45683" lon="6.02716">
        <ele>373.00637817383</ele>
        <time>2014-12-17T14:17:24Z</time>
      </trkpt>
      <trkpt lat="43.45683" lon="6.02716">
        <ele>372.97604370117</ele>
        <time>2014-12-17T14:17:31Z</time>
      </trkpt>
      <trkpt lat="43.45683" lon="6.02716">
        <ele>372.98120117188</ele>
        <time>2014-12-17T14:17:38Z</time>
      </trkpt>
      <trkpt lat="43.45682" lon="6.02716">
        <ele>372.97146606445</ele>
        <time>2014-12-17T14:17:44Z</time>
      </trkpt>
      <trkpt lat="43.45683" lon="6.02715">
        <ele>373.00866699219</ele>
        <time>2014-12-17T14:18:00Z</time>
      </trkpt>
      <trkpt lat="43.45682" lon="6.02714">
        <ele>373.02294921875</ele>
        <time>2014-12-17T14:18:26Z</time>
      </trkpt>
      <trkpt lat="43.45682" lon="6.02712">
        <ele>373.10021972656</ele>
        <time>2014-12-17T14:18:38Z</time>
      </trkpt>
      <trkpt lat="43.45683" lon="6.0271">
        <ele>373.18890380859</ele>
        <time>2014-12-17T14:18:46Z</time>
      </trkpt>
      <trkpt lat="43.45679" lon="6.02701">
        <ele>373.38403320312</ele>
        <time>2014-12-17T14:18:50Z</time>
      </trkpt>
      <trkpt lat="43.45679" lon="6.02693">
        <ele>373.65182495117</ele>
        <time>2014-12-17T14:18:53Z</time>
      </trkpt>
      <trkpt lat="43.45679" lon="6.02688">
        <ele>373.82748413086</ele>
        <time>2014-12-17T14:18:55Z</time>
      </trkpt>
      <trkpt lat="43.45679" lon="6.02677">
        <ele>374.21371459961</ele>
        <time>2014-12-17T14:18:58Z</time>
      </trkpt>
      <trkpt lat="43.45677" lon="6.02674">
        <ele>374.25091552734</ele>
        <time>2014-12-17T14:18:59Z</time>
      </trkpt>
      <trkpt lat="43.45672" lon="6.02664">
        <ele>374.44784545898</ele>
        <time>2014-12-17T14:19:02Z</time>
      </trkpt>
      <trkpt lat="43.45657" lon="6.02657">
        <ele>374.27642822266</ele>
        <time>2014-12-17T14:19:07Z</time>
      </trkpt>
      <trkpt lat="43.45654" lon="6.02657">
        <ele>374.12423706055</ele>
        <time>2014-12-17T14:19:08Z</time>
      </trkpt>
      <trkpt lat="43.45642" lon="6.02655">
        <ele>373.7008972168</ele>
        <time>2014-12-17T14:19:12Z</time>
      </trkpt>
      <trkpt lat="43.45632" lon="6.02652">
        <ele>373.54779052734</ele>
        <time>2014-12-17T14:19:14Z</time>
      </trkpt>
      <trkpt lat="43.45617" lon="6.0265">
        <ele>373.03634643555</ele>
        <time>2014-12-17T14:19:17Z</time>
      </trkpt>
      <trkpt lat="43.45613" lon="6.0265">
        <ele>372.85467529297</ele>
        <time>2014-12-17T14:19:18Z</time>
      </trkpt>
      <trkpt lat="43.4558" lon="6.02653">
        <ele>371.04022216797</ele>
        <time>2014-12-17T14:19:26Z</time>
      </trkpt>
      <trkpt lat="43.45572" lon="6.02651">
        <ele>370.49548339844</ele>
        <time>2014-12-17T14:19:30Z</time>
      </trkpt>
      <trkpt lat="43.45551" lon="6.02646">
        <ele>369.26867675781</ele>
        <time>2014-12-17T14:19:38Z</time>
      </trkpt>
      <trkpt lat="43.45538" lon="6.02647">
        <ele>368.06475830078</ele>
        <time>2014-12-17T14:19:42Z</time>
      </trkpt>
      <trkpt lat="43.45533" lon="6.02646">
        <ele>367.71685791016</ele>
        <time>2014-12-17T14:19:43Z</time>
      </trkpt>
      <trkpt lat="43.45517" lon="6.02644">
        <ele>366.56329345703</ele>
        <time>2014-12-17T14:19:47Z</time>
      </trkpt>
      <trkpt lat="43.45507" lon="6.02645">
        <ele>365.66607666016</ele>
        <time>2014-12-17T14:19:50Z</time>
      </trkpt>
      <trkpt lat="43.45501" lon="6.02645">
        <ele>365.22662353516</ele>
        <time>2014-12-17T14:19:53Z</time>
      </trkpt>
      <trkpt lat="43.45501" lon="6.02645">
        <ele>365.18084716797</ele>
        <time>2014-12-17T14:19:58Z</time>
      </trkpt>
      <trkpt lat="43.45501" lon="6.02645">
        <ele>365.16711425781</ele>
        <time>2014-12-17T14:20:10Z</time>
      </trkpt>
      <trkpt lat="43.45501" lon="6.02645">
        <ele>365.18542480469</ele>
        <time>2014-12-17T14:20:26Z</time>
      </trkpt>
      <trkpt lat="43.45497" lon="6.02646">
        <ele>364.77456665039</ele>
        <time>2014-12-17T14:21:05Z</time>
      </trkpt>
      <trkpt lat="43.45494" lon="6.02647">
        <ele>364.51681518555</ele>
        <time>2014-12-17T14:21:07Z</time>
      </trkpt>
      <trkpt lat="43.45484" lon="6.0264">
        <ele>364.58053588867</ele>
        <time>2014-12-17T14:21:11Z</time>
      </trkpt>
      <trkpt lat="43.45478" lon="6.02635">
        <ele>364.55319213867</ele>
        <time>2014-12-17T14:21:13Z</time>
      </trkpt>
      <trkpt lat="43.45469" lon="6.02639">
        <ele>363.7102355957</ele>
        <time>2014-12-17T14:21:15Z</time>
      </trkpt>
      <trkpt lat="43.45465" lon="6.02642">
        <ele>363.20452880859</ele>
        <time>2014-12-17T14:21:16Z</time>
      </trkpt>
      <trkpt lat="43.4546" lon="6.02653">
        <ele>362.05798339844</ele>
        <time>2014-12-17T14:21:18Z</time>
      </trkpt>
      <trkpt lat="43.45448" lon="6.02666">
        <ele>360.5471496582</ele>
        <time>2014-12-17T14:21:21Z</time>
      </trkpt>
      <trkpt lat="43.45444" lon="6.0267">
        <ele>360.14553833008</ele>
        <time>2014-12-17T14:21:22Z</time>
      </trkpt>
      <trkpt lat="43.45433" lon="6.02683">
        <ele>359.11489868164</ele>
        <time>2014-12-17T14:21:25Z</time>
      </trkpt>
      <trkpt lat="43.4543" lon="6.02688">
        <ele>358.6858215332</ele>
        <time>2014-12-17T14:21:26Z</time>
      </trkpt>
      <trkpt lat="43.45427" lon="6.02694">
        <ele>358.25402832031</ele>
        <time>2014-12-17T14:21:27Z</time>
      </trkpt>
      <trkpt lat="43.45424" lon="6.02698">
        <ele>357.86669921875</ele>
        <time>2014-12-17T14:21:28Z</time>
      </trkpt>
      <trkpt lat="43.45413" lon="6.02699">
        <ele>356.9098815918</ele>
        <time>2014-12-17T14:21:30Z</time>
      </trkpt>
      <trkpt lat="43.45403" lon="6.02698">
        <ele>355.22534179688</ele>
        <time>2014-12-17T14:21:32Z</time>
      </trkpt>
      <trkpt lat="43.45382" lon="6.02698">
        <ele>351.92922973633</ele>
        <time>2014-12-17T14:21:36Z</time>
      </trkpt>
      <trkpt lat="43.45377" lon="6.02701">
        <ele>351.05258178711</ele>
        <time>2014-12-17T14:21:37Z</time>
      </trkpt>
      <trkpt lat="43.45365" lon="6.02712">
        <ele>348.83877563477</ele>
        <time>2014-12-17T14:21:40Z</time>
      </trkpt>
      <trkpt lat="43.4536" lon="6.02715">
        <ele>348.08383178711</ele>
        <time>2014-12-17T14:21:41Z</time>
      </trkpt>
      <trkpt lat="43.45356" lon="6.02718">
        <ele>347.40579223633</ele>
        <time>2014-12-17T14:21:42Z</time>
      </trkpt>
      <trkpt lat="43.4535" lon="6.0272">
        <ele>346.52462768555</ele>
        <time>2014-12-17T14:21:43Z</time>
      </trkpt>
      <trkpt lat="43.45345" lon="6.02722">
        <ele>345.77667236328</ele>
        <time>2014-12-17T14:21:44Z</time>
      </trkpt>
      <trkpt lat="43.45335" lon="6.02725">
        <ele>344.24459838867</ele>
        <time>2014-12-17T14:21:46Z</time>
      </trkpt>
      <trkpt lat="43.4533" lon="6.02729">
        <ele>343.84228515625</ele>
        <time>2014-12-17T14:21:47Z</time>
      </trkpt>
      <trkpt lat="43.45316" lon="6.02733">
        <ele>343.146484375</ele>
        <time>2014-12-17T14:21:50Z</time>
      </trkpt>
      <trkpt lat="43.45311" lon="6.02732">
        <ele>342.9267578125</ele>
        <time>2014-12-17T14:21:51Z</time>
      </trkpt>
      <trkpt lat="43.45294" lon="6.02734">
        <ele>342.12109375</ele>
        <time>2014-12-17T14:21:54Z</time>
      </trkpt>
      <trkpt lat="43.4529" lon="6.02737">
        <ele>341.9013671875</ele>
        <time>2014-12-17T14:21:55Z</time>
      </trkpt>
      <trkpt lat="43.45279" lon="6.02741">
        <ele>341.37036132812</ele>
        <time>2014-12-17T14:21:57Z</time>
      </trkpt>
      <trkpt lat="43.45276" lon="6.02742">
        <ele>341.2421875</ele>
        <time>2014-12-17T14:21:58Z</time>
      </trkpt>
      <trkpt lat="43.45273" lon="6.02743">
        <ele>341.095703125</ele>
        <time>2014-12-17T14:21:59Z</time>
      </trkpt>
      <trkpt lat="43.45264" lon="6.02749">
        <ele>340.67456054688</ele>
        <time>2014-12-17T14:22:02Z</time>
      </trkpt>
      <trkpt lat="43.45262" lon="6.02751">
        <ele>340.5622253418</ele>
        <time>2014-12-17T14:22:03Z</time>
      </trkpt>
      <trkpt lat="43.45257" lon="6.0276">
        <ele>340.30764770508</ele>
        <time>2014-12-17T14:22:05Z</time>
      </trkpt>
      <trkpt lat="43.45254" lon="6.02766">
        <ele>340.16290283203</ele>
        <time>2014-12-17T14:22:06Z</time>
      </trkpt>
      <trkpt lat="43.45247" lon="6.02776">
        <ele>340.19897460938</ele>
        <time>2014-12-17T14:22:08Z</time>
      </trkpt>
      <trkpt lat="43.45244" lon="6.02779">
        <ele>340.44183349609</ele>
        <time>2014-12-17T14:22:09Z</time>
      </trkpt>
      <trkpt lat="43.45241" lon="6.0278">
        <ele>340.6272277832</ele>
        <time>2014-12-17T14:22:10Z</time>
      </trkpt>
      <trkpt lat="43.45224" lon="6.0279">
        <ele>341.71279907227</ele>
        <time>2014-12-17T14:22:15Z</time>
      </trkpt>
      <trkpt lat="43.45219" lon="6.02796">
        <ele>341.9567565918</ele>
        <time>2014-12-17T14:22:17Z</time>
      </trkpt>
      <trkpt lat="43.4521" lon="6.02806">
        <ele>342.40341186523</ele>
        <time>2014-12-17T14:22:20Z</time>
      </trkpt>
      <trkpt lat="43.45205" lon="6.02812">
        <ele>342.60446166992</ele>
        <time>2014-12-17T14:22:22Z</time>
      </trkpt>
      <trkpt lat="43.45194" lon="6.02827">
        <ele>342.83740234375</ele>
        <time>2014-12-17T14:22:26Z</time>
      </trkpt>
      <trkpt lat="43.45192" lon="6.02831">
        <ele>342.85656738281</ele>
        <time>2014-12-17T14:22:30Z</time>
      </trkpt>
      <trkpt lat="43.45191" lon="6.02832">
        <ele>342.88290405273</ele>
        <time>2014-12-17T14:22:39Z</time>
      </trkpt>
      <trkpt lat="43.4519" lon="6.02832">
        <ele>342.88919067383</ele>
        <time>2014-12-17T14:22:49Z</time>
      </trkpt>
      <trkpt lat="43.4519" lon="6.02833">
        <ele>342.87448120117</ele>
        <time>2014-12-17T14:23:05Z</time>
      </trkpt>
      <trkpt lat="43.45189" lon="6.02832">
        <ele>342.94345092773</ele>
        <time>2014-12-17T14:23:15Z</time>
      </trkpt>
      <trkpt lat="43.45188" lon="6.02831">
        <ele>343.02697753906</ele>
        <time>2014-12-17T14:23:22Z</time>
      </trkpt>
      <trkpt lat="43.45188" lon="6.02831">
        <ele>343.02951049805</ele>
        <time>2014-12-17T14:23:29Z</time>
      </trkpt>
      <trkpt lat="43.45188" lon="6.02831">
        <ele>343.02951049805</ele>
        <time>2014-12-17T14:23:37Z</time>
      </trkpt>
      <trkpt lat="43.45187" lon="6.02833">
        <ele>343.04287719727</ele>
        <time>2014-12-17T14:23:45Z</time>
      </trkpt>
      <trkpt lat="43.45187" lon="6.02835">
        <ele>342.9811706543</ele>
        <time>2014-12-17T14:23:51Z</time>
      </trkpt>
      <trkpt lat="43.45189" lon="6.02837">
        <ele>342.89123535156</ele>
        <time>2014-12-17T14:23:54Z</time>
      </trkpt>
      <trkpt lat="43.4519" lon="6.02845">
        <ele>342.67047119141</ele>
        <time>2014-12-17T14:23:57Z</time>
      </trkpt>
      <trkpt lat="43.4519" lon="6.02869">
        <ele>342.2395324707</ele>
        <time>2014-12-17T14:24:03Z</time>
      </trkpt>
      <trkpt lat="43.4519" lon="6.0289">
        <ele>341.91854858398</ele>
        <time>2014-12-17T14:24:07Z</time>
      </trkpt>
      <trkpt lat="43.4519" lon="6.02896">
        <ele>341.79611206055</ele>
        <time>2014-12-17T14:24:08Z</time>
      </trkpt>
      <trkpt lat="43.4519" lon="6.02902">
        <ele>341.69982910156</ele>
        <time>2014-12-17T14:24:09Z</time>
      </trkpt>
      <trkpt lat="43.45191" lon="6.02934">
        <ele>341.13354492188</ele>
        <time>2014-12-17T14:24:14Z</time>
      </trkpt>
      <trkpt lat="43.45191" lon="6.0296">
        <ele>340.68243408203</ele>
        <time>2014-12-17T14:24:18Z</time>
      </trkpt>
      <trkpt lat="43.45189" lon="6.02982">
        <ele>340.31115722656</ele>
        <time>2014-12-17T14:24:21Z</time>
      </trkpt>
      <trkpt lat="43.45184" lon="6.03003">
        <ele>340.01733398438</ele>
        <time>2014-12-17T14:24:24Z</time>
      </trkpt>
      <trkpt lat="43.45177" lon="6.03031">
        <ele>340.08834838867</ele>
        <time>2014-12-17T14:24:28Z</time>
      </trkpt>
      <trkpt lat="43.45168" lon="6.03061">
        <ele>340.01538085938</ele>
        <time>2014-12-17T14:24:33Z</time>
      </trkpt>
      <trkpt lat="43.45162" lon="6.03078">
        <ele>340.72344970703</ele>
        <time>2014-12-17T14:24:36Z</time>
      </trkpt>
      <trkpt lat="43.45149" lon="6.0312">
        <ele>341.95559692383</ele>
        <time>2014-12-17T14:24:43Z</time>
      </trkpt>
      <trkpt lat="43.45139" lon="6.03169">
        <ele>342.00466918945</ele>
        <time>2014-12-17T14:24:51Z</time>
      </trkpt>
      <trkpt lat="43.45124" lon="6.032">
        <ele>342.86532592773</ele>
        <time>2014-12-17T14:24:57Z</time>
      </trkpt>
      <trkpt lat="43.45115" lon="6.03222">
        <ele>342.99237060547</ele>
        <time>2014-12-17T14:25:01Z</time>
      </trkpt>
      <trkpt lat="43.45111" lon="6.03233">
        <ele>342.93078613281</ele>
        <time>2014-12-17T14:25:03Z</time>
      </trkpt>
      <trkpt lat="43.45101" lon="6.03265">
        <ele>342.73999023438</ele>
        <time>2014-12-17T14:25:09Z</time>
      </trkpt>
      <trkpt lat="43.45097" lon="6.03277">
        <ele>342.56396484375</ele>
        <time>2014-12-17T14:25:13Z</time>
      </trkpt>
      <trkpt lat="43.45097" lon="6.0328">
        <ele>342.52096557617</ele>
        <time>2014-12-17T14:25:18Z</time>
      </trkpt>
      <trkpt lat="43.45097" lon="6.0328">
        <ele>342.53649902344</ele>
        <time>2014-12-17T14:25:23Z</time>
      </trkpt>
      <trkpt lat="43.45097" lon="6.03281">
        <ele>342.49871826172</ele>
        <time>2014-12-17T14:25:30Z</time>
      </trkpt>
      <trkpt lat="43.45096" lon="6.03282">
        <ele>342.44372558594</ele>
        <time>2014-12-17T14:25:39Z</time>
      </trkpt>
      <trkpt lat="43.45096" lon="6.03282">
        <ele>342.44250488281</ele>
        <time>2014-12-17T14:25:47Z</time>
      </trkpt>
      <trkpt lat="43.45096" lon="6.03282">
        <ele>342.44131469727</ele>
        <time>2014-12-17T14:25:53Z</time>
      </trkpt>
      <trkpt lat="43.45095" lon="6.03285">
        <ele>342.39416503906</ele>
        <time>2014-12-17T14:26:02Z</time>
      </trkpt>
      <trkpt lat="43.45095" lon="6.03288">
        <ele>342.3039855957</ele>
        <time>2014-12-17T14:26:03Z</time>
      </trkpt>
      <trkpt lat="43.4509" lon="6.03305">
        <ele>341.64120483398</ele>
        <time>2014-12-17T14:26:07Z</time>
      </trkpt>
      <trkpt lat="43.45074" lon="6.03341">
        <ele>341.44763183594</ele>
        <time>2014-12-17T14:26:14Z</time>
      </trkpt>
      <trkpt lat="43.45065" lon="6.03363">
        <ele>342.31011962891</ele>
        <time>2014-12-17T14:26:17Z</time>
      </trkpt>
      <trkpt lat="43.45064" lon="6.0337">
        <ele>342.20446777344</ele>
        <time>2014-12-17T14:26:18Z</time>
      </trkpt>
      <trkpt lat="43.45061" lon="6.03394">
        <ele>341.77722167969</ele>
        <time>2014-12-17T14:26:21Z</time>
      </trkpt>
      <trkpt lat="43.45059" lon="6.03411">
        <ele>341.37963867188</ele>
        <time>2014-12-17T14:26:23Z</time>
      </trkpt>
      <trkpt lat="43.45057" lon="6.03419">
        <ele>341.19805908203</ele>
        <time>2014-12-17T14:26:24Z</time>
      </trkpt>
      <trkpt lat="43.45046" lon="6.0348">
        <ele>339.41928100586</ele>
        <time>2014-12-17T14:26:31Z</time>
      </trkpt>
      <trkpt lat="43.45037" lon="6.03514">
        <ele>337.50506591797</ele>
        <time>2014-12-17T14:26:35Z</time>
      </trkpt>
      <trkpt lat="43.45035" lon="6.03521">
        <ele>337.03616333008</ele>
        <time>2014-12-17T14:26:36Z</time>
      </trkpt>
      <trkpt lat="43.45033" lon="6.03526">
        <ele>336.59686279297</ele>
        <time>2014-12-17T14:26:37Z</time>
      </trkpt>
      <trkpt lat="43.45031" lon="6.03529">
        <ele>336.31973266602</ele>
        <time>2014-12-17T14:26:38Z</time>
      </trkpt>
      <trkpt lat="43.4503" lon="6.03536">
        <ele>335.85083007812</ele>
        <time>2014-12-17T14:26:40Z</time>
      </trkpt>
      <trkpt lat="43.45029" lon="6.03539">
        <ele>335.58480834961</ele>
        <time>2014-12-17T14:26:41Z</time>
      </trkpt>
      <trkpt lat="43.45022" lon="6.03557">
        <ele>333.91156005859</ele>
        <time>2014-12-17T14:26:46Z</time>
      </trkpt>
      <trkpt lat="43.45017" lon="6.03577">
        <ele>332.04336547852</ele>
        <time>2014-12-17T14:26:52Z</time>
      </trkpt>
      <trkpt lat="43.45016" lon="6.03587">
        <ele>331.6364440918</ele>
        <time>2014-12-17T14:26:55Z</time>
      </trkpt>
      <trkpt lat="43.45015" lon="6.03597">
        <ele>331.82211303711</ele>
        <time>2014-12-17T14:26:58Z</time>
      </trkpt>
      <trkpt lat="43.45014" lon="6.03602">
        <ele>331.9680480957</ele>
        <time>2014-12-17T14:27:00Z</time>
      </trkpt>
      <trkpt lat="43.45014" lon="6.03612">
        <ele>332.26629638672</ele>
        <time>2014-12-17T14:27:04Z</time>
      </trkpt>
      <trkpt lat="43.45014" lon="6.03613">
        <ele>332.32412719727</ele>
        <time>2014-12-17T14:27:05Z</time>
      </trkpt>
      <trkpt lat="43.45015" lon="6.03618">
        <ele>332.49087524414</ele>
        <time>2014-12-17T14:27:07Z</time>
      </trkpt>
      <trkpt lat="43.45015" lon="6.03626">
        <ele>332.80807495117</ele>
        <time>2014-12-17T14:27:11Z</time>
      </trkpt>
      <trkpt lat="43.45016" lon="6.03631">
        <ele>333.01266479492</ele>
        <time>2014-12-17T14:27:14Z</time>
      </trkpt>
      <trkpt lat="43.45016" lon="6.03649">
        <ele>333.64468383789</ele>
        <time>2014-12-17T14:27:22Z</time>
      </trkpt>
      <trkpt lat="43.45016" lon="6.03677">
        <ele>334.57534790039</ele>
        <time>2014-12-17T14:27:29Z</time>
      </trkpt>
      <trkpt lat="43.4501" lon="6.03687">
        <ele>334.58554077148</ele>
        <time>2014-12-17T14:27:31Z</time>
      </trkpt>
      <trkpt lat="43.45006" lon="6.03689">
        <ele>334.42565917969</ele>
        <time>2014-12-17T14:27:32Z</time>
      </trkpt>
      <trkpt lat="43.44999" lon="6.03691">
        <ele>334.03826904297</ele>
        <time>2014-12-17T14:27:35Z</time>
      </trkpt>
      <trkpt lat="43.44997" lon="6.03692">
        <ele>333.87347412109</ele>
        <time>2014-12-17T14:27:40Z</time>
      </trkpt>
      <trkpt lat="43.44997" lon="6.03691">
        <ele>333.8620300293</ele>
        <time>2014-12-17T14:28:00Z</time>
      </trkpt>
      <trkpt lat="43.44997" lon="6.03691">
        <ele>333.85974121094</ele>
        <time>2014-12-17T14:28:14Z</time>
      </trkpt>
      <trkpt lat="43.44997" lon="6.03691">
        <ele>333.83456420898</ele>
        <time>2014-12-17T14:28:22Z</time>
      </trkpt>
      <trkpt lat="43.44996" lon="6.03691">
        <ele>333.7887878418</ele>
        <time>2014-12-17T14:28:26Z</time>
      </trkpt>
      <trkpt lat="43.44996" lon="6.03691">
        <ele>333.79336547852</ele>
        <time>2014-12-17T14:28:42Z</time>
      </trkpt>
      <trkpt lat="43.44996" lon="6.03691">
        <ele>333.7887878418</ele>
        <time>2014-12-17T14:29:01Z</time>
      </trkpt>
      <trkpt lat="43.44997" lon="6.03691">
        <ele>333.8391418457</ele>
        <time>2014-12-17T14:29:32Z</time>
      </trkpt>
      <trkpt lat="43.44997" lon="6.03691">
        <ele>333.87805175781</ele>
        <time>2014-12-17T14:29:45Z</time>
      </trkpt>
      <trkpt lat="43.44997" lon="6.03691">
        <ele>333.87576293945</ele>
        <time>2014-12-17T14:30:01Z</time>
      </trkpt>
      <trkpt lat="43.44997" lon="6.0369">
        <ele>333.8505859375</ele>
        <time>2014-12-17T14:36:21Z</time>
      </trkpt>
      <trkpt lat="43.44997" lon="6.0369">
        <ele>333.82540893555</ele>
        <time>2014-12-17T14:37:53Z</time>
      </trkpt>
      <trkpt lat="43.44997" lon="6.0369">
        <ele>333.8391418457</ele>
        <time>2014-12-17T14:40:48Z</time>
      </trkpt>
      <trkpt lat="43.44997" lon="6.0369">
        <ele>333.83685302734</ele>
        <time>2014-12-17T14:41:03Z</time>
      </trkpt>
      <trkpt lat="43.44997" lon="6.0369">
        <ele>333.83456420898</ele>
        <time>2014-12-17T14:41:15Z</time>
      </trkpt>
      <trkpt lat="43.44995" lon="6.03689">
        <ele>333.58050537109</ele>
        <time>2014-12-17T14:41:24Z</time>
      </trkpt>
      <trkpt lat="43.44993" lon="6.03689">
        <ele>333.41571044922</ele>
        <time>2014-12-17T14:41:25Z</time>
      </trkpt>
      <trkpt lat="43.44978" lon="6.03682">
        <ele>331.64645385742</ele>
        <time>2014-12-17T14:41:31Z</time>
      </trkpt>
      <trkpt lat="43.44974" lon="6.0368">
        <ele>331.17953491211</ele>
        <time>2014-12-17T14:41:32Z</time>
      </trkpt>
      <trkpt lat="43.44965" lon="6.0368">
        <ele>330.26400756836</ele>
        <time>2014-12-17T14:41:34Z</time>
      </trkpt>
      <trkpt lat="43.4496" lon="6.0368">
        <ele>329.81539916992</ele>
        <time>2014-12-17T14:41:35Z</time>
      </trkpt>
      <trkpt lat="43.44957" lon="6.03686">
        <ele>329.77877807617</ele>
        <time>2014-12-17T14:41:36Z</time>
      </trkpt>
      <trkpt lat="43.44954" lon="6.03692">
        <ele>329.84057617188</ele>
        <time>2014-12-17T14:41:37Z</time>
      </trkpt>
      <trkpt lat="43.44947" lon="6.03711">
        <ele>330.00537109375</ele>
        <time>2014-12-17T14:41:40Z</time>
      </trkpt>
      <trkpt lat="43.44944" lon="6.03715">
        <ele>329.89779663086</ele>
        <time>2014-12-17T14:41:41Z</time>
      </trkpt>
      <trkpt lat="43.44937" lon="6.03724">
        <ele>329.70553588867</ele>
        <time>2014-12-17T14:41:44Z</time>
      </trkpt>
      <trkpt lat="43.4493" lon="6.03745">
        <ele>330.02825927734</ele>
        <time>2014-12-17T14:41:49Z</time>
      </trkpt>
      <trkpt lat="43.44928" lon="6.03762">
        <ele>330.87829589844</ele>
        <time>2014-12-17T14:41:53Z</time>
      </trkpt>
      <trkpt lat="43.44924" lon="6.03779">
        <ele>331.70022583008</ele>
        <time>2014-12-17T14:41:57Z</time>
      </trkpt>
      <trkpt lat="43.44923" lon="6.03789">
        <ele>332.21197509766</ele>
        <time>2014-12-17T14:41:59Z</time>
      </trkpt>
      <trkpt lat="43.44921" lon="6.03794">
        <ele>332.32382202148</ele>
        <time>2014-12-17T14:42:00Z</time>
      </trkpt>
      <trkpt lat="43.44916" lon="6.03822">
        <ele>333.4580078125</ele>
        <time>2014-12-17T14:42:06Z</time>
      </trkpt>
      <trkpt lat="43.44912" lon="6.0384">
        <ele>335.39291381836</ele>
        <time>2014-12-17T14:42:10Z</time>
      </trkpt>
      <trkpt lat="43.44905" lon="6.0387">
        <ele>338.37014770508</ele>
        <time>2014-12-17T14:42:17Z</time>
      </trkpt>
      <trkpt lat="43.44901" lon="6.03901">
        <ele>340.53717041016</ele>
        <time>2014-12-17T14:42:24Z</time>
      </trkpt>
      <trkpt lat="43.449" lon="6.03906">
        <ele>340.77816772461</ele>
        <time>2014-12-17T14:42:25Z</time>
      </trkpt>
      <trkpt lat="43.44898" lon="6.03938">
        <ele>342.68798828125</ele>
        <time>2014-12-17T14:42:33Z</time>
      </trkpt>
      <trkpt lat="43.44897" lon="6.03951">
        <ele>343.37973022461</ele>
        <time>2014-12-17T14:42:37Z</time>
      </trkpt>
      <trkpt lat="43.44897" lon="6.03965">
        <ele>344.197265625</ele>
        <time>2014-12-17T14:42:42Z</time>
      </trkpt>
      <trkpt lat="43.44897" lon="6.03968">
        <ele>344.33279418945</ele>
        <time>2014-12-17T14:42:43Z</time>
      </trkpt>
      <trkpt lat="43.44896" lon="6.03991">
        <ele>345.52740478516</ele>
        <time>2014-12-17T14:42:51Z</time>
      </trkpt>
      <trkpt lat="43.44893" lon="6.04012">
        <ele>346.78344726562</ele>
        <time>2014-12-17T14:42:58Z</time>
      </trkpt>
      <trkpt lat="43.44891" lon="6.04024">
        <ele>347.44772338867</ele>
        <time>2014-12-17T14:43:02Z</time>
      </trkpt>
      <trkpt lat="43.44889" lon="6.04037">
        <ele>348.14181518555</ele>
        <time>2014-12-17T14:43:07Z</time>
      </trkpt>
      <trkpt lat="43.44888" lon="6.04042">
        <ele>348.37014770508</ele>
        <time>2014-12-17T14:43:09Z</time>
      </trkpt>
      <trkpt lat="43.44884" lon="6.04059">
        <ele>349.2666015625</ele>
        <time>2014-12-17T14:43:16Z</time>
      </trkpt>
      <trkpt lat="43.44881" lon="6.04075">
        <ele>349.99285888672</ele>
        <time>2014-12-17T14:43:23Z</time>
      </trkpt>
      <trkpt lat="43.4488" lon="6.04083">
        <ele>350.31399536133</ele>
        <time>2014-12-17T14:43:27Z</time>
      </trkpt>
      <trkpt lat="43.44878" lon="6.04088">
        <ele>350.76788330078</ele>
        <time>2014-12-17T14:43:30Z</time>
      </trkpt>
      <trkpt lat="43.44865" lon="6.04104">
        <ele>352.10739135742</ele>
        <time>2014-12-17T14:43:42Z</time>
      </trkpt>
      <trkpt lat="43.44863" lon="6.04109">
        <ele>352.43515014648</ele>
        <time>2014-12-17T14:43:46Z</time>
      </trkpt>
      <trkpt lat="43.44861" lon="6.04111">
        <ele>352.5400390625</ele>
        <time>2014-12-17T14:43:48Z</time>
      </trkpt>
      <trkpt lat="43.44859" lon="6.04114">
        <ele>352.69625854492</ele>
        <time>2014-12-17T14:43:51Z</time>
      </trkpt>
      <trkpt lat="43.44856" lon="6.04116">
        <ele>352.82916259766</ele>
        <time>2014-12-17T14:43:54Z</time>
      </trkpt>
      <trkpt lat="43.44856" lon="6.04117">
        <ele>352.8737487793</ele>
        <time>2014-12-17T14:43:55Z</time>
      </trkpt>
      <trkpt lat="43.44854" lon="6.04123">
        <ele>353.15765380859</ele>
        <time>2014-12-17T14:43:59Z</time>
      </trkpt>
      <trkpt lat="43.44852" lon="6.0413">
        <ele>353.43865966797</ele>
        <time>2014-12-17T14:44:03Z</time>
      </trkpt>
      <trkpt lat="43.44849" lon="6.04135">
        <ele>353.61529541016</ele>
        <time>2014-12-17T14:44:06Z</time>
      </trkpt>
      <trkpt lat="43.44847" lon="6.04143">
        <ele>353.86099243164</ele>
        <time>2014-12-17T14:44:10Z</time>
      </trkpt>
      <trkpt lat="43.44843" lon="6.04152">
        <ele>354.0793762207</ele>
        <time>2014-12-17T14:44:15Z</time>
      </trkpt>
      <trkpt lat="43.4484" lon="6.04163">
        <ele>354.26177978516</ele>
        <time>2014-12-17T14:44:20Z</time>
      </trkpt>
      <trkpt lat="43.44835" lon="6.04182">
        <ele>354.71765136719</ele>
        <time>2014-12-17T14:44:28Z</time>
      </trkpt>
      <trkpt lat="43.44835" lon="6.04185">
        <ele>354.83419799805</ele>
        <time>2014-12-17T14:44:29Z</time>
      </trkpt>
      <trkpt lat="43.44831" lon="6.04207">
        <ele>355.79827880859</ele>
        <time>2014-12-17T14:44:36Z</time>
      </trkpt>
      <trkpt lat="43.4483" lon="6.04212">
        <ele>356.25592041016</ele>
        <time>2014-12-17T14:44:38Z</time>
      </trkpt>
      <trkpt lat="43.44828" lon="6.04226">
        <ele>357.08831787109</ele>
        <time>2014-12-17T14:44:44Z</time>
      </trkpt>
      <trkpt lat="43.44828" lon="6.04231">
        <ele>357.18347167969</ele>
        <time>2014-12-17T14:44:46Z</time>
      </trkpt>
      <trkpt lat="43.44829" lon="6.04242">
        <ele>357.42581176758</ele>
        <time>2014-12-17T14:44:51Z</time>
      </trkpt>
      <trkpt lat="43.4483" lon="6.04249">
        <ele>357.47946166992</ele>
        <time>2014-12-17T14:44:55Z</time>
      </trkpt>
      <trkpt lat="43.44831" lon="6.04255">
        <ele>357.54644775391</ele>
        <time>2014-12-17T14:44:58Z</time>
      </trkpt>
      <trkpt lat="43.44833" lon="6.04265">
        <ele>357.66595458984</ele>
        <time>2014-12-17T14:45:04Z</time>
      </trkpt>
      <trkpt lat="43.44833" lon="6.04269">
        <ele>357.70364379883</ele>
        <time>2014-12-17T14:45:06Z</time>
      </trkpt>
      <trkpt lat="43.44835" lon="6.04278">
        <ele>358.44006347656</ele>
        <time>2014-12-17T14:45:11Z</time>
      </trkpt>
      <trkpt lat="43.44835" lon="6.04288">
        <ele>358.62557983398</ele>
        <time>2014-12-17T14:45:16Z</time>
      </trkpt>
      <trkpt lat="43.44834" lon="6.04291">
        <ele>358.5852355957</ele>
        <time>2014-12-17T14:45:18Z</time>
      </trkpt>
      <trkpt lat="43.44832" lon="6.04303">
        <ele>359.10589599609</ele>
        <time>2014-12-17T14:45:25Z</time>
      </trkpt>
      <trkpt lat="43.44828" lon="6.04322">
        <ele>360.26705932617</ele>
        <time>2014-12-17T14:45:37Z</time>
      </trkpt>
      <trkpt lat="43.44827" lon="6.04329">
        <ele>360.74719238281</ele>
        <time>2014-12-17T14:45:41Z</time>
      </trkpt>
      <trkpt lat="43.44826" lon="6.04332">
        <ele>360.92221069336</ele>
        <time>2014-12-17T14:45:43Z</time>
      </trkpt>
      <trkpt lat="43.44825" lon="6.04343">
        <ele>361.39007568359</ele>
        <time>2014-12-17T14:45:49Z</time>
      </trkpt>
      <trkpt lat="43.44825" lon="6.0435">
        <ele>361.65399169922</ele>
        <time>2014-12-17T14:45:53Z</time>
      </trkpt>
      <trkpt lat="43.44823" lon="6.04362">
        <ele>362.2668762207</ele>
        <time>2014-12-17T14:46:00Z</time>
      </trkpt>
      <trkpt lat="43.44821" lon="6.04375">
        <ele>362.80511474609</ele>
        <time>2014-12-17T14:46:07Z</time>
      </trkpt>
      <trkpt lat="43.44819" lon="6.04382">
        <ele>363.24536132812</ele>
        <time>2014-12-17T14:46:11Z</time>
      </trkpt>
      <trkpt lat="43.44817" lon="6.04391">
        <ele>363.69369506836</ele>
        <time>2014-12-17T14:46:17Z</time>
      </trkpt>
      <trkpt lat="43.44812" lon="6.04406">
        <ele>364.50189208984</ele>
        <time>2014-12-17T14:46:25Z</time>
      </trkpt>
      <trkpt lat="43.44807" lon="6.04424">
        <ele>365.42245483398</ele>
        <time>2014-12-17T14:46:35Z</time>
      </trkpt>
      <trkpt lat="43.44806" lon="6.04431">
        <ele>365.74749755859</ele>
        <time>2014-12-17T14:46:39Z</time>
      </trkpt>
      <trkpt lat="43.44804" lon="6.04443">
        <ele>366.28515625</ele>
        <time>2014-12-17T14:46:45Z</time>
      </trkpt>
      <trkpt lat="43.44801" lon="6.04461">
        <ele>366.93658447266</ele>
        <time>2014-12-17T14:46:54Z</time>
      </trkpt>
      <trkpt lat="43.44797" lon="6.04479">
        <ele>367.52157592773</ele>
        <time>2014-12-17T14:47:04Z</time>
      </trkpt>
      <trkpt lat="43.44796" lon="6.04484">
        <ele>367.64810180664</ele>
        <time>2014-12-17T14:47:07Z</time>
      </trkpt>
      <trkpt lat="43.44794" lon="6.04489">
        <ele>367.77975463867</ele>
        <time>2014-12-17T14:47:11Z</time>
      </trkpt>
      <trkpt lat="43.44794" lon="6.04491">
        <ele>367.82086181641</ele>
        <time>2014-12-17T14:47:12Z</time>
      </trkpt>
      <trkpt lat="43.44792" lon="6.04499">
        <ele>367.97894287109</ele>
        <time>2014-12-17T14:47:16Z</time>
      </trkpt>
      <trkpt lat="43.44788" lon="6.04507">
        <ele>368.06478881836</ele>
        <time>2014-12-17T14:47:20Z</time>
      </trkpt>
      <trkpt lat="43.44781" lon="6.04529">
        <ele>368.07302856445</ele>
        <time>2014-12-17T14:47:27Z</time>
      </trkpt>
      <trkpt lat="43.44775" lon="6.04551">
        <ele>367.87872314453</ele>
        <time>2014-12-17T14:47:31Z</time>
      </trkpt>
      <trkpt lat="43.44772" lon="6.04564">
        <ele>367.67816162109</ele>
        <time>2014-12-17T14:47:33Z</time>
      </trkpt>
      <trkpt lat="43.4477" lon="6.04572">
        <ele>367.49847412109</ele>
        <time>2014-12-17T14:47:34Z</time>
      </trkpt>
      <trkpt lat="43.44767" lon="6.04579">
        <ele>367.29180908203</ele>
        <time>2014-12-17T14:47:35Z</time>
      </trkpt>
      <trkpt lat="43.44765" lon="6.04588">
        <ele>366.98043823242</ele>
        <time>2014-12-17T14:47:36Z</time>
      </trkpt>
      <trkpt lat="43.44759" lon="6.04605">
        <ele>366.05026245117</ele>
        <time>2014-12-17T14:47:38Z</time>
      </trkpt>
      <trkpt lat="43.44756" lon="6.04613">
        <ele>365.51971435547</ele>
        <time>2014-12-17T14:47:39Z</time>
      </trkpt>
      <trkpt lat="43.44749" lon="6.04629">
        <ele>364.43383789062</ele>
        <time>2014-12-17T14:47:41Z</time>
      </trkpt>
      <trkpt lat="43.4474" lon="6.04645">
        <ele>364.31423950195</ele>
        <time>2014-12-17T14:47:43Z</time>
      </trkpt>
      <trkpt lat="43.44732" lon="6.04661">
        <ele>363.95785522461</ele>
        <time>2014-12-17T14:47:45Z</time>
      </trkpt>
      <trkpt lat="43.44728" lon="6.04668">
        <ele>363.72415161133</ele>
        <time>2014-12-17T14:47:46Z</time>
      </trkpt>
      <trkpt lat="43.44726" lon="6.04675">
        <ele>363.58889770508</ele>
        <time>2014-12-17T14:47:47Z</time>
      </trkpt>
      <trkpt lat="43.44721" lon="6.0468">
        <ele>363.55685424805</ele>
        <time>2014-12-17T14:47:48Z</time>
      </trkpt>
      <trkpt lat="43.44716" lon="6.04684">
        <ele>363.49462890625</ele>
        <time>2014-12-17T14:47:49Z</time>
      </trkpt>
      <trkpt lat="43.44712" lon="6.04689">
        <ele>363.37728881836</ele>
        <time>2014-12-17T14:47:50Z</time>
      </trkpt>
      <trkpt lat="43.44704" lon="6.047">
        <ele>362.9382019043</ele>
        <time>2014-12-17T14:47:52Z</time>
      </trkpt>
      <trkpt lat="43.44701" lon="6.04705">
        <ele>362.67852783203</ele>
        <time>2014-12-17T14:47:53Z</time>
      </trkpt>
      <trkpt lat="43.44697" lon="6.04709">
        <ele>362.45303344727</ele>
        <time>2014-12-17T14:47:54Z</time>
      </trkpt>
      <trkpt lat="43.4469" lon="6.04714">
        <ele>362.12194824219</ele>
        <time>2014-12-17T14:47:56Z</time>
      </trkpt>
      <trkpt lat="43.44687" lon="6.04717">
        <ele>361.95135498047</ele>
        <time>2014-12-17T14:47:57Z</time>
      </trkpt>
      <trkpt lat="43.44674" lon="6.04724">
        <ele>361.27499389648</ele>
        <time>2014-12-17T14:48:00Z</time>
      </trkpt>
      <trkpt lat="43.44669" lon="6.04726">
        <ele>361.01739501953</ele>
        <time>2014-12-17T14:48:01Z</time>
      </trkpt>
      <trkpt lat="43.44665" lon="6.0473">
        <ele>360.9387512207</ele>
        <time>2014-12-17T14:48:02Z</time>
      </trkpt>
      <trkpt lat="43.44661" lon="6.04734">
        <ele>361.10598754883</ele>
        <time>2014-12-17T14:48:03Z</time>
      </trkpt>
      <trkpt lat="43.44658" lon="6.04738">
        <ele>361.12850952148</ele>
        <time>2014-12-17T14:48:04Z</time>
      </trkpt>
      <trkpt lat="43.44653" lon="6.04751">
        <ele>360.69888305664</ele>
        <time>2014-12-17T14:48:06Z</time>
      </trkpt>
      <trkpt lat="43.44652" lon="6.04758">
        <ele>360.44079589844</ele>
        <time>2014-12-17T14:48:07Z</time>
      </trkpt>
      <trkpt lat="43.44651" lon="6.04766">
        <ele>360.05969238281</ele>
        <time>2014-12-17T14:48:08Z</time>
      </trkpt>
      <trkpt lat="43.4465" lon="6.04792">
        <ele>358.66387939453</ele>
        <time>2014-12-17T14:48:11Z</time>
      </trkpt>
      <trkpt lat="43.44648" lon="6.04799">
        <ele>358.35409545898</ele>
        <time>2014-12-17T14:48:12Z</time>
      </trkpt>
      <trkpt lat="43.44646" lon="6.04813">
        <ele>357.68649291992</ele>
        <time>2014-12-17T14:48:14Z</time>
      </trkpt>
      <trkpt lat="43.44646" lon="6.0482">
        <ele>357.28601074219</ele>
        <time>2014-12-17T14:48:15Z</time>
      </trkpt>
      <trkpt lat="43.44646" lon="6.04828">
        <ele>356.7685546875</ele>
        <time>2014-12-17T14:48:16Z</time>
      </trkpt>
      <trkpt lat="43.4465" lon="6.04842">
        <ele>355.48779296875</ele>
        <time>2014-12-17T14:48:18Z</time>
      </trkpt>
      <trkpt lat="43.44653" lon="6.04848">
        <ele>354.72927856445</ele>
        <time>2014-12-17T14:48:19Z</time>
      </trkpt>
      <trkpt lat="43.44661" lon="6.04867">
        <ele>352.63943481445</ele>
        <time>2014-12-17T14:48:22Z</time>
      </trkpt>
      <trkpt lat="43.44662" lon="6.04874">
        <ele>352.07379150391</ele>
        <time>2014-12-17T14:48:23Z</time>
      </trkpt>
      <trkpt lat="43.44663" lon="6.04882">
        <ele>351.53631591797</ele>
        <time>2014-12-17T14:48:24Z</time>
      </trkpt>
      <trkpt lat="43.44664" lon="6.04898">
        <ele>350.35986328125</ele>
        <time>2014-12-17T14:48:27Z</time>
      </trkpt>
      <trkpt lat="43.44665" lon="6.04911">
        <ele>349.57611083984</ele>
        <time>2014-12-17T14:48:29Z</time>
      </trkpt>
      <trkpt lat="43.44664" lon="6.04917">
        <ele>349.29064941406</ele>
        <time>2014-12-17T14:48:30Z</time>
      </trkpt>
      <trkpt lat="43.44664" lon="6.04928">
        <ele>348.42617797852</ele>
        <time>2014-12-17T14:48:32Z</time>
      </trkpt>
      <trkpt lat="43.44664" lon="6.04935">
        <ele>348.02145385742</ele>
        <time>2014-12-17T14:48:33Z</time>
      </trkpt>
      <trkpt lat="43.44663" lon="6.04941">
        <ele>347.59579467773</ele>
        <time>2014-12-17T14:48:34Z</time>
      </trkpt>
      <trkpt lat="43.44659" lon="6.0496">
        <ele>346.54360961914</ele>
        <time>2014-12-17T14:48:37Z</time>
      </trkpt>
      <trkpt lat="43.44659" lon="6.04966">
        <ele>346.1181640625</ele>
        <time>2014-12-17T14:48:38Z</time>
      </trkpt>
      <trkpt lat="43.44657" lon="6.04976">
        <ele>345.54318237305</ele>
        <time>2014-12-17T14:48:40Z</time>
      </trkpt>
      <trkpt lat="43.44654" lon="6.04993">
        <ele>344.49072265625</ele>
        <time>2014-12-17T14:48:44Z</time>
      </trkpt>
      <trkpt lat="43.44648" lon="6.05011">
        <ele>343.80392456055</ele>
        <time>2014-12-17T14:48:48Z</time>
      </trkpt>
      <trkpt lat="43.44645" lon="6.05015">
        <ele>343.78219604492</ele>
        <time>2014-12-17T14:48:49Z</time>
      </trkpt>
      <trkpt lat="43.4463" lon="6.05036">
        <ele>343.20373535156</ele>
        <time>2014-12-17T14:48:54Z</time>
      </trkpt>
      <trkpt lat="43.44626" lon="6.0507">
        <ele>340.9782409668</ele>
        <time>2014-12-17T14:48:59Z</time>
      </trkpt>
      <trkpt lat="43.44627" lon="6.05077">
        <ele>340.47994995117</ele>
        <time>2014-12-17T14:49:00Z</time>
      </trkpt>
      <trkpt lat="43.4463" lon="6.05091">
        <ele>339.66937255859</ele>
        <time>2014-12-17T14:49:02Z</time>
      </trkpt>
      <trkpt lat="43.44636" lon="6.05102">
        <ele>339.23126220703</ele>
        <time>2014-12-17T14:49:04Z</time>
      </trkpt>
      <trkpt lat="43.44644" lon="6.0511">
        <ele>339.00637817383</ele>
        <time>2014-12-17T14:49:06Z</time>
      </trkpt>
      <trkpt lat="43.44652" lon="6.05117">
        <ele>338.9114074707</ele>
        <time>2014-12-17T14:49:08Z</time>
      </trkpt>
      <trkpt lat="43.44661" lon="6.05127">
        <ele>338.79595947266</ele>
        <time>2014-12-17T14:49:11Z</time>
      </trkpt>
      <trkpt lat="43.44662" lon="6.05132">
        <ele>338.7087097168</ele>
        <time>2014-12-17T14:49:12Z</time>
      </trkpt>
      <trkpt lat="43.44663" lon="6.05136">
        <ele>338.61260986328</ele>
        <time>2014-12-17T14:49:13Z</time>
      </trkpt>
      <trkpt lat="43.4466" lon="6.05143">
        <ele>338.34732055664</ele>
        <time>2014-12-17T14:49:15Z</time>
      </trkpt>
      <trkpt lat="43.44655" lon="6.05149">
        <ele>338.00497436523</ele>
        <time>2014-12-17T14:49:17Z</time>
      </trkpt>
      <trkpt lat="43.4465" lon="6.05156">
        <ele>337.56677246094</ele>
        <time>2014-12-17T14:49:19Z</time>
      </trkpt>
      <trkpt lat="43.44634" lon="6.05161">
        <ele>336.68774414062</ele>
        <time>2014-12-17T14:49:23Z</time>
      </trkpt>
      <trkpt lat="43.4462" lon="6.05165">
        <ele>335.82067871094</ele>
        <time>2014-12-17T14:49:26Z</time>
      </trkpt>
      <trkpt lat="43.44601" lon="6.05174">
        <ele>335.7717590332</ele>
        <time>2014-12-17T14:49:30Z</time>
      </trkpt>
      <trkpt lat="43.44592" lon="6.05181">
        <ele>336.0876159668</ele>
        <time>2014-12-17T14:49:32Z</time>
      </trkpt>
      <trkpt lat="43.44585" lon="6.0519">
        <ele>336.90243530273</ele>
        <time>2014-12-17T14:49:34Z</time>
      </trkpt>
      <trkpt lat="43.44576" lon="6.05215">
        <ele>338.34066772461</ele>
        <time>2014-12-17T14:49:38Z</time>
      </trkpt>
      <trkpt lat="43.44555" lon="6.05249">
        <ele>337.1003112793</ele>
        <time>2014-12-17T14:49:45Z</time>
      </trkpt>
      <trkpt lat="43.44531" lon="6.05291">
        <ele>337.69479370117</ele>
        <time>2014-12-17T14:49:52Z</time>
      </trkpt>
      <trkpt lat="43.44523" lon="6.05303">
        <ele>337.16543579102</ele>
        <time>2014-12-17T14:49:54Z</time>
      </trkpt>
      <trkpt lat="43.44515" lon="6.05316">
        <ele>336.60339355469</ele>
        <time>2014-12-17T14:49:56Z</time>
      </trkpt>
      <trkpt lat="43.44511" lon="6.05323">
        <ele>336.12231445312</ele>
        <time>2014-12-17T14:49:57Z</time>
      </trkpt>
      <trkpt lat="43.44485" lon="6.05369">
        <ele>332.52658081055</ele>
        <time>2014-12-17T14:50:03Z</time>
      </trkpt>
      <trkpt lat="43.44481" lon="6.05379">
        <ele>331.9362487793</ele>
        <time>2014-12-17T14:50:04Z</time>
      </trkpt>
      <trkpt lat="43.44468" lon="6.05413">
        <ele>330.17926025391</ele>
        <time>2014-12-17T14:50:08Z</time>
      </trkpt>
      <trkpt lat="43.44463" lon="6.05428">
        <ele>329.49417114258</ele>
        <time>2014-12-17T14:50:10Z</time>
      </trkpt>
      <trkpt lat="43.4446" lon="6.05444">
        <ele>329.03771972656</ele>
        <time>2014-12-17T14:50:12Z</time>
      </trkpt>
      <trkpt lat="43.44457" lon="6.05451">
        <ele>328.59243774414</ele>
        <time>2014-12-17T14:50:13Z</time>
      </trkpt>
      <trkpt lat="43.44455" lon="6.05458">
        <ele>328.13244628906</ele>
        <time>2014-12-17T14:50:14Z</time>
      </trkpt>
      <trkpt lat="43.44453" lon="6.05465">
        <ele>327.67172241211</ele>
        <time>2014-12-17T14:50:15Z</time>
      </trkpt>
      <trkpt lat="43.44449" lon="6.05483">
        <ele>327.1181640625</ele>
        <time>2014-12-17T14:50:17Z</time>
      </trkpt>
      <trkpt lat="43.44447" lon="6.05492">
        <ele>326.85150146484</ele>
        <time>2014-12-17T14:50:18Z</time>
      </trkpt>
      <trkpt lat="43.44444" lon="6.05509">
        <ele>326.45266723633</ele>
        <time>2014-12-17T14:50:20Z</time>
      </trkpt>
      <trkpt lat="43.44443" lon="6.05516">
        <ele>326.08380126953</ele>
        <time>2014-12-17T14:50:21Z</time>
      </trkpt>
      <trkpt lat="43.44438" lon="6.05529">
        <ele>324.83422851562</ele>
        <time>2014-12-17T14:50:23Z</time>
      </trkpt>
      <trkpt lat="43.44426" lon="6.05567">
        <ele>321.76525878906</ele>
        <time>2014-12-17T14:50:27Z</time>
      </trkpt>
      <trkpt lat="43.44422" lon="6.05577">
        <ele>320.51422119141</ele>
        <time>2014-12-17T14:50:28Z</time>
      </trkpt>
      <trkpt lat="43.44412" lon="6.05595">
        <ele>317.69863891602</ele>
        <time>2014-12-17T14:50:30Z</time>
      </trkpt>
      <trkpt lat="43.44407" lon="6.05602">
        <ele>316.49645996094</ele>
        <time>2014-12-17T14:50:31Z</time>
      </trkpt>
      <trkpt lat="43.44402" lon="6.05607">
        <ele>315.27392578125</ele>
        <time>2014-12-17T14:50:32Z</time>
      </trkpt>
      <trkpt lat="43.44388" lon="6.05609">
        <ele>312.44030761719</ele>
        <time>2014-12-17T14:50:34Z</time>
      </trkpt>
      <trkpt lat="43.44373" lon="6.05606">
        <ele>309.29452514648</ele>
        <time>2014-12-17T14:50:36Z</time>
      </trkpt>
      <trkpt lat="43.44365" lon="6.05605">
        <ele>307.54898071289</ele>
        <time>2014-12-17T14:50:37Z</time>
      </trkpt>
      <trkpt lat="43.44348" lon="6.05605">
        <ele>304.10586547852</ele>
        <time>2014-12-17T14:50:39Z</time>
      </trkpt>
      <trkpt lat="43.44338" lon="6.05607">
        <ele>301.94400024414</ele>
        <time>2014-12-17T14:50:40Z</time>
      </trkpt>
      <trkpt lat="43.44317" lon="6.05609">
        <ele>299.64862060547</ele>
        <time>2014-12-17T14:50:42Z</time>
      </trkpt>
      <trkpt lat="43.44307" lon="6.05611">
        <ele>298.78344726562</ele>
        <time>2014-12-17T14:50:43Z</time>
      </trkpt>
      <trkpt lat="43.44297" lon="6.05614">
        <ele>297.91827392578</ele>
        <time>2014-12-17T14:50:44Z</time>
      </trkpt>
      <trkpt lat="43.44253" lon="6.05625">
        <ele>294.26531982422</ele>
        <time>2014-12-17T14:50:48Z</time>
      </trkpt>
      <trkpt lat="43.4423" lon="6.0563">
        <ele>292.31393432617</ele>
        <time>2014-12-17T14:50:50Z</time>
      </trkpt>
      <trkpt lat="43.44209" lon="6.05635">
        <ele>290.46224975586</ele>
        <time>2014-12-17T14:50:52Z</time>
      </trkpt>
      <trkpt lat="43.44191" lon="6.0564">
        <ele>288.75061035156</ele>
        <time>2014-12-17T14:50:54Z</time>
      </trkpt>
      <trkpt lat="43.44172" lon="6.05646">
        <ele>287.00659179688</ele>
        <time>2014-12-17T14:50:56Z</time>
      </trkpt>
      <trkpt lat="43.44164" lon="6.05649">
        <ele>286.17193603516</ele>
        <time>2014-12-17T14:50:57Z</time>
      </trkpt>
      <trkpt lat="43.44147" lon="6.05655">
        <ele>284.67385864258</ele>
        <time>2014-12-17T14:50:59Z</time>
      </trkpt>
      <trkpt lat="43.4414" lon="6.05658">
        <ele>284.03451538086</ele>
        <time>2014-12-17T14:51:00Z</time>
      </trkpt>
      <trkpt lat="43.44131" lon="6.05661">
        <ele>283.15274047852</ele>
        <time>2014-12-17T14:51:02Z</time>
      </trkpt>
      <trkpt lat="43.44127" lon="6.05662">
        <ele>282.83050537109</ele>
        <time>2014-12-17T14:51:03Z</time>
      </trkpt>
      <trkpt lat="43.44127" lon="6.05664">
        <ele>282.69735717773</ele>
        <time>2014-12-17T14:51:04Z</time>
      </trkpt>
      <trkpt lat="43.44126" lon="6.05668">
        <ele>282.57510375977</ele>
        <time>2014-12-17T14:51:06Z</time>
      </trkpt>
      <trkpt lat="43.44127" lon="6.05672">
        <ele>282.59649658203</ele>
        <time>2014-12-17T14:51:12Z</time>
      </trkpt>
      <trkpt lat="43.44127" lon="6.05672">
        <ele>282.59921264648</ele>
        <time>2014-12-17T14:51:32Z</time>
      </trkpt>
      <trkpt lat="43.44127" lon="6.05671">
        <ele>282.60012817383</ele>
        <time>2014-12-17T14:51:35Z</time>
      </trkpt>
      <trkpt lat="43.44127" lon="6.05672">
        <ele>282.59921264648</ele>
        <time>2014-12-17T14:51:57Z</time>
      </trkpt>
      <trkpt lat="43.44128" lon="6.05679">
        <ele>282.48254394531</ele>
        <time>2014-12-17T14:52:01Z</time>
      </trkpt>
      <trkpt lat="43.44128" lon="6.05686">
        <ele>282.40225219727</ele>
        <time>2014-12-17T14:52:03Z</time>
      </trkpt>
      <trkpt lat="43.44129" lon="6.05708">
        <ele>282.03485107422</ele>
        <time>2014-12-17T14:52:07Z</time>
      </trkpt>
      <trkpt lat="43.44128" lon="6.05754">
        <ele>281.09902954102</ele>
        <time>2014-12-17T14:52:14Z</time>
      </trkpt>
      <trkpt lat="43.44128" lon="6.0576">
        <ele>280.9560546875</ele>
        <time>2014-12-17T14:52:15Z</time>
      </trkpt>
      <trkpt lat="43.44126" lon="6.0579">
        <ele>280.32260131836</ele>
        <time>2014-12-17T14:52:19Z</time>
      </trkpt>
      <trkpt lat="43.44128" lon="6.05807">
        <ele>280.07229614258</ele>
        <time>2014-12-17T14:52:21Z</time>
      </trkpt>
      <trkpt lat="43.44131" lon="6.05816">
        <ele>280.03649902344</ele>
        <time>2014-12-17T14:52:22Z</time>
      </trkpt>
      <trkpt lat="43.44137" lon="6.05832">
        <ele>279.95950317383</ele>
        <time>2014-12-17T14:52:24Z</time>
      </trkpt>
      <trkpt lat="43.44141" lon="6.0584">
        <ele>280.07623291016</ele>
        <time>2014-12-17T14:52:25Z</time>
      </trkpt>
      <trkpt lat="43.44171" lon="6.05905">
        <ele>281.35079956055</ele>
        <time>2014-12-17T14:52:33Z</time>
      </trkpt>
      <trkpt lat="43.44177" lon="6.05922">
        <ele>281.76165771484</ele>
        <time>2014-12-17T14:52:35Z</time>
      </trkpt>
      <trkpt lat="43.44201" lon="6.05979">
        <ele>282.71728515625</ele>
        <time>2014-12-17T14:52:42Z</time>
      </trkpt>
      <trkpt lat="43.44205" lon="6.05988">
        <ele>282.88031005859</ele>
        <time>2014-12-17T14:52:43Z</time>
      </trkpt>
      <trkpt lat="43.44212" lon="6.06015">
        <ele>282.80075073242</ele>
        <time>2014-12-17T14:52:46Z</time>
      </trkpt>
      <trkpt lat="43.44216" lon="6.06035">
        <ele>282.4528503418</ele>
        <time>2014-12-17T14:52:48Z</time>
      </trkpt>
      <trkpt lat="43.44218" lon="6.06045">
        <ele>282.31036376953</ele>
        <time>2014-12-17T14:52:49Z</time>
      </trkpt>
      <trkpt lat="43.44225" lon="6.06084">
        <ele>281.59820556641</ele>
        <time>2014-12-17T14:52:53Z</time>
      </trkpt>
      <trkpt lat="43.44228" lon="6.06104">
        <ele>281.05197143555</ele>
        <time>2014-12-17T14:52:55Z</time>
      </trkpt>
      <trkpt lat="43.44231" lon="6.06124">
        <ele>280.48675537109</ele>
        <time>2014-12-17T14:52:57Z</time>
      </trkpt>
      <trkpt lat="43.44235" lon="6.06146">
        <ele>279.85931396484</ele>
        <time>2014-12-17T14:53:00Z</time>
      </trkpt>
      <trkpt lat="43.44236" lon="6.06151">
        <ele>279.66940307617</ele>
        <time>2014-12-17T14:53:01Z</time>
      </trkpt>
      <trkpt lat="43.4424" lon="6.06175">
        <ele>278.91674804688</ele>
        <time>2014-12-17T14:53:05Z</time>
      </trkpt>
      <trkpt lat="43.44245" lon="6.06201">
        <ele>278.02978515625</ele>
        <time>2014-12-17T14:53:09Z</time>
      </trkpt>
      <trkpt lat="43.44253" lon="6.06246">
        <ele>276.70300292969</ele>
        <time>2014-12-17T14:53:15Z</time>
      </trkpt>
      <trkpt lat="43.44259" lon="6.06288">
        <ele>275.58407592773</ele>
        <time>2014-12-17T14:53:20Z</time>
      </trkpt>
      <trkpt lat="43.44263" lon="6.06314">
        <ele>274.9660949707</ele>
        <time>2014-12-17T14:53:23Z</time>
      </trkpt>
      <trkpt lat="43.44267" lon="6.06342">
        <ele>274.26062011719</ele>
        <time>2014-12-17T14:53:26Z</time>
      </trkpt>
      <trkpt lat="43.4427" lon="6.06361">
        <ele>273.80877685547</ele>
        <time>2014-12-17T14:53:28Z</time>
      </trkpt>
      <trkpt lat="43.44275" lon="6.06391">
        <ele>273.20843505859</ele>
        <time>2014-12-17T14:53:31Z</time>
      </trkpt>
      <trkpt lat="43.44278" lon="6.06409">
        <ele>272.78500366211</ele>
        <time>2014-12-17T14:53:33Z</time>
      </trkpt>
      <trkpt lat="43.44281" lon="6.06427">
        <ele>272.0891418457</ele>
        <time>2014-12-17T14:53:35Z</time>
      </trkpt>
      <trkpt lat="43.44282" lon="6.06437">
        <ele>271.60278320312</ele>
        <time>2014-12-17T14:53:36Z</time>
      </trkpt>
      <trkpt lat="43.44284" lon="6.06456">
        <ele>270.65289306641</ele>
        <time>2014-12-17T14:53:38Z</time>
      </trkpt>
      <trkpt lat="43.44289" lon="6.06496">
        <ele>268.92199707031</ele>
        <time>2014-12-17T14:53:42Z</time>
      </trkpt>
      <trkpt lat="43.44291" lon="6.06506">
        <ele>268.52331542969</ele>
        <time>2014-12-17T14:53:43Z</time>
      </trkpt>
      <trkpt lat="43.443" lon="6.06543">
        <ele>267.29217529297</ele>
        <time>2014-12-17T14:53:47Z</time>
      </trkpt>
      <trkpt lat="43.44306" lon="6.0656">
        <ele>266.92224121094</ele>
        <time>2014-12-17T14:53:49Z</time>
      </trkpt>
      <trkpt lat="43.44323" lon="6.06601">
        <ele>265.98501586914</ele>
        <time>2014-12-17T14:53:54Z</time>
      </trkpt>
      <trkpt lat="43.44326" lon="6.06611">
        <ele>265.71948242188</ele>
        <time>2014-12-17T14:53:55Z</time>
      </trkpt>
      <trkpt lat="43.44333" lon="6.0663">
        <ele>265.19506835938</ele>
        <time>2014-12-17T14:53:57Z</time>
      </trkpt>
      <trkpt lat="43.44345" lon="6.0666">
        <ele>265.49758911133</ele>
        <time>2014-12-17T14:54:00Z</time>
      </trkpt>
      <trkpt lat="43.44349" lon="6.06669">
        <ele>265.62750244141</ele>
        <time>2014-12-17T14:54:01Z</time>
      </trkpt>
      <trkpt lat="43.44352" lon="6.0669">
        <ele>265.53494262695</ele>
        <time>2014-12-17T14:54:04Z</time>
      </trkpt>
      <trkpt lat="43.44345" lon="6.06694">
        <ele>264.09783935547</ele>
        <time>2014-12-17T14:54:06Z</time>
      </trkpt>
      <trkpt lat="43.4434" lon="6.06694">
        <ele>263.20687866211</ele>
        <time>2014-12-17T14:54:07Z</time>
      </trkpt>
      <trkpt lat="43.44318" lon="6.06696">
        <ele>261.08453369141</ele>
        <time>2014-12-17T14:54:11Z</time>
      </trkpt>
      <trkpt lat="43.44299" lon="6.06698">
        <ele>259.93658447266</ele>
        <time>2014-12-17T14:54:14Z</time>
      </trkpt>
      <trkpt lat="43.44241" lon="6.06708">
        <ele>256.90393066406</ele>
        <time>2014-12-17T14:54:23Z</time>
      </trkpt>
      <trkpt lat="43.44234" lon="6.06709">
        <ele>256.78265380859</ele>
        <time>2014-12-17T14:54:24Z</time>
      </trkpt>
      <trkpt lat="43.4418" lon="6.0672">
        <ele>255.86940002441</ele>
        <time>2014-12-17T14:54:32Z</time>
      </trkpt>
      <trkpt lat="43.44167" lon="6.06723">
        <ele>255.64166259766</ele>
        <time>2014-12-17T14:54:34Z</time>
      </trkpt>
      <trkpt lat="43.44154" lon="6.06727">
        <ele>255.54446411133</ele>
        <time>2014-12-17T14:54:36Z</time>
      </trkpt>
      <trkpt lat="43.44147" lon="6.0673">
        <ele>255.48381042481</ele>
        <time>2014-12-17T14:54:37Z</time>
      </trkpt>
      <trkpt lat="43.44122" lon="6.0674">
        <ele>255.24462890625</ele>
        <time>2014-12-17T14:54:41Z</time>
      </trkpt>
      <trkpt lat="43.44107" lon="6.06743">
        <ele>255.16795349121</ele>
        <time>2014-12-17T14:54:43Z</time>
      </trkpt>
      <trkpt lat="43.4408" lon="6.06747">
        <ele>255.06953430176</ele>
        <time>2014-12-17T14:54:47Z</time>
      </trkpt>
      <trkpt lat="43.44059" lon="6.06753">
        <ele>254.92762756348</ele>
        <time>2014-12-17T14:54:50Z</time>
      </trkpt>
      <trkpt lat="43.4404" lon="6.06759">
        <ele>254.77542114258</ele>
        <time>2014-12-17T14:54:53Z</time>
      </trkpt>
      <trkpt lat="43.44004" lon="6.06772">
        <ele>254.46528625488</ele>
        <time>2014-12-17T14:54:59Z</time>
      </trkpt>
      <trkpt lat="43.43962" lon="6.06781">
        <ele>253.80216979981</ele>
        <time>2014-12-17T14:55:07Z</time>
      </trkpt>
      <trkpt lat="43.43927" lon="6.06789">
        <ele>253.17846679688</ele>
        <time>2014-12-17T14:55:13Z</time>
      </trkpt>
      <trkpt lat="43.43892" lon="6.06794">
        <ele>252.65547180176</ele>
        <time>2014-12-17T14:55:19Z</time>
      </trkpt>
      <trkpt lat="43.43888" lon="6.06794">
        <ele>252.60282897949</ele>
        <time>2014-12-17T14:55:20Z</time>
      </trkpt>
      <trkpt lat="43.43882" lon="6.06795">
        <ele>252.50555419922</ele>
        <time>2014-12-17T14:55:23Z</time>
      </trkpt>
      <trkpt lat="43.4388" lon="6.06795">
        <ele>252.47465515137</ele>
        <time>2014-12-17T14:55:25Z</time>
      </trkpt>
      <trkpt lat="43.4388" lon="6.06796">
        <ele>252.45634460449</ele>
        <time>2014-12-17T14:55:45Z</time>
      </trkpt>
      <trkpt lat="43.43879" lon="6.06797">
        <ele>252.42086791992</ele>
        <time>2014-12-17T14:55:53Z</time>
      </trkpt>
      <trkpt lat="43.43877" lon="6.068">
        <ele>252.33045959473</ele>
        <time>2014-12-17T14:55:55Z</time>
      </trkpt>
      <trkpt lat="43.43875" lon="6.06804">
        <ele>252.2080078125</ele>
        <time>2014-12-17T14:55:57Z</time>
      </trkpt>
      <trkpt lat="43.43874" lon="6.06816">
        <ele>251.90130615234</ele>
        <time>2014-12-17T14:56:00Z</time>
      </trkpt>
      <trkpt lat="43.43871" lon="6.06849">
        <ele>251.07847595215</ele>
        <time>2014-12-17T14:56:05Z</time>
      </trkpt>
      <trkpt lat="43.43866" lon="6.06891">
        <ele>250.0050201416</ele>
        <time>2014-12-17T14:56:10Z</time>
      </trkpt>
      <trkpt lat="43.4386" lon="6.06931">
        <ele>248.98878479004</ele>
        <time>2014-12-17T14:56:16Z</time>
      </trkpt>
      <trkpt lat="43.4385" lon="6.06946">
        <ele>248.50241088867</ele>
        <time>2014-12-17T14:56:20Z</time>
      </trkpt>
      <trkpt lat="43.43845" lon="6.06955">
        <ele>248.22660827637</ele>
        <time>2014-12-17T14:56:22Z</time>
      </trkpt>
      <trkpt lat="43.43843" lon="6.06966">
        <ele>247.94508361816</ele>
        <time>2014-12-17T14:56:24Z</time>
      </trkpt>
      <trkpt lat="43.43833" lon="6.06986">
        <ele>247.32696533203</ele>
        <time>2014-12-17T14:56:28Z</time>
      </trkpt>
      <trkpt lat="43.4381" lon="6.07016">
        <ele>246.10461425781</ele>
        <time>2014-12-17T14:56:34Z</time>
      </trkpt>
      <trkpt lat="43.43806" lon="6.07021">
        <ele>245.92716979981</ele>
        <time>2014-12-17T14:56:35Z</time>
      </trkpt>
      <trkpt lat="43.43768" lon="6.0706">
        <ele>244.55841064453</ele>
        <time>2014-12-17T14:56:43Z</time>
      </trkpt>
      <trkpt lat="43.43754" lon="6.07076">
        <ele>244.14227294922</ele>
        <time>2014-12-17T14:56:46Z</time>
      </trkpt>
      <trkpt lat="43.43744" lon="6.07085">
        <ele>243.82864379883</ele>
        <time>2014-12-17T14:56:48Z</time>
      </trkpt>
      <trkpt lat="43.43735" lon="6.07093">
        <ele>243.39834594727</ele>
        <time>2014-12-17T14:56:50Z</time>
      </trkpt>
      <trkpt lat="43.43721" lon="6.07106">
        <ele>242.75747680664</ele>
        <time>2014-12-17T14:56:53Z</time>
      </trkpt>
      <trkpt lat="43.437" lon="6.07119">
        <ele>241.94380187988</ele>
        <time>2014-12-17T14:56:57Z</time>
      </trkpt>
      <trkpt lat="43.43683" lon="6.07123">
        <ele>241.44483947754</ele>
        <time>2014-12-17T14:57:00Z</time>
      </trkpt>
      <trkpt lat="43.43673" lon="6.07122">
        <ele>241.20565795898</ele>
        <time>2014-12-17T14:57:02Z</time>
      </trkpt>
      <trkpt lat="43.43641" lon="6.07116">
        <ele>241.22439575195</ele>
        <time>2014-12-17T14:57:09Z</time>
      </trkpt>
      <trkpt lat="43.43604" lon="6.07105">
        <ele>241.47616577148</ele>
        <time>2014-12-17T14:57:18Z</time>
      </trkpt>
      <trkpt lat="43.43582" lon="6.07098">
        <ele>241.63729858398</ele>
        <time>2014-12-17T14:57:25Z</time>
      </trkpt>
      <trkpt lat="43.43563" lon="6.07091">
        <ele>241.58619689941</ele>
        <time>2014-12-17T14:57:33Z</time>
      </trkpt>
      <trkpt lat="43.43555" lon="6.07089">
        <ele>241.54228210449</ele>
        <time>2014-12-17T14:57:38Z</time>
      </trkpt>
      <trkpt lat="43.43555" lon="6.07089">
        <ele>241.54893493652</ele>
        <time>2014-12-17T14:57:42Z</time>
      </trkpt>
      <trkpt lat="43.43555" lon="6.07089">
        <ele>241.54893493652</ele>
        <time>2014-12-17T14:57:45Z</time>
      </trkpt>
      <trkpt lat="43.43553" lon="6.07088">
        <ele>241.55102539062</ele>
        <time>2014-12-17T14:57:54Z</time>
      </trkpt>
      <trkpt lat="43.43553" lon="6.07087">
        <ele>241.56134033203</ele>
        <time>2014-12-17T14:58:04Z</time>
      </trkpt>
      <trkpt lat="43.43553" lon="6.07087">
        <ele>241.56695556641</ele>
        <time>2014-12-17T14:58:19Z</time>
      </trkpt>
      <trkpt lat="43.43554" lon="6.07086">
        <ele>241.59013366699</ele>
        <time>2014-12-17T14:58:44Z</time>
      </trkpt>
      <trkpt lat="43.43554" lon="6.07086">
        <ele>241.59201049805</ele>
        <time>2014-12-17T14:58:46Z</time>
      </trkpt>
      <trkpt lat="43.43554" lon="6.07086">
        <ele>241.59390258789</ele>
        <time>2014-12-17T14:58:55Z</time>
      </trkpt>
      <trkpt lat="43.43554" lon="6.07086">
        <ele>241.59390258789</ele>
        <time>2014-12-17T14:59:03Z</time>
      </trkpt>
      <trkpt lat="43.43554" lon="6.07086">
        <ele>241.59107971191</ele>
        <time>2014-12-17T14:59:44Z</time>
      </trkpt>
      <trkpt lat="43.43554" lon="6.07086">
        <ele>241.58638000488</ele>
        <time>2014-12-17T14:59:54Z</time>
      </trkpt>
      <trkpt lat="43.43552" lon="6.07086">
        <ele>241.57684326172</ele>
        <time>2014-12-17T15:00:00Z</time>
      </trkpt>
      <trkpt lat="43.43549" lon="6.07085">
        <ele>241.55244445801</ele>
        <time>2014-12-17T15:00:03Z</time>
      </trkpt>
      <trkpt lat="43.43546" lon="6.07084">
        <ele>241.54510498047</ele>
        <time>2014-12-17T15:00:04Z</time>
      </trkpt>
      <trkpt lat="43.43539" lon="6.07082">
        <ele>241.49537658691</ele>
        <time>2014-12-17T15:00:07Z</time>
      </trkpt>
      <trkpt lat="43.43533" lon="6.07081">
        <ele>241.46362304688</ele>
        <time>2014-12-17T15:00:09Z</time>
      </trkpt>
      <trkpt lat="43.43512" lon="6.07074">
        <ele>241.38076782227</ele>
        <time>2014-12-17T15:00:15Z</time>
      </trkpt>
      <trkpt lat="43.43499" lon="6.0707">
        <ele>241.30548095703</ele>
        <time>2014-12-17T15:00:19Z</time>
      </trkpt>
      <trkpt lat="43.43484" lon="6.07065">
        <ele>241.15698242188</ele>
        <time>2014-12-17T15:00:23Z</time>
      </trkpt>
      <trkpt lat="43.43477" lon="6.07063">
        <ele>241.07913208008</ele>
        <time>2014-12-17T15:00:25Z</time>
      </trkpt>
      <trkpt lat="43.43469" lon="6.0706">
        <ele>240.98986816406</ele>
        <time>2014-12-17T15:00:28Z</time>
      </trkpt>
      <trkpt lat="43.43462" lon="6.07057">
        <ele>240.88882446289</ele>
        <time>2014-12-17T15:00:31Z</time>
      </trkpt>
      <trkpt lat="43.43441" lon="6.07052">
        <ele>240.52020263672</ele>
        <time>2014-12-17T15:00:36Z</time>
      </trkpt>
      <trkpt lat="43.43414" lon="6.07044">
        <ele>240</ele>
        <time>2014-12-17T15:00:41Z</time>
      </trkpt>
      <trkpt lat="43.43401" lon="6.0704">
        <ele>240</ele>
        <time>2014-12-17T15:00:43Z</time>
      </trkpt>
      <trkpt lat="43.43382" lon="6.07035">
        <ele>240</ele>
        <time>2014-12-17T15:00:46Z</time>
      </trkpt>
      <trkpt lat="43.43351" lon="6.07024">
        <ele>240</ele>
        <time>2014-12-17T15:00:51Z</time>
      </trkpt>
      <trkpt lat="43.43327" lon="6.07014">
        <ele>241.16020202637</ele>
        <time>2014-12-17T15:00:56Z</time>
      </trkpt>
      <trkpt lat="43.43313" lon="6.07011">
        <ele>243.70803833008</ele>
        <time>2014-12-17T15:00:59Z</time>
      </trkpt>
      <trkpt lat="43.43301" lon="6.07012">
        <ele>246.00604248047</ele>
        <time>2014-12-17T15:01:02Z</time>
      </trkpt>
      <trkpt lat="43.43296" lon="6.07013">
        <ele>246.74244689941</ele>
        <time>2014-12-17T15:01:03Z</time>
      </trkpt>
      <trkpt lat="43.43287" lon="6.07015">
        <ele>248.40844726562</ele>
        <time>2014-12-17T15:01:06Z</time>
      </trkpt>
      <trkpt lat="43.43285" lon="6.07013">
        <ele>248.74731445312</ele>
        <time>2014-12-17T15:01:07Z</time>
      </trkpt>
      <trkpt lat="43.43282" lon="6.07">
        <ele>249.95558166504</ele>
        <time>2014-12-17T15:01:12Z</time>
      </trkpt>
      <trkpt lat="43.43284" lon="6.06979">
        <ele>250.31117248535</ele>
        <time>2014-12-17T15:01:17Z</time>
      </trkpt>
      <trkpt lat="43.43287" lon="6.0696">
        <ele>250.34182739258</ele>
        <time>2014-12-17T15:01:21Z</time>
      </trkpt>
      <trkpt lat="43.43287" lon="6.06937">
        <ele>251.25531005859</ele>
        <time>2014-12-17T15:01:26Z</time>
      </trkpt>
      <trkpt lat="43.43286" lon="6.06924">
        <ele>251.90313720703</ele>
        <time>2014-12-17T15:01:29Z</time>
      </trkpt>
      <trkpt lat="43.43284" lon="6.06913">
        <ele>252.70112609863</ele>
        <time>2014-12-17T15:01:32Z</time>
      </trkpt>
      <trkpt lat="43.43284" lon="6.06911">
        <ele>252.78112792969</ele>
        <time>2014-12-17T15:01:33Z</time>
      </trkpt>
      <trkpt lat="43.43284" lon="6.06903">
        <ele>253.08071899414</ele>
        <time>2014-12-17T15:01:36Z</time>
      </trkpt>
      <trkpt lat="43.43284" lon="6.06901">
        <ele>253.15093994141</ele>
        <time>2014-12-17T15:01:37Z</time>
      </trkpt>
      <trkpt lat="43.43285" lon="6.06893">
        <ele>253.04266357422</ele>
        <time>2014-12-17T15:01:41Z</time>
      </trkpt>
      <trkpt lat="43.43286" lon="6.06891">
        <ele>253.02688598633</ele>
        <time>2014-12-17T15:01:42Z</time>
      </trkpt>
      <trkpt lat="43.43285" lon="6.0688">
        <ele>253.50317382812</ele>
        <time>2014-12-17T15:01:48Z</time>
      </trkpt>
      <trkpt lat="43.43285" lon="6.06875">
        <ele>253.74249267578</ele>
        <time>2014-12-17T15:01:51Z</time>
      </trkpt>
      <trkpt lat="43.43283" lon="6.06869">
        <ele>254.1339263916</ele>
        <time>2014-12-17T15:01:54Z</time>
      </trkpt>
      <trkpt lat="43.43281" lon="6.06862">
        <ele>254.83280944824</ele>
        <time>2014-12-17T15:01:58Z</time>
      </trkpt>
      <trkpt lat="43.4328" lon="6.06857">
        <ele>255.28376770019</ele>
        <time>2014-12-17T15:02:01Z</time>
      </trkpt>
      <trkpt lat="43.43277" lon="6.06845">
        <ele>256.16735839844</ele>
        <time>2014-12-17T15:02:07Z</time>
      </trkpt>
      <trkpt lat="43.43274" lon="6.0683">
        <ele>257.04138183594</ele>
        <time>2014-12-17T15:02:14Z</time>
      </trkpt>
      <trkpt lat="43.4327" lon="6.06812">
        <ele>257.44842529297</ele>
        <time>2014-12-17T15:02:22Z</time>
      </trkpt>
      <trkpt lat="43.43267" lon="6.06803">
        <ele>257.72814941406</ele>
        <time>2014-12-17T15:02:26Z</time>
      </trkpt>
      <trkpt lat="43.43265" lon="6.06796">
        <ele>257.95593261719</ele>
        <time>2014-12-17T15:02:29Z</time>
      </trkpt>
      <trkpt lat="43.4326" lon="6.0678">
        <ele>258.36700439453</ele>
        <time>2014-12-17T15:02:35Z</time>
      </trkpt>
      <trkpt lat="43.4325" lon="6.06753">
        <ele>259.19189453125</ele>
        <time>2014-12-17T15:02:45Z</time>
      </trkpt>
      <trkpt lat="43.43239" lon="6.06732">
        <ele>260.97790527344</ele>
        <time>2014-12-17T15:02:53Z</time>
      </trkpt>
      <trkpt lat="43.43225" lon="6.06714">
        <ele>263.25668334961</ele>
        <time>2014-12-17T15:03:00Z</time>
      </trkpt>
      <trkpt lat="43.43216" lon="6.06698">
        <ele>264.63916015625</ele>
        <time>2014-12-17T15:03:06Z</time>
      </trkpt>
      <trkpt lat="43.4321" lon="6.06691">
        <ele>265.40228271484</ele>
        <time>2014-12-17T15:03:09Z</time>
      </trkpt>
      <trkpt lat="43.43207" lon="6.06673">
        <ele>265.40203857422</ele>
        <time>2014-12-17T15:03:14Z</time>
      </trkpt>
      <trkpt lat="43.43203" lon="6.0666">
        <ele>265.81811523438</ele>
        <time>2014-12-17T15:03:18Z</time>
      </trkpt>
      <trkpt lat="43.43201" lon="6.06645">
        <ele>265.7663269043</ele>
        <time>2014-12-17T15:03:22Z</time>
      </trkpt>
      <trkpt lat="43.43195" lon="6.06629">
        <ele>266.28375244141</ele>
        <time>2014-12-17T15:03:27Z</time>
      </trkpt>
      <trkpt lat="43.43189" lon="6.06614">
        <ele>266.87240600586</ele>
        <time>2014-12-17T15:03:32Z</time>
      </trkpt>
      <trkpt lat="43.43184" lon="6.06597">
        <ele>267.11135864258</ele>
        <time>2014-12-17T15:03:38Z</time>
      </trkpt>
      <trkpt lat="43.43183" lon="6.06594">
        <ele>267.18182373047</ele>
        <time>2014-12-17T15:03:39Z</time>
      </trkpt>
      <trkpt lat="43.43178" lon="6.0658">
        <ele>267.46704101562</ele>
        <time>2014-12-17T15:03:44Z</time>
      </trkpt>
      <trkpt lat="43.43173" lon="6.06566">
        <ele>267.78979492188</ele>
        <time>2014-12-17T15:03:51Z</time>
      </trkpt>
      <trkpt lat="43.43169" lon="6.06559">
        <ele>268.15905761719</ele>
        <time>2014-12-17T15:03:56Z</time>
      </trkpt>
      <trkpt lat="43.43167" lon="6.06555">
        <ele>268.3205871582</ele>
        <time>2014-12-17T15:03:58Z</time>
      </trkpt>
      <trkpt lat="43.43159" lon="6.06542">
        <ele>269.33636474609</ele>
        <time>2014-12-17T15:04:06Z</time>
      </trkpt>
      <trkpt lat="43.43152" lon="6.06532">
        <ele>270.16549682617</ele>
        <time>2014-12-17T15:04:12Z</time>
      </trkpt>
      <trkpt lat="43.4315" lon="6.0653">
        <ele>270.39736938477</ele>
        <time>2014-12-17T15:04:14Z</time>
      </trkpt>
      <trkpt lat="43.43145" lon="6.0652">
        <ele>271.04348754883</ele>
        <time>2014-12-17T15:04:20Z</time>
      </trkpt>
      <trkpt lat="43.43136" lon="6.06511">
        <ele>272.11938476562</ele>
        <time>2014-12-17T15:04:26Z</time>
      </trkpt>
      <trkpt lat="43.43134" lon="6.0651">
        <ele>272.38973999023</ele>
        <time>2014-12-17T15:04:27Z</time>
      </trkpt>
      <trkpt lat="43.4313" lon="6.06506">
        <ele>272.90692138672</ele>
        <time>2014-12-17T15:04:30Z</time>
      </trkpt>
      <trkpt lat="43.43127" lon="6.06501">
        <ele>273.2278137207</ele>
        <time>2014-12-17T15:04:33Z</time>
      </trkpt>
      <trkpt lat="43.43126" lon="6.065">
        <ele>273.36248779297</ele>
        <time>2014-12-17T15:04:34Z</time>
      </trkpt>
      <trkpt lat="43.43118" lon="6.06492">
        <ele>274.25018310547</ele>
        <time>2014-12-17T15:04:40Z</time>
      </trkpt>
      <trkpt lat="43.43111" lon="6.06483">
        <ele>274.85375976562</ele>
        <time>2014-12-17T15:04:46Z</time>
      </trkpt>
      <trkpt lat="43.4311" lon="6.06478">
        <ele>274.86679077148</ele>
        <time>2014-12-17T15:04:49Z</time>
      </trkpt>
      <trkpt lat="43.43109" lon="6.06474">
        <ele>274.81018066406</ele>
        <time>2014-12-17T15:04:51Z</time>
      </trkpt>
      <trkpt lat="43.43106" lon="6.06459">
        <ele>274.67297363281</ele>
        <time>2014-12-17T15:04:58Z</time>
      </trkpt>
      <trkpt lat="43.43104" lon="6.06454">
        <ele>274.70028686523</ele>
        <time>2014-12-17T15:05:00Z</time>
      </trkpt>
      <trkpt lat="43.431" lon="6.06446">
        <ele>275.00338745117</ele>
        <time>2014-12-17T15:05:05Z</time>
      </trkpt>
      <trkpt lat="43.43097" lon="6.06434">
        <ele>274.91723632812</ele>
        <time>2014-12-17T15:05:11Z</time>
      </trkpt>
      <trkpt lat="43.43095" lon="6.06433">
        <ele>275.00112915039</ele>
        <time>2014-12-17T15:05:12Z</time>
      </trkpt>
      <trkpt lat="43.43094" lon="6.06431">
        <ele>275.0910949707</ele>
        <time>2014-12-17T15:05:13Z</time>
      </trkpt>
      <trkpt lat="43.43092" lon="6.06425">
        <ele>275.18420410156</ele>
        <time>2014-12-17T15:05:18Z</time>
      </trkpt>
      <trkpt lat="43.43092" lon="6.06423">
        <ele>274.99331665039</ele>
        <time>2014-12-17T15:05:24Z</time>
      </trkpt>
      <trkpt lat="43.43093" lon="6.06423">
        <ele>274.82748413086</ele>
        <time>2014-12-17T15:05:28Z</time>
      </trkpt>
      <trkpt lat="43.43093" lon="6.06423">
        <ele>274.82525634766</ele>
        <time>2014-12-17T15:05:35Z</time>
      </trkpt>
      <trkpt lat="43.43093" lon="6.06423">
        <ele>274.86944580078</ele>
        <time>2014-12-17T15:05:39Z</time>
      </trkpt>
      <trkpt lat="43.43093" lon="6.06423">
        <ele>274.86721801758</ele>
        <time>2014-12-17T15:05:40Z</time>
      </trkpt>
      <trkpt lat="43.43093" lon="6.06422">
        <ele>274.91580200195</ele>
        <time>2014-12-17T15:05:43Z</time>
      </trkpt>
      <trkpt lat="43.43093" lon="6.06422">
        <ele>274.91357421875</ele>
        <time>2014-12-17T15:05:46Z</time>
      </trkpt>
      <trkpt lat="43.43093" lon="6.06422">
        <ele>274.91357421875</ele>
        <time>2014-12-17T15:05:50Z</time>
      </trkpt>
      <trkpt lat="43.43092" lon="6.06422">
        <ele>275.00399780273</ele>
        <time>2014-12-17T15:06:17Z</time>
      </trkpt>
      <trkpt lat="43.43092" lon="6.06422">
        <ele>275.05697631836</ele>
        <time>2014-12-17T15:06:21Z</time>
      </trkpt>
      <trkpt lat="43.43092" lon="6.06422">
        <ele>275.05697631836</ele>
        <time>2014-12-17T15:06:28Z</time>
      </trkpt>
      <trkpt lat="43.43092" lon="6.06422">
        <ele>274.99954223633</ele>
        <time>2014-12-17T15:06:38Z</time>
      </trkpt>
      <trkpt lat="43.43092" lon="6.06422">
        <ele>274.99731445312</ele>
        <time>2014-12-17T15:06:40Z</time>
      </trkpt>
      <trkpt lat="43.43092" lon="6.06417">
        <ele>274.80847167969</ele>
        <time>2014-12-17T15:06:47Z</time>
      </trkpt>
      <trkpt lat="43.4309" lon="6.06411">
        <ele>274.90185546875</ele>
        <time>2014-12-17T15:06:50Z</time>
      </trkpt>
      <trkpt lat="43.4309" lon="6.06407">
        <ele>274.85409545898</ele>
        <time>2014-12-17T15:06:52Z</time>
      </trkpt>
      <trkpt lat="43.43089" lon="6.06405">
        <ele>274.86877441406</ele>
        <time>2014-12-17T15:06:53Z</time>
      </trkpt>
      <trkpt lat="43.43089" lon="6.064">
        <ele>274.82019042969</ele>
        <time>2014-12-17T15:06:55Z</time>
      </trkpt>
      <trkpt lat="43.43084" lon="6.06379">
        <ele>274.99822998047</ele>
        <time>2014-12-17T15:07:03Z</time>
      </trkpt>
      <trkpt lat="43.43082" lon="6.06375">
        <ele>275.06726074219</ele>
        <time>2014-12-17T15:07:04Z</time>
      </trkpt>
      <trkpt lat="43.43076" lon="6.06364">
        <ele>275.31094360352</ele>
        <time>2014-12-17T15:07:08Z</time>
      </trkpt>
      <trkpt lat="43.43061" lon="6.06356">
        <ele>276.00274658203</ele>
        <time>2014-12-17T15:07:14Z</time>
      </trkpt>
      <trkpt lat="43.43054" lon="6.0635">
        <ele>276.23196411133</ele>
        <time>2014-12-17T15:07:18Z</time>
      </trkpt>
      <trkpt lat="43.43052" lon="6.06348">
        <ele>276.28237915039</ele>
        <time>2014-12-17T15:07:19Z</time>
      </trkpt>
      <trkpt lat="43.4305" lon="6.06348">
        <ele>276.35607910156</ele>
        <time>2014-12-17T15:07:20Z</time>
      </trkpt>
      <trkpt lat="43.43042" lon="6.06343">
        <ele>276.52783203125</ele>
        <time>2014-12-17T15:07:23Z</time>
      </trkpt>
      <trkpt lat="43.43038" lon="6.06333">
        <ele>276.24432373047</ele>
        <time>2014-12-17T15:07:27Z</time>
      </trkpt>
      <trkpt lat="43.43032" lon="6.0632">
        <ele>277.57580566406</ele>
        <time>2014-12-17T15:07:32Z</time>
      </trkpt>
      <trkpt lat="43.43024" lon="6.06315">
        <ele>278.34518432617</ele>
        <time>2014-12-17T15:07:36Z</time>
      </trkpt>
      <trkpt lat="43.43019" lon="6.06315">
        <ele>278.58865356445</ele>
        <time>2014-12-17T15:07:38Z</time>
      </trkpt>
      <trkpt lat="43.43006" lon="6.06315">
        <ele>279.28100585938</ele>
        <time>2014-12-17T15:07:44Z</time>
      </trkpt>
      <trkpt lat="43.42996" lon="6.06312">
        <ele>280.09020996094</ele>
        <time>2014-12-17T15:07:49Z</time>
      </trkpt>
      <trkpt lat="43.4299" lon="6.0631">
        <ele>280.75149536133</ele>
        <time>2014-12-17T15:07:52Z</time>
      </trkpt>
      <trkpt lat="43.42984" lon="6.06307">
        <ele>281.44021606445</ele>
        <time>2014-12-17T15:07:55Z</time>
      </trkpt>
      <trkpt lat="43.42978" lon="6.06308">
        <ele>281.9059753418</ele>
        <time>2014-12-17T15:07:58Z</time>
      </trkpt>
      <trkpt lat="43.42972" lon="6.06309">
        <ele>282.26403808594</ele>
        <time>2014-12-17T15:08:01Z</time>
      </trkpt>
      <trkpt lat="43.42964" lon="6.06306">
        <ele>283.01760864258</ele>
        <time>2014-12-17T15:08:06Z</time>
      </trkpt>
      <trkpt lat="43.42955" lon="6.06296">
        <ele>284.2512512207</ele>
        <time>2014-12-17T15:08:13Z</time>
      </trkpt>
      <trkpt lat="43.42952" lon="6.06293">
        <ele>284.58068847656</ele>
        <time>2014-12-17T15:08:15Z</time>
      </trkpt>
      <trkpt lat="43.4295" lon="6.0629">
        <ele>284.86676025391</ele>
        <time>2014-12-17T15:08:17Z</time>
      </trkpt>
      <trkpt lat="43.42947" lon="6.06287">
        <ele>285.19830322266</ele>
        <time>2014-12-17T15:08:19Z</time>
      </trkpt>
      <trkpt lat="43.42942" lon="6.06285">
        <ele>285.6208190918</ele>
        <time>2014-12-17T15:08:23Z</time>
      </trkpt>
      <trkpt lat="43.42939" lon="6.06284">
        <ele>285.8298034668</ele>
        <time>2014-12-17T15:08:25Z</time>
      </trkpt>
      <trkpt lat="43.42936" lon="6.06284">
        <ele>286.05380249023</ele>
        <time>2014-12-17T15:08:28Z</time>
      </trkpt>
      <trkpt lat="43.42934" lon="6.06287">
        <ele>286.01400756836</ele>
        <time>2014-12-17T15:08:30Z</time>
      </trkpt>
      <trkpt lat="43.4293" lon="6.06295">
        <ele>286.00848388672</ele>
        <time>2014-12-17T15:08:34Z</time>
      </trkpt>
      <trkpt lat="43.42929" lon="6.06296">
        <ele>286.07186889648</ele>
        <time>2014-12-17T15:08:35Z</time>
      </trkpt>
      <trkpt lat="43.42927" lon="6.06297">
        <ele>286.17205810547</ele>
        <time>2014-12-17T15:08:36Z</time>
      </trkpt>
      <trkpt lat="43.42925" lon="6.06299">
        <ele>286.24362182617</ele>
        <time>2014-12-17T15:08:38Z</time>
      </trkpt>
      <trkpt lat="43.42924" lon="6.063">
        <ele>286.23260498047</ele>
        <time>2014-12-17T15:08:39Z</time>
      </trkpt>
      <trkpt lat="43.42921" lon="6.06302">
        <ele>286.38977050781</ele>
        <time>2014-12-17T15:08:42Z</time>
      </trkpt>
      <trkpt lat="43.42921" lon="6.06303">
        <ele>286.42422485352</ele>
        <time>2014-12-17T15:08:43Z</time>
      </trkpt>
      <trkpt lat="43.42921" lon="6.06304">
        <ele>286.40628051758</ele>
        <time>2014-12-17T15:08:45Z</time>
      </trkpt>
      <trkpt lat="43.4292" lon="6.06304">
        <ele>286.46081542969</ele>
        <time>2014-12-17T15:08:51Z</time>
      </trkpt>
      <trkpt lat="43.4292" lon="6.06304">
        <ele>286.46081542969</ele>
        <time>2014-12-17T15:08:55Z</time>
      </trkpt>
      <trkpt lat="43.4292" lon="6.06304">
        <ele>286.45956420898</ele>
        <time>2014-12-17T15:09:02Z</time>
      </trkpt>
      <trkpt lat="43.42919" lon="6.06304">
        <ele>286.51055908203</ele>
        <time>2014-12-17T15:09:13Z</time>
      </trkpt>
      <trkpt lat="43.42919" lon="6.06304">
        <ele>286.51303100586</ele>
        <time>2014-12-17T15:09:17Z</time>
      </trkpt>
      <trkpt lat="43.42919" lon="6.06304">
        <ele>286.51303100586</ele>
        <time>2014-12-17T15:09:27Z</time>
      </trkpt>
      <trkpt lat="43.42919" lon="6.06304">
        <ele>286.51547241211</ele>
        <time>2014-12-17T15:09:45Z</time>
      </trkpt>
      <trkpt lat="43.42919" lon="6.06304">
        <ele>286.51916503906</ele>
        <time>2014-12-17T15:10:07Z</time>
      </trkpt>
      <trkpt lat="43.42919" lon="6.06304">
        <ele>286.51181030273</ele>
        <time>2014-12-17T15:10:15Z</time>
      </trkpt>
      <trkpt lat="43.42918" lon="6.06304">
        <ele>286.60720825195</ele>
        <time>2014-12-17T15:10:20Z</time>
      </trkpt>
      <trkpt lat="43.42918" lon="6.06304">
        <ele>286.57626342773</ele>
        <time>2014-12-17T15:10:27Z</time>
      </trkpt>
      <trkpt lat="43.42918" lon="6.06304">
        <ele>286.57748413086</ele>
        <time>2014-12-17T15:10:39Z</time>
      </trkpt>
      <trkpt lat="43.42918" lon="6.06304">
        <ele>286.57867431641</ele>
        <time>2014-12-17T15:10:44Z</time>
      </trkpt>
      <trkpt lat="43.42918" lon="6.06304">
        <ele>286.58108520508</ele>
        <time>2014-12-17T15:10:45Z</time>
      </trkpt>
      <trkpt lat="43.42918" lon="6.06303">
        <ele>286.59069824219</ele>
        <time>2014-12-17T15:10:47Z</time>
      </trkpt>
      <trkpt lat="43.42918" lon="6.06303">
        <ele>286.59915161133</ele>
        <time>2014-12-17T15:10:50Z</time>
      </trkpt>
      <trkpt lat="43.42918" lon="6.06303">
        <ele>286.59915161133</ele>
        <time>2014-12-17T15:10:51Z</time>
      </trkpt>
      <trkpt lat="43.42918" lon="6.06304">
        <ele>286.58709716797</ele>
        <time>2014-12-17T15:10:54Z</time>
      </trkpt>
      <trkpt lat="43.42918" lon="6.06305">
        <ele>286.58932495117</ele>
        <time>2014-12-17T15:10:57Z</time>
      </trkpt>
      <trkpt lat="43.42918" lon="6.06305">
        <ele>286.6015625</ele>
        <time>2014-12-17T15:11:01Z</time>
      </trkpt>
      <trkpt lat="43.42916" lon="6.06309">
        <ele>286.61285400391</ele>
        <time>2014-12-17T15:11:15Z</time>
      </trkpt>
      <trkpt lat="43.42916" lon="6.06309">
        <ele>286.73138427734</ele>
        <time>2014-12-17T15:11:20Z</time>
      </trkpt>
      <trkpt lat="43.42915" lon="6.06311">
        <ele>286.86776733398</ele>
        <time>2014-12-17T15:11:33Z</time>
      </trkpt>
      <trkpt lat="43.42912" lon="6.06313">
        <ele>287.22601318359</ele>
        <time>2014-12-17T15:11:39Z</time>
      </trkpt>
      <trkpt lat="43.42911" lon="6.06313">
        <ele>287.33734130859</ele>
        <time>2014-12-17T15:11:45Z</time>
      </trkpt>
      <trkpt lat="43.42908" lon="6.06314">
        <ele>287.84039306641</ele>
        <time>2014-12-17T15:11:53Z</time>
      </trkpt>
      <trkpt lat="43.42904" lon="6.06315">
        <ele>288.43856811523</ele>
        <time>2014-12-17T15:12:02Z</time>
      </trkpt>
      <trkpt lat="43.42897" lon="6.06316">
        <ele>289.37762451172</ele>
        <time>2014-12-17T15:12:06Z</time>
      </trkpt>
      <trkpt lat="43.42886" lon="6.06318">
        <ele>290.95938110352</ele>
        <time>2014-12-17T15:12:13Z</time>
      </trkpt>
      <trkpt lat="43.42884" lon="6.06318">
        <ele>291.26528930664</ele>
        <time>2014-12-17T15:12:14Z</time>
      </trkpt>
      <trkpt lat="43.42877" lon="6.06316">
        <ele>292.4924621582</ele>
        <time>2014-12-17T15:12:19Z</time>
      </trkpt>
      <trkpt lat="43.42874" lon="6.06314">
        <ele>293.02096557617</ele>
        <time>2014-12-17T15:12:21Z</time>
      </trkpt>
      <trkpt lat="43.42859" lon="6.06314">
        <ele>295.33264160156</ele>
        <time>2014-12-17T15:12:29Z</time>
      </trkpt>
      <trkpt lat="43.42848" lon="6.06319">
        <ele>296.47714233398</ele>
        <time>2014-12-17T15:12:34Z</time>
      </trkpt>
      <trkpt lat="43.42846" lon="6.06321">
        <ele>296.60488891602</ele>
        <time>2014-12-17T15:12:35Z</time>
      </trkpt>
      <trkpt lat="43.42833" lon="6.06333">
        <ele>297.09527587891</ele>
        <time>2014-12-17T15:12:40Z</time>
      </trkpt>
      <trkpt lat="43.42826" lon="6.06339">
        <ele>297.50903320312</ele>
        <time>2014-12-17T15:12:42Z</time>
      </trkpt>
      <trkpt lat="43.42822" lon="6.06342">
        <ele>297.78900146484</ele>
        <time>2014-12-17T15:12:43Z</time>
      </trkpt>
      <trkpt lat="43.42813" lon="6.06346">
        <ele>298.11672973633</ele>
        <time>2014-12-17T15:12:45Z</time>
      </trkpt>
      <trkpt lat="43.42807" lon="6.06345">
        <ele>298.13128662109</ele>
        <time>2014-12-17T15:12:46Z</time>
      </trkpt>
      <trkpt lat="43.42789" lon="6.06341">
        <ele>298.22375488281</ele>
        <time>2014-12-17T15:12:49Z</time>
      </trkpt>
      <trkpt lat="43.42777" lon="6.06337">
        <ele>298.37252807617</ele>
        <time>2014-12-17T15:12:51Z</time>
      </trkpt>
      <trkpt lat="43.42765" lon="6.06335">
        <ele>298.63912963867</ele>
        <time>2014-12-17T15:12:53Z</time>
      </trkpt>
      <trkpt lat="43.42757" lon="6.06335">
        <ele>298.80285644531</ele>
        <time>2014-12-17T15:12:54Z</time>
      </trkpt>
      <trkpt lat="43.42743" lon="6.0634">
        <ele>297.89462280273</ele>
        <time>2014-12-17T15:12:56Z</time>
      </trkpt>
      <trkpt lat="43.42723" lon="6.06347">
        <ele>295.00296020508</ele>
        <time>2014-12-17T15:12:59Z</time>
      </trkpt>
      <trkpt lat="43.42717" lon="6.06349">
        <ele>293.98193359375</ele>
        <time>2014-12-17T15:13:00Z</time>
      </trkpt>
      <trkpt lat="43.4271" lon="6.0635">
        <ele>293.10708618164</ele>
        <time>2014-12-17T15:13:01Z</time>
      </trkpt>
      <trkpt lat="43.42705" lon="6.06349">
        <ele>292.40951538086</ele>
        <time>2014-12-17T15:13:02Z</time>
      </trkpt>
      <trkpt lat="43.42697" lon="6.06344">
        <ele>291.46304321289</ele>
        <time>2014-12-17T15:13:04Z</time>
      </trkpt>
      <trkpt lat="43.42691" lon="6.06338">
        <ele>290.97579956055</ele>
        <time>2014-12-17T15:13:06Z</time>
      </trkpt>
      <trkpt lat="43.42687" lon="6.06334">
        <ele>290.64779663086</ele>
        <time>2014-12-17T15:13:08Z</time>
      </trkpt>
      <trkpt lat="43.42673" lon="6.06324">
        <ele>290.2760925293</ele>
        <time>2014-12-17T15:13:13Z</time>
      </trkpt>
      <trkpt lat="43.42669" lon="6.06323">
        <ele>289.95278930664</ele>
        <time>2014-12-17T15:13:14Z</time>
      </trkpt>
      <trkpt lat="43.42665" lon="6.06321">
        <ele>289.71997070312</ele>
        <time>2014-12-17T15:13:15Z</time>
      </trkpt>
      <trkpt lat="43.42657" lon="6.0632">
        <ele>289.48391723633</ele>
        <time>2014-12-17T15:13:17Z</time>
      </trkpt>
      <trkpt lat="43.42651" lon="6.06318">
        <ele>289.20352172852</ele>
        <time>2014-12-17T15:13:19Z</time>
      </trkpt>
      <trkpt lat="43.42643" lon="6.06317">
        <ele>288.86437988281</ele>
        <time>2014-12-17T15:13:23Z</time>
      </trkpt>
      <trkpt lat="43.42639" lon="6.06319">
        <ele>288.33166503906</ele>
        <time>2014-12-17T15:13:26Z</time>
      </trkpt>
      <trkpt lat="43.42638" lon="6.0632">
        <ele>288.13708496094</ele>
        <time>2014-12-17T15:13:28Z</time>
      </trkpt>
      <trkpt lat="43.42617" lon="6.06311">
        <ele>288.00701904297</ele>
        <time>2014-12-17T15:13:36Z</time>
      </trkpt>
      <trkpt lat="43.42612" lon="6.06309">
        <ele>288.05142211914</ele>
        <time>2014-12-17T15:13:37Z</time>
      </trkpt>
      <trkpt lat="43.42603" lon="6.06309">
        <ele>287.41104125977</ele>
        <time>2014-12-17T15:13:39Z</time>
      </trkpt>
      <trkpt lat="43.42599" lon="6.06311">
        <ele>286.80484008789</ele>
        <time>2014-12-17T15:13:40Z</time>
      </trkpt>
      <trkpt lat="43.4258" lon="6.06325">
        <ele>283.64404296875</ele>
        <time>2014-12-17T15:13:45Z</time>
      </trkpt>
      <trkpt lat="43.42567" lon="6.06338">
        <ele>282.99118041992</ele>
        <time>2014-12-17T15:13:48Z</time>
      </trkpt>
      <trkpt lat="43.42562" lon="6.06342">
        <ele>283.18698120117</ele>
        <time>2014-12-17T15:13:49Z</time>
      </trkpt>
      <trkpt lat="43.42551" lon="6.06349">
        <ele>283.49011230469</ele>
        <time>2014-12-17T15:13:51Z</time>
      </trkpt>
      <trkpt lat="43.4254" lon="6.06356">
        <ele>283.72595214844</ele>
        <time>2014-12-17T15:13:53Z</time>
      </trkpt>
      <trkpt lat="43.42535" lon="6.06359">
        <ele>283.83511352539</ele>
        <time>2014-12-17T15:13:54Z</time>
      </trkpt>
      <trkpt lat="43.42517" lon="6.06363">
        <ele>284.35485839844</ele>
        <time>2014-12-17T15:13:57Z</time>
      </trkpt>
      <trkpt lat="43.42504" lon="6.06368">
        <ele>284.49276733398</ele>
        <time>2014-12-17T15:13:59Z</time>
      </trkpt>
      <trkpt lat="43.4249" lon="6.06374">
        <ele>284.05822753906</ele>
        <time>2014-12-17T15:14:01Z</time>
      </trkpt>
      <trkpt lat="43.42483" lon="6.06375">
        <ele>283.8821105957</ele>
        <time>2014-12-17T15:14:02Z</time>
      </trkpt>
      <trkpt lat="43.42463" lon="6.06378">
        <ele>283.48245239258</ele>
        <time>2014-12-17T15:14:05Z</time>
      </trkpt>
      <trkpt lat="43.42455" lon="6.0638">
        <ele>283.18194580078</ele>
        <time>2014-12-17T15:14:06Z</time>
      </trkpt>
      <trkpt lat="43.42449" lon="6.06383">
        <ele>282.85211181641</ele>
        <time>2014-12-17T15:14:07Z</time>
      </trkpt>
      <trkpt lat="43.42432" lon="6.06397">
        <ele>281.24871826172</ele>
        <time>2014-12-17T15:14:10Z</time>
      </trkpt>
      <trkpt lat="43.42421" lon="6.06405">
        <ele>280.28564453125</ele>
        <time>2014-12-17T15:14:12Z</time>
      </trkpt>
      <trkpt lat="43.42417" lon="6.06407">
        <ele>280.05694580078</ele>
        <time>2014-12-17T15:14:13Z</time>
      </trkpt>
      <trkpt lat="43.42413" lon="6.06407">
        <ele>279.79287719727</ele>
        <time>2014-12-17T15:14:14Z</time>
      </trkpt>
      <trkpt lat="43.424" lon="6.06404">
        <ele>279.32330322266</ele>
        <time>2014-12-17T15:14:17Z</time>
      </trkpt>
      <trkpt lat="43.42389" lon="6.06399">
        <ele>279.11587524414</ele>
        <time>2014-12-17T15:14:19Z</time>
      </trkpt>
      <trkpt lat="43.42378" lon="6.064">
        <ele>278.32223510742</ele>
        <time>2014-12-17T15:14:21Z</time>
      </trkpt>
      <trkpt lat="43.42373" lon="6.06403">
        <ele>277.65298461914</ele>
        <time>2014-12-17T15:14:22Z</time>
      </trkpt>
      <trkpt lat="43.42359" lon="6.06419">
        <ele>275.39663696289</ele>
        <time>2014-12-17T15:14:25Z</time>
      </trkpt>
      <trkpt lat="43.42354" lon="6.06424">
        <ele>274.79638671875</ele>
        <time>2014-12-17T15:14:26Z</time>
      </trkpt>
      <trkpt lat="43.4234" lon="6.06434">
        <ele>273.23999023438</ele>
        <time>2014-12-17T15:14:29Z</time>
      </trkpt>
      <trkpt lat="43.42331" lon="6.0644">
        <ele>272.11962890625</ele>
        <time>2014-12-17T15:14:31Z</time>
      </trkpt>
      <trkpt lat="43.42326" lon="6.06444">
        <ele>271.56539916992</ele>
        <time>2014-12-17T15:14:32Z</time>
      </trkpt>
      <trkpt lat="43.42322" lon="6.06448">
        <ele>271.00448608398</ele>
        <time>2014-12-17T15:14:33Z</time>
      </trkpt>
      <trkpt lat="43.42308" lon="6.06465">
        <ele>268.90414428711</ele>
        <time>2014-12-17T15:14:36Z</time>
      </trkpt>
      <trkpt lat="43.42303" lon="6.0647">
        <ele>268.15682983398</ele>
        <time>2014-12-17T15:14:37Z</time>
      </trkpt>
      <trkpt lat="43.42289" lon="6.0649">
        <ele>266.03085327148</ele>
        <time>2014-12-17T15:14:40Z</time>
      </trkpt>
      <trkpt lat="43.42285" lon="6.06496">
        <ele>265.37271118164</ele>
        <time>2014-12-17T15:14:41Z</time>
      </trkpt>
      <trkpt lat="43.42273" lon="6.06508">
        <ele>263.96984863281</ele>
        <time>2014-12-17T15:14:43Z</time>
      </trkpt>
      <trkpt lat="43.42259" lon="6.06517">
        <ele>262.88168334961</ele>
        <time>2014-12-17T15:14:45Z</time>
      </trkpt>
      <trkpt lat="43.42245" lon="6.06518">
        <ele>262.08508300781</ele>
        <time>2014-12-17T15:14:47Z</time>
      </trkpt>
      <trkpt lat="43.42231" lon="6.06514">
        <ele>261.38238525391</ele>
        <time>2014-12-17T15:14:49Z</time>
      </trkpt>
      <trkpt lat="43.42217" lon="6.0651">
        <ele>260.65740966797</ele>
        <time>2014-12-17T15:14:51Z</time>
      </trkpt>
      <trkpt lat="43.4221" lon="6.0651">
        <ele>260.24487304688</ele>
        <time>2014-12-17T15:14:52Z</time>
      </trkpt>
      <trkpt lat="43.42205" lon="6.0651">
        <ele>259.91928100586</ele>
        <time>2014-12-17T15:14:53Z</time>
      </trkpt>
      <trkpt lat="43.42196" lon="6.0651">
        <ele>259.42260742188</ele>
        <time>2014-12-17T15:14:55Z</time>
      </trkpt>
      <trkpt lat="43.42194" lon="6.06507">
        <ele>259.35852050781</ele>
        <time>2014-12-17T15:14:56Z</time>
      </trkpt>
      <trkpt lat="43.42191" lon="6.06499">
        <ele>259.51150512695</ele>
        <time>2014-12-17T15:14:58Z</time>
      </trkpt>
      <trkpt lat="43.42191" lon="6.06492">
        <ele>259.76409912109</ele>
        <time>2014-12-17T15:15:00Z</time>
      </trkpt>
      <trkpt lat="43.42189" lon="6.06479">
        <ele>260.2438659668</ele>
        <time>2014-12-17T15:15:04Z</time>
      </trkpt>
      <trkpt lat="43.42187" lon="6.06467">
        <ele>260.61511230469</ele>
        <time>2014-12-17T15:15:07Z</time>
      </trkpt>
      <trkpt lat="43.42184" lon="6.06448">
        <ele>261.15063476562</ele>
        <time>2014-12-17T15:15:11Z</time>
      </trkpt>
      <trkpt lat="43.42174" lon="6.06398">
        <ele>262.30868530273</ele>
        <time>2014-12-17T15:15:19Z</time>
      </trkpt>
      <trkpt lat="43.42166" lon="6.06352">
        <ele>263.28875732422</ele>
        <time>2014-12-17T15:15:26Z</time>
      </trkpt>
      <trkpt lat="43.42162" lon="6.06319">
        <ele>264.18984985352</ele>
        <time>2014-12-17T15:15:31Z</time>
      </trkpt>
      <trkpt lat="43.42161" lon="6.06307">
        <ele>264.65625</ele>
        <time>2014-12-17T15:15:33Z</time>
      </trkpt>
      <trkpt lat="43.42159" lon="6.06283">
        <ele>265.52612304688</ele>
        <time>2014-12-17T15:15:37Z</time>
      </trkpt>
      <trkpt lat="43.42159" lon="6.06267">
        <ele>266.22204589844</ele>
        <time>2014-12-17T15:15:40Z</time>
      </trkpt>
      <trkpt lat="43.42159" lon="6.06252">
        <ele>266.81280517578</ele>
        <time>2014-12-17T15:15:43Z</time>
      </trkpt>
      <trkpt lat="43.42158" lon="6.06241">
        <ele>267.28750610352</ele>
        <time>2014-12-17T15:15:46Z</time>
      </trkpt>
      <trkpt lat="43.42155" lon="6.06224">
        <ele>267.57522583008</ele>
        <time>2014-12-17T15:15:51Z</time>
      </trkpt>
      <trkpt lat="43.42151" lon="6.0622">
        <ele>267.2646484375</ele>
        <time>2014-12-17T15:15:53Z</time>
      </trkpt>
      <trkpt lat="43.42139" lon="6.0622">
        <ele>265.51586914062</ele>
        <time>2014-12-17T15:15:58Z</time>
      </trkpt>
      <trkpt lat="43.4212" lon="6.06226">
        <ele>262.61477661133</ele>
        <time>2014-12-17T15:16:03Z</time>
      </trkpt>
      <trkpt lat="43.4211" lon="6.0623">
        <ele>261.12243652344</ele>
        <time>2014-12-17T15:16:05Z</time>
      </trkpt>
      <trkpt lat="43.42091" lon="6.06236">
        <ele>258.44097900391</ele>
        <time>2014-12-17T15:16:08Z</time>
      </trkpt>
      <trkpt lat="43.42078" lon="6.0624">
        <ele>256.8073425293</ele>
        <time>2014-12-17T15:16:10Z</time>
      </trkpt>
      <trkpt lat="43.42062" lon="6.06246">
        <ele>255.57002258301</ele>
        <time>2014-12-17T15:16:12Z</time>
      </trkpt>
      <trkpt lat="43.42054" lon="6.06249">
        <ele>254.88157653809</ele>
        <time>2014-12-17T15:16:13Z</time>
      </trkpt>
      <trkpt lat="43.42045" lon="6.06252">
        <ele>254.20718383789</ele>
        <time>2014-12-17T15:16:14Z</time>
      </trkpt>
      <trkpt lat="43.42036" lon="6.06255">
        <ele>253.53884887695</ele>
        <time>2014-12-17T15:16:15Z</time>
      </trkpt>
      <trkpt lat="43.42016" lon="6.06261">
        <ele>252.00247192383</ele>
        <time>2014-12-17T15:16:17Z</time>
      </trkpt>
      <trkpt lat="43.42005" lon="6.06265">
        <ele>251.19110107422</ele>
        <time>2014-12-17T15:16:18Z</time>
      </trkpt>
      <trkpt lat="43.41984" lon="6.06272">
        <ele>249.26493835449</ele>
        <time>2014-12-17T15:16:20Z</time>
      </trkpt>
      <trkpt lat="43.41974" lon="6.06276">
        <ele>248.28045654297</ele>
        <time>2014-12-17T15:16:21Z</time>
      </trkpt>
      <trkpt lat="43.41963" lon="6.06279">
        <ele>247.23593139648</ele>
        <time>2014-12-17T15:16:22Z</time>
      </trkpt>
      <trkpt lat="43.41943" lon="6.06286">
        <ele>245.42228698731</ele>
        <time>2014-12-17T15:16:24Z</time>
      </trkpt>
      <trkpt lat="43.41925" lon="6.06292">
        <ele>243.78775024414</ele>
        <time>2014-12-17T15:16:26Z</time>
      </trkpt>
      <trkpt lat="43.41908" lon="6.06295">
        <ele>242.57836914062</ele>
        <time>2014-12-17T15:16:28Z</time>
      </trkpt>
      <trkpt lat="43.41879" lon="6.06294">
        <ele>241.205078125</ele>
        <time>2014-12-17T15:16:31Z</time>
      </trkpt>
      <trkpt lat="43.4186" lon="6.06292">
        <ele>240.27124023438</ele>
        <time>2014-12-17T15:16:33Z</time>
      </trkpt>
      <trkpt lat="43.41839" lon="6.06292">
        <ele>239.28247070312</ele>
        <time>2014-12-17T15:16:35Z</time>
      </trkpt>
      <trkpt lat="43.41819" lon="6.06292">
        <ele>238.31201171875</ele>
        <time>2014-12-17T15:16:37Z</time>
      </trkpt>
      <trkpt lat="43.4181" lon="6.0629">
        <ele>237.89086914062</ele>
        <time>2014-12-17T15:16:38Z</time>
      </trkpt>
      <trkpt lat="43.41794" lon="6.06278">
        <ele>237.12182617188</ele>
        <time>2014-12-17T15:16:40Z</time>
      </trkpt>
      <trkpt lat="43.41787" lon="6.06272">
        <ele>236.77392578125</ele>
        <time>2014-12-17T15:16:41Z</time>
      </trkpt>
      <trkpt lat="43.41762" lon="6.06256">
        <ele>235.58374023438</ele>
        <time>2014-12-17T15:16:44Z</time>
      </trkpt>
      <trkpt lat="43.41754" lon="6.06253">
        <ele>235.18090820312</ele>
        <time>2014-12-17T15:16:45Z</time>
      </trkpt>
      <trkpt lat="43.41745" lon="6.06251">
        <ele>234.74067687988</ele>
        <time>2014-12-17T15:16:46Z</time>
      </trkpt>
      <trkpt lat="43.41726" lon="6.06249">
        <ele>233.85824584961</ele>
        <time>2014-12-17T15:16:48Z</time>
      </trkpt>
      <trkpt lat="43.41717" lon="6.06249">
        <ele>233.41758728027</ele>
        <time>2014-12-17T15:16:49Z</time>
      </trkpt>
      <trkpt lat="43.41708" lon="6.06249">
        <ele>232.99397277832</ele>
        <time>2014-12-17T15:16:50Z</time>
      </trkpt>
      <trkpt lat="43.41683" lon="6.06249">
        <ele>231.80615234375</ele>
        <time>2014-12-17T15:16:53Z</time>
      </trkpt>
      <trkpt lat="43.41667" lon="6.06246">
        <ele>231.12937927246</ele>
        <time>2014-12-17T15:16:55Z</time>
      </trkpt>
      <trkpt lat="43.41653" lon="6.06242">
        <ele>230.4010925293</ele>
        <time>2014-12-17T15:16:57Z</time>
      </trkpt>
      <trkpt lat="43.4164" lon="6.06236">
        <ele>229.73733520508</ele>
        <time>2014-12-17T15:16:59Z</time>
      </trkpt>
      <trkpt lat="43.41634" lon="6.06233">
        <ele>229.44665527344</ele>
        <time>2014-12-17T15:17:00Z</time>
      </trkpt>
      <trkpt lat="43.41623" lon="6.06231">
        <ele>228.84240722656</ele>
        <time>2014-12-17T15:17:03Z</time>
      </trkpt>
      <trkpt lat="43.41619" lon="6.06231">
        <ele>228.61581420898</ele>
        <time>2014-12-17T15:17:04Z</time>
      </trkpt>
      <trkpt lat="43.4161" lon="6.06234">
        <ele>227.98638916016</ele>
        <time>2014-12-17T15:17:08Z</time>
      </trkpt>
      <trkpt lat="43.41608" lon="6.06234">
        <ele>227.89826965332</ele>
        <time>2014-12-17T15:17:13Z</time>
      </trkpt>
      <trkpt lat="43.41608" lon="6.06234">
        <ele>227.86851501465</ele>
        <time>2014-12-17T15:17:28Z</time>
      </trkpt>
      <trkpt lat="43.41608" lon="6.06235">
        <ele>227.81129455566</ele>
        <time>2014-12-17T15:17:29Z</time>
      </trkpt>
      <trkpt lat="43.41607" lon="6.06239">
        <ele>227.66481018066</ele>
        <time>2014-12-17T15:17:31Z</time>
      </trkpt>
      <trkpt lat="43.41605" lon="6.0624">
        <ele>227.55494689941</ele>
        <time>2014-12-17T15:17:32Z</time>
      </trkpt>
      <trkpt lat="43.41605" lon="6.06243">
        <ele>227.4542388916</ele>
        <time>2014-12-17T15:17:33Z</time>
      </trkpt>
      <trkpt lat="43.41604" lon="6.06246">
        <ele>227.33293151856</ele>
        <time>2014-12-17T15:17:34Z</time>
      </trkpt>
      <trkpt lat="43.41603" lon="6.06254">
        <ele>227.06533813477</ele>
        <time>2014-12-17T15:17:37Z</time>
      </trkpt>
      <trkpt lat="43.41599" lon="6.06258">
        <ele>226.68983459473</ele>
        <time>2014-12-17T15:17:41Z</time>
      </trkpt>
      <trkpt lat="43.41589" lon="6.0627">
        <ele>225.6199798584</ele>
        <time>2014-12-17T15:17:45Z</time>
      </trkpt>
      <trkpt lat="43.41586" lon="6.06283">
        <ele>225.00549316406</ele>
        <time>2014-12-17T15:17:47Z</time>
      </trkpt>
      <trkpt lat="43.41586" lon="6.0629">
        <ele>224.72100830078</ele>
        <time>2014-12-17T15:17:48Z</time>
      </trkpt>
      <trkpt lat="43.41586" lon="6.06298">
        <ele>224.47763061523</ele>
        <time>2014-12-17T15:17:49Z</time>
      </trkpt>
      <trkpt lat="43.41585" lon="6.06306">
        <ele>224.11161804199</ele>
        <time>2014-12-17T15:17:50Z</time>
      </trkpt>
      <trkpt lat="43.41579" lon="6.0632">
        <ele>223.4035949707</ele>
        <time>2014-12-17T15:17:52Z</time>
      </trkpt>
      <trkpt lat="43.41575" lon="6.06327">
        <ele>223.11820983887</ele>
        <time>2014-12-17T15:17:53Z</time>
      </trkpt>
      <trkpt lat="43.41566" lon="6.06343">
        <ele>222.65905761719</ele>
        <time>2014-12-17T15:17:55Z</time>
      </trkpt>
      <trkpt lat="43.41563" lon="6.06352">
        <ele>222.47802734375</ele>
        <time>2014-12-17T15:17:56Z</time>
      </trkpt>
      <trkpt lat="43.4156" lon="6.06361">
        <ele>222.29222106934</ele>
        <time>2014-12-17T15:17:57Z</time>
      </trkpt>
      <trkpt lat="43.41555" lon="6.06382">
        <ele>221.86773681641</ele>
        <time>2014-12-17T15:17:59Z</time>
      </trkpt>
      <trkpt lat="43.4155" lon="6.06407">
        <ele>221.37068176269</ele>
        <time>2014-12-17T15:18:01Z</time>
      </trkpt>
      <trkpt lat="43.41548" lon="6.06419">
        <ele>221.13192749023</ele>
        <time>2014-12-17T15:18:02Z</time>
      </trkpt>
      <trkpt lat="43.41546" lon="6.0643">
        <ele>221.01397705078</ele>
        <time>2014-12-17T15:18:03Z</time>
      </trkpt>
      <trkpt lat="43.41544" lon="6.06448">
        <ele>220.85591125488</ele>
        <time>2014-12-17T15:18:05Z</time>
      </trkpt>
      <trkpt lat="43.41545" lon="6.0646">
        <ele>220.79736328125</ele>
        <time>2014-12-17T15:18:08Z</time>
      </trkpt>
      <trkpt lat="43.41543" lon="6.06464">
        <ele>220.73307800293</ele>
        <time>2014-12-17T15:18:11Z</time>
      </trkpt>
      <trkpt lat="43.41541" lon="6.06466">
        <ele>220.68609619141</ele>
        <time>2014-12-17T15:18:13Z</time>
      </trkpt>
      <trkpt lat="43.41534" lon="6.06472">
        <ele>220.53935241699</ele>
        <time>2014-12-17T15:18:16Z</time>
      </trkpt>
      <trkpt lat="43.41533" lon="6.06481">
        <ele>220.47813415527</ele>
        <time>2014-12-17T15:18:18Z</time>
      </trkpt>
      <trkpt lat="43.41531" lon="6.06491">
        <ele>220.40701293945</ele>
        <time>2014-12-17T15:18:20Z</time>
      </trkpt>
      <trkpt lat="43.41528" lon="6.06501">
        <ele>220.32643127441</ele>
        <time>2014-12-17T15:18:22Z</time>
      </trkpt>
      <trkpt lat="43.41525" lon="6.0651">
        <ele>220.21864318848</ele>
        <time>2014-12-17T15:18:24Z</time>
      </trkpt>
      <trkpt lat="43.41524" lon="6.06519">
        <ele>220.12559509277</ele>
        <time>2014-12-17T15:18:26Z</time>
      </trkpt>
      <trkpt lat="43.41518" lon="6.06556">
        <ele>219.6842956543</ele>
        <time>2014-12-17T15:18:33Z</time>
      </trkpt>
      <trkpt lat="43.4151" lon="6.06603">
        <ele>219.22010803223</ele>
        <time>2014-12-17T15:18:41Z</time>
      </trkpt>
      <trkpt lat="43.41504" lon="6.06649">
        <ele>219.05682373047</ele>
        <time>2014-12-17T15:18:49Z</time>
      </trkpt>
      <trkpt lat="43.41503" lon="6.06655">
        <ele>219.04298400879</ele>
        <time>2014-12-17T15:18:50Z</time>
      </trkpt>
      <trkpt lat="43.415" lon="6.06674">
        <ele>219.00347900391</ele>
        <time>2014-12-17T15:18:53Z</time>
      </trkpt>
      <trkpt lat="43.41497" lon="6.0674">
        <ele>219.03094482422</ele>
        <time>2014-12-17T15:19:02Z</time>
      </trkpt>
      <trkpt lat="43.41496" lon="6.06756">
        <ele>219.04547119141</ele>
        <time>2014-12-17T15:19:04Z</time>
      </trkpt>
      <trkpt lat="43.41491" lon="6.0679">
        <ele>219.0584564209</ele>
        <time>2014-12-17T15:19:08Z</time>
      </trkpt>
      <trkpt lat="43.41485" lon="6.06814">
        <ele>219.04084777832</ele>
        <time>2014-12-17T15:19:11Z</time>
      </trkpt>
      <trkpt lat="43.41478" lon="6.06835">
        <ele>218.9743347168</ele>
        <time>2014-12-17T15:19:14Z</time>
      </trkpt>
      <trkpt lat="43.41476" lon="6.06847">
        <ele>218.78225708008</ele>
        <time>2014-12-17T15:19:16Z</time>
      </trkpt>
      <trkpt lat="43.41476" lon="6.0687">
        <ele>218.42851257324</ele>
        <time>2014-12-17T15:19:21Z</time>
      </trkpt>
      <trkpt lat="43.41478" lon="6.06878">
        <ele>218.31773376465</ele>
        <time>2014-12-17T15:19:27Z</time>
      </trkpt>
      <trkpt lat="43.41478" lon="6.06878">
        <ele>218.32380676269</ele>
        <time>2014-12-17T15:19:30Z</time>
      </trkpt>
      <trkpt lat="43.41476" lon="6.06902">
        <ele>217.94996643066</ele>
        <time>2014-12-17T15:19:42Z</time>
      </trkpt>
      <trkpt lat="43.41471" lon="6.0692">
        <ele>217.60971069336</ele>
        <time>2014-12-17T15:19:47Z</time>
      </trkpt>
      <trkpt lat="43.41468" lon="6.06929">
        <ele>217.46723937988</ele>
        <time>2014-12-17T15:19:50Z</time>
      </trkpt>
      <trkpt lat="43.41469" lon="6.06931">
        <ele>217.45178222656</ele>
        <time>2014-12-17T15:19:51Z</time>
      </trkpt>
      <trkpt lat="43.41479" lon="6.06944">
        <ele>217.41917419434</ele>
        <time>2014-12-17T15:19:56Z</time>
      </trkpt>
      <trkpt lat="43.41492" lon="6.06961">
        <ele>217.38082885742</ele>
        <time>2014-12-17T15:20:01Z</time>
      </trkpt>
      <trkpt lat="43.41506" lon="6.06973">
        <ele>217.45146179199</ele>
        <time>2014-12-17T15:20:07Z</time>
      </trkpt>
      <trkpt lat="43.41514" lon="6.06974">
        <ele>217.59756469727</ele>
        <time>2014-12-17T15:20:11Z</time>
      </trkpt>
      <trkpt lat="43.4152" lon="6.06975">
        <ele>217.70973205566</ele>
        <time>2014-12-17T15:20:16Z</time>
      </trkpt>
      <trkpt lat="43.41521" lon="6.06975">
        <ele>217.74163818359</ele>
        <time>2014-12-17T15:20:17Z</time>
      </trkpt>
      <trkpt lat="43.41535" lon="6.06973">
        <ele>218.03511047363</ele>
        <time>2014-12-17T15:20:23Z</time>
      </trkpt>
      <trkpt lat="43.41554" lon="6.06971">
        <ele>218.42375183106</ele>
        <time>2014-12-17T15:20:31Z</time>
      </trkpt>
      <trkpt lat="43.41561" lon="6.06971">
        <ele>218.55305480957</ele>
        <time>2014-12-17T15:20:34Z</time>
      </trkpt>
      <trkpt lat="43.41569" lon="6.06969">
        <ele>218.72340393066</ele>
        <time>2014-12-17T15:20:39Z</time>
      </trkpt>
      <trkpt lat="43.41571" lon="6.06968">
        <ele>218.76922607422</ele>
        <time>2014-12-17T15:20:41Z</time>
      </trkpt>
      <trkpt lat="43.41573" lon="6.06971">
        <ele>218.79423522949</ele>
        <time>2014-12-17T15:20:44Z</time>
      </trkpt>
      <trkpt lat="43.41576" lon="6.06987">
        <ele>218.82984924316</ele>
        <time>2014-12-17T15:20:49Z</time>
      </trkpt>
      <trkpt lat="43.41579" lon="6.0702">
        <ele>218.65222167969</ele>
        <time>2014-12-17T15:20:58Z</time>
      </trkpt>
      <trkpt lat="43.41579" lon="6.07033">
        <ele>218.50746154785</ele>
        <time>2014-12-17T15:21:05Z</time>
      </trkpt>
      <trkpt lat="43.4158" lon="6.07033">
        <ele>218.51718139648</ele>
        <time>2014-12-17T15:21:07Z</time>
      </trkpt>
    </trkseg>
  </trk>
</gpx>